[[[{"header":{"parameterUnit":"kt","parameterCategory":2,"dx":1,"dy":1,"la1":29.587661999999998,"la2":31.0,"lo1":-88.76705300000003,"lo2":-86.6583820000003,"nx":115,"ny":88,"refTime":"2022-10-02T18:00:00:Z","depth":0,"parameterNumber":1,"parameterNumberName":"U-component_of_WINDS"},"data":[1.7463,1.9389,2.1443,2.2349,2.2606,2.44,2.5303,2.5559,2.7098,2.7871,2.7353,2.7217,2.6181,2.4513,2.4513,2.4768,2.5271,2.5782,2.669,2.7344,2.6181,2.6648,2.6714,2.5683,2.5841,2.5531,2.477,2.4338,2.4045,2.2669,2.1957,2.1957,2.1957,2.0658,2.0632,1.981,1.8205,1.8141,1.7224,1.6554,1.667,1.6432,1.6562,1.6692,1.6692,1.6692,1.6692,1.6692,1.6692,1.6692,1.6692,1.6692,1.6692,1.6692,1.6692,1.6821,1.6821,1.708,1.721,1.7845,1.8233,1.8756,1.9401,2.0412,2.1004,2.1875,2.223,2.3503,2.435,2.3767,2.4537,2.6789,2.9063,3.0055,3.0865,3.118,3.1926,3.212,3.212,3.2557,3.2993,3.3096,3.3188,3.3405,3.3405,3.3988,3.3988,3.3988,3.3988,3.3988,3.3988,3.3835,3.3671,3.3483,3.3155,3.2552,3.2275,3.2122,3.1888,3.1512,3.1184,3.0914,3.0879,3.089,3.0994,3.0994,3.1408,3.2223,3.2533,3.2623,3.3356,3.3959,3.4355,3.5362,3.739,1.5779,1.7334,1.9266,2.0163,2.0555,2.2342,2.3119,2.3247,2.3632,2.376,2.324,2.1024,1.9983,1.9591,1.9591,1.972,2.0349,2.1718,2.097,2.1105,2.1873,2.2587,2.2923,2.2997,2.3035,2.2931,2.2718,2.2293,2.1571,1.9763,1.8609,1.9002,1.7328,1.5131,1.6287,1.6261,1.5843,1.6391,1.653,1.6401,1.6023,1.5649,1.5649,1.6168,1.6692,1.6692,1.6692,1.6692,1.6692,1.6692,1.6692,1.6692,1.6692,1.6692,1.6692,1.6692,1.6692,1.6805,1.6913,1.6902,1.7037,1.7128,1.7369,1.7783,1.7973,1.8203,1.7819,1.8877,2.0361,2.1046,2.1776,2.33,2.5647,2.7265,2.7857,2.8409,2.959,3.0495,3.0568,3.0683,3.1134,3.1479,3.1813,3.226,3.2833,3.3634,3.3988,3.3988,3.3815,3.3357,3.2867,3.2707,3.2498,3.253,3.2494,3.2073,3.177,3.163,3.15,3.116,3.0914,3.089,3.0879,3.0879,3.0879,3.0879,3.1293,3.1615,3.1408,3.1397,3.2326,3.3446,3.3446,3.3843,3.5783,1.3707,1.4491,1.539,1.5779,1.6158,1.7946,1.8843,1.9101,2.0131,1.9236,1.7058,1.6018,1.5874,1.6892,1.6892,1.7537,1.8918,1.8426,1.788,1.8302,1.9463,1.8986,1.9407,2.0106,2.0126,1.9843,1.937,1.8204,1.6546,1.538,1.4991,1.5001,1.4356,1.3321,1.3971,1.3967,1.3828,1.4356,1.4227,1.4227,1.4097,1.3837,1.3967,1.3967,1.4486,1.4876,1.5001,1.552,1.5909,1.6432,1.6562,1.6562,1.6432,1.6546,1.6681,1.667,1.6649,1.6639,1.6538,1.6475,1.6433,1.6438,1.6556,1.6676,1.6741,1.6444,1.6203,1.6302,1.7893,1.8725,1.9467,1.9995,2.2094,2.3615,2.4332,2.5265,2.6446,2.7858,2.891,2.9151,2.997,3.0316,3.0662,3.1112,3.131,3.2227,3.202,3.1791,3.2187,3.2098,3.1716,3.1369,3.1042,3.1019,3.1121,3.1049,3.0927,3.1091,3.109,3.0833,3.0695,3.0787,3.0879,3.0879,3.0879,3.0879,3.0879,3.1098,3.0994,3.0994,3.181,3.2829,3.2533,3.2623,3.4513,1.2154,1.2414,1.2414,1.2414,1.2671,1.4209,1.4843,1.4972,1.5993,1.4325,1.1886,1.1629,1.2398,1.3417,1.3417,1.4061,1.5293,1.4669,1.5825,1.5506,1.5725,1.5414,1.6139,1.6283,1.6878,1.6464,1.5692,1.4399,1.3689,1.2801,1.2154,1.254,1.1372,1.1763,1.2671,1.2154,1.228,1.2801,1.228,1.1629,1.202,1.202,1.2284,1.2544,1.2671,1.3321,1.3577,1.4092,1.4741,1.5395,1.5654,1.5784,1.5774,1.5983,1.62,1.6538,1.6475,1.6396,1.6311,1.6264,1.609,1.5959,1.5973,1.5946,1.5799,1.5487,1.5442,1.5442,1.5788,1.6506,1.7075,1.7549,1.8371,1.9433,2.0501,2.1788,2.307,2.4941,2.692,2.7858,2.8804,2.9267,2.9624,2.9939,3.0013,3.0086,3.0045,3.0231,3.0693,3.0181,2.9656,2.9577,2.9306,2.9411,2.9514,2.9432,2.9542,2.9618,3.0105,3.0291,3.0371,3.0671,3.0879,3.0879,3.0879,3.0879,3.0879,3.0994,3.0994,3.0879,3.15,3.2211,3.2108,3.1591,3.3236,1.1365,1.2268,1.2414,1.228,1.241,1.254,1.2667,1.254,1.071,0.9021,0.9021,0.8766,0.9152,0.9928,1.0059,1.0186,1.0659,1.0652,1.082,0.9201,1.1022,1.1674,1.1933,1.2149,1.2949,1.2963,1.2558,1.2078,1.1829,1.1347,1.1076,1.228,1.0199,0.9938,1.1368,1.0981,1.0981,1.1242,1.0329,0.9677,1.0456,1.0847,1.1108,1.2024,1.2154,1.2414,1.254,1.2671,1.2671,1.2801,1.2931,1.3053,1.3512,1.3949,1.5029,1.545,1.5797,1.5855,1.5943,1.6036,1.587,1.5904,1.5814,1.5719,1.5635,1.5413,1.5323,1.5421,1.5421,1.5895,1.6133,1.6364,1.6838,1.7786,1.8495,1.9433,2.0494,2.178,2.3881,2.5748,2.6776,2.7944,2.828,2.8178,2.8337,2.9144,2.939,2.9224,2.8992,2.7878,2.7542,2.7676,2.7773,2.789,2.8016,2.8321,2.8203,2.86,2.9029,2.9435,3.0256,3.0671,3.0879,3.0879,3.0879,3.0879,3.0879,3.0879,3.0879,3.0855,3.113,3.1671,3.1399,3.0843,3.1618,0.9377,0.9711,0.9862,0.9887,0.9834,0.99,0.9938,0.9807,0.8894,0.8371,0.8371,0.8369,0.8371,0.8371,0.8366,0.8361,0.8345,0.8189,0.8088,0.804,0.8625,0.8715,0.871,0.935,0.98,0.961,0.9676,1.0145,0.955,0.9237,0.9356,0.9916,0.9155,0.9155,0.9674,0.9804,0.9677,0.9546,0.9285,0.8897,0.9024,0.9285,0.9416,0.9807,0.9807,1.046,1.1111,1.1242,1.1763,1.2414,1.2414,1.2501,1.2618,1.2834,1.3708,1.4541,1.4851,1.504,1.5441,1.5548,1.5703,1.5598,1.5492,1.5455,1.5283,1.5142,1.5215,1.5302,1.5302,1.5421,1.5421,1.5421,1.589,1.6364,1.6838,1.7312,1.814,1.9086,2.095,2.3163,2.4588,2.5853,2.6597,2.6618,2.6795,2.7362,2.7559,2.7612,2.7054,2.6129,2.6002,2.6103,2.6304,2.6504,2.6934,2.727,2.7658,2.8287,2.86,2.9226,3.0256,3.0671,3.0879,3.0879,3.0879,3.0879,3.0879,3.0879,3.0785,3.0726,3.0873,3.0758,3.0371,2.9944,2.9998,0.8099,0.8038,0.8199,0.8223,0.8165,0.8236,0.8271,0.8271,0.8271,0.8297,0.8324,0.8321,0.8334,0.8366,0.8337,0.8321,0.8231,0.8107,0.8003,0.7905,0.7918,0.7715,0.7709,0.7886,0.7813,0.7991,0.8053,0.8245,0.8163,0.8091,0.8333,0.8318,0.835,0.8369,0.8502,0.8371,0.8502,0.8502,0.8633,0.8502,0.8502,0.8502,0.8633,0.8633,0.8763,0.9024,0.9677,0.9807,1.0157,1.0919,1.1038,1.1092,1.1197,1.1513,1.1849,1.2817,1.3356,1.3665,1.426,1.4463,1.4539,1.4545,1.4257,1.4346,1.4346,1.4356,1.4589,1.4822,1.494,1.5183,1.5421,1.5421,1.5539,1.5771,1.589,1.6364,1.672,1.7525,1.851,2.0455,2.1371,2.2739,2.4574,2.4822,2.4849,2.5184,2.5368,2.5609,2.5355,2.4975,2.4731,2.4827,2.5029,2.5345,2.5652,2.6073,2.6914,2.7763,2.8182,2.8705,2.9528,3.0152,3.0671,3.0879,3.0879,3.0879,3.0867,3.0679,3.0515,3.048,3.0198,2.9729,2.9346,2.9322,2.9307,0.7897,0.7894,0.8027,0.8035,0.8027,0.8038,0.804,0.8035,0.7915,0.8104,0.8202,0.821,0.8252,0.8324,0.8255,0.821,0.8154,0.7842,0.7769,0.7701,0.762,0.7584,0.7566,0.7579,0.7631,0.7688,0.773,0.7766,0.8001,0.8019,0.8077,0.8183,0.8284,0.8329,0.835,0.8361,0.8371,0.8371,0.8371,0.8371,0.8371,0.8371,0.8371,0.8371,0.8371,0.8502,0.8627,0.8741,0.8686,0.8636,0.8583,0.8379,0.8656,0.915,0.9592,1.0255,1.1122,1.1572,1.2127,1.2255,1.2447,1.2923,1.2315,1.1842,1.2081,1.3033,1.339,1.3747,1.4346,1.4822,1.5302,1.5302,1.5297,1.5286,1.5286,1.5373,1.5615,1.6128,1.698,1.7943,1.9085,2.0298,2.2226,2.2931,2.2943,2.3271,2.3677,2.3834,2.3816,2.3451,2.3548,2.3654,2.4183,2.4289,2.4395,2.4703,2.5547,2.6504,2.7134,2.7868,2.8589,2.9204,2.9944,3.0464,3.0671,3.0843,3.0797,3.0609,3.0304,2.9881,2.9565,2.9131,2.872,2.8665,2.8602,0.774,0.7693,0.7956,0.7977,0.7908,0.7779,0.7905,0.7916,0.7987,0.7912,0.7964,0.8162,0.8186,0.8162,0.8165,0.8173,0.8062,0.7787,0.7719,0.7706,0.7607,0.7568,0.7558,0.7566,0.7592,0.7597,0.762,0.7631,0.7699,0.7751,0.7811,0.8022,0.8154,0.8095,0.8144,0.8191,0.8223,0.8348,0.8095,0.8097,0.823,0.8241,0.8371,0.8108,0.8233,0.8105,0.8217,0.8303,0.8236,0.8189,0.8117,0.8024,0.8061,0.8223,0.8303,0.8716,0.9483,1.0545,1.1123,1.1243,1.0889,1.1123,1.0527,1.065,1.1481,1.1822,1.2064,1.2531,1.339,1.3861,1.4213,1.5297,1.5281,1.5244,1.5201,1.5075,1.5149,1.5121,1.5833,1.7171,1.8208,1.9054,2.0324,2.0592,2.0899,2.1416,2.1833,2.208,2.2095,2.2274,2.2478,2.3433,2.4068,2.4078,2.4078,2.4068,2.4501,2.5144,2.5978,2.6819,2.7543,2.8474,2.9215,2.9747,3.0187,3.0543,3.0611,3.0456,2.991,2.9465,2.906,2.8579,2.8157,2.7992,2.7885,0.7505,0.7576,0.7717,0.749,0.7186,0.7176,0.7179,0.7191,0.725,0.7306,0.7601,0.791,0.8038,0.8035,0.8059,0.8024,0.7818,0.7719,0.7665,0.7657,0.7597,0.7566,0.7558,0.7558,0.756,0.756,0.756,0.7568,0.756,0.7628,0.7675,0.7732,0.7873,0.782,0.7479,0.7036,0.7611,0.8002,0.7518,0.7273,0.7275,0.7696,0.7322,0.6012,0.6501,0.6357,0.5831,0.5754,0.6207,0.6788,0.6754,0.7165,0.7688,0.7783,0.7749,0.7944,0.8157,0.9344,0.9818,1.0054,0.9699,0.9224,0.8859,0.9195,0.9981,1.0454,1.065,1.0962,1.1851,1.244,1.2614,1.3552,1.4031,1.4001,1.4423,1.4307,1.4345,1.4316,1.453,1.5736,1.6379,1.7019,1.7508,1.778,1.8491,1.9046,1.9146,1.9402,2.0235,2.0661,2.1194,2.2364,2.3212,2.3539,2.3972,2.4068,2.4395,2.4712,2.524,2.5843,2.6799,2.7857,2.8359,2.8596,2.936,2.9992,2.9864,2.9688,2.9383,2.897,2.8544,2.8016,2.7828,2.7664,2.7418,0.6719,0.7438,0.7326,0.6606,0.5284,0.5636,0.552,0.553,0.5656,0.606,0.6863,0.7377,0.7671,0.7705,0.7543,0.751,0.7457,0.7379,0.7336,0.7341,0.7206,0.7441,0.7438,0.7318,0.7196,0.7438,0.7318,0.7198,0.7438,0.7343,0.7384,0.7449,0.6371,0.5782,0.5658,0.461,0.5392,0.6911,0.547,0.4854,0.4741,0.5423,0.4403,0.3362,0.3342,0.3326,0.2933,0.2775,0.3618,0.4576,0.4796,0.5486,0.639,0.662,0.6733,0.6839,0.7198,0.7438,0.7555,0.743,0.7283,0.6901,0.7141,0.7351,0.7756,0.8541,0.9331,0.9384,1.0367,1.091,1.1115,1.1233,1.149,1.1834,1.2611,1.2898,1.3106,1.3133,1.312,1.3823,1.4124,1.4292,1.4779,1.5315,1.6277,1.6385,1.6385,1.7131,1.8082,1.8724,1.9259,2.0326,2.13,2.1726,2.2355,2.3212,2.3857,2.428,2.4578,2.4943,2.5669,2.6646,2.7136,2.7459,2.79,2.8414,2.8608,2.8807,2.8011,2.7311,2.7285,2.7339,2.7489,2.7302,2.7019,0.1795,0.3591,0.3591,0.2394,0.0479,0.0359,0.1436,0.2872,0.3111,0.4205,0.6162,0.635,0.6485,0.6463,0.6587,0.6589,0.6526,0.6375,0.636,0.6235,0.6116,0.6355,0.6355,0.6116,0.5754,0.6355,0.6355,0.6116,0.5874,0.6235,0.6017,0.4822,0.3014,0.1577,0.0734,0.0248,0.05,0.1,0.0628,0.0503,0.0503,0.1139,0.0254,0.0,0.0,-0.0126,-0.0251,0.0,0.086,0.1588,0.2305,0.3013,0.3362,0.3595,0.3595,0.4074,0.4674,0.5634,0.5257,0.4631,0.3755,0.4323,0.4924,0.5494,0.5907,0.7028,0.7472,0.776,0.8791,0.9723,0.973,1.0252,1.0577,1.0415,1.1175,1.1458,1.166,1.1959,1.2069,1.2111,1.2403,1.2815,1.3367,1.4015,1.4225,1.347,1.3573,1.4107,1.5172,1.6038,1.6789,1.7975,1.9052,1.9793,2.0539,2.1071,2.1718,2.2241,2.2922,2.3501,2.4212,2.5213,2.5877,2.5952,2.6268,2.6757,2.6812,2.6555,2.6138,2.5699,2.5725,2.5817,2.6011,2.6382,2.6204,-0.1196,0.0239,-0.1196,-0.2152,-0.2751,-0.2751,-0.1794,-0.0478,-0.0239,0.0838,0.2397,0.3868,0.4349,0.4695,0.5084,0.5925,0.5762,0.4914,0.4433,0.4192,0.3234,0.2874,0.2873,0.2634,0.2873,0.2634,0.2754,0.2874,0.2994,0.2394,0.2635,0.1556,-0.0838,-0.2408,-0.254,-0.1952,-0.1716,-0.172,-0.2221,-0.2727,-0.273,-0.2488,-0.2625,-0.3497,-0.3614,-0.3347,-0.371,-0.3178,-0.2432,-0.1694,-0.0602,0.0,0.0479,0.1197,0.1432,0.166,0.2268,0.31,0.3202,0.2457,0.1734,0.2179,0.2879,0.3689,0.3747,0.4531,0.5089,0.574,0.6274,0.6925,0.7404,0.8529,0.9554,0.9631,0.9692,0.9966,1.0258,1.0771,1.0924,1.1158,1.1338,1.1524,1.2065,1.2606,1.1632,1.077,1.0766,1.0979,1.2056,1.3023,1.3994,1.5178,1.636,1.7326,1.871,1.9251,1.9579,2.037,2.1155,2.1768,2.245,2.354,2.4189,2.4492,2.4716,2.5083,2.5088,2.4598,2.4335,2.4368,2.4331,2.4363,2.4757,2.5198,2.5413,-0.311,-0.287,-0.6338,-0.6459,-0.4666,-0.4427,-0.4308,-0.3947,-0.4067,-0.3469,-0.1914,0.0,0.1318,0.1796,0.3119,0.4201,0.4673,0.2633,0.1555,0.0598,-0.0598,-0.1316,-0.1316,-0.1316,-0.1555,-0.1555,-0.1196,-0.1316,-0.1914,-0.1794,-0.3469,-0.4306,-0.5023,-0.4666,-0.4679,-0.4936,-0.4455,-0.4345,-0.5103,-0.5621,-0.5273,-0.4933,-0.5094,-0.7075,-0.6898,-0.6602,-0.7823,-0.7374,-0.6482,-0.5159,-0.3954,-0.3113,-0.25,-0.1904,-0.1417,-0.1291,-0.0706,-0.0117,0.0,-0.046,0.0228,0.1028,0.1367,0.1016,0.1673,0.1893,0.1992,0.2526,0.3852,0.4274,0.4812,0.5449,0.659,0.7031,0.7476,0.7994,0.8749,0.9252,0.9686,1.0116,1.0333,1.0333,1.0766,1.1091,1.0445,0.9577,0.9357,0.9682,1.0437,1.0654,1.1623,1.2488,1.3778,1.5065,1.6556,1.7159,1.712,1.7818,1.8799,1.9722,2.0525,2.1318,2.206,2.2361,2.2546,2.3273,2.3644,2.3257,2.3054,2.3135,2.3141,2.3182,2.3422,2.3649,2.4104,-0.9218,-0.9218,-1.0057,-1.0176,-0.9579,-0.9576,-0.8498,-0.6818,-0.6696,-0.5501,-0.3828,-0.2991,-0.2511,-0.2153,-0.1555,-0.0718,-0.1196,-0.2153,-0.2392,-0.2511,-0.311,-0.3589,-0.3828,-0.3708,-0.3708,-0.335,-0.3947,-0.3828,-0.4904,-0.6581,-0.8618,-0.9579,-0.8737,-0.9098,-0.934,-0.8859,-0.8498,-0.8259,-0.8902,-0.9285,-0.9411,-0.896,-0.9581,-1.0054,-1.0264,-1.024,-1.036,-0.9709,-0.9098,-0.8017,-0.694,-0.6067,-0.5901,-0.5294,-0.502,-0.4739,-0.3928,-0.3571,-0.4097,-0.4298,-0.4416,-0.3955,-0.3485,-0.2102,-0.0658,0.1205,0.1748,0.1091,0.1852,0.2178,0.2506,0.2724,0.3922,0.4792,0.5332,0.6313,0.7076,0.7405,0.7728,0.8272,0.8597,0.8814,0.8597,0.9248,0.9031,0.8275,0.8275,0.86,0.8814,0.8814,0.9462,1.0004,1.1078,1.2155,1.3003,1.3398,1.4383,1.517,1.6352,1.7331,1.8168,1.8912,1.9877,2.0179,2.0244,2.0902,2.1666,2.1773,2.178,2.1849,2.1885,2.189,2.1981,2.1989,2.2352,-1.1505,-1.1505,-1.1505,-1.1505,-1.1505,-1.1505,-1.0538,-0.9457,-0.9215,-0.8495,-0.7417,-0.7181,-0.6462,-0.5262,-0.4187,-0.3947,-0.4188,-0.4904,-0.5501,-0.5501,-0.6701,-0.7298,-0.7059,-0.7181,-0.7181,-0.742,-0.7179,-0.682,-0.7778,-1.006,-1.1385,-1.1262,-1.1381,-1.1505,-1.0904,-1.1381,-1.1505,-1.1505,-1.1505,-1.1505,-1.1505,-1.1385,-1.1389,-1.1389,-1.1393,-1.127,-1.127,-1.0661,-1.0419,-1.0169,-0.9032,-0.8501,-0.8793,-0.8483,-0.8057,-0.7947,-0.7278,-0.7362,-0.7722,-0.7711,-0.6925,-0.6353,-0.5851,-0.5234,-0.3923,-0.2834,-0.2289,-0.196,-0.0871,-0.0218,-0.0109,0.0981,0.207,0.2833,0.3267,0.4029,0.4357,0.501,0.588,0.6424,0.6859,0.5989,0.5443,0.6204,0.6419,0.6313,0.6859,0.7403,0.7731,0.7731,0.7949,0.8163,0.8913,0.9757,1.0166,1.0652,1.214,1.2627,1.3799,1.513,1.5887,1.6786,1.7881,1.8416,1.8827,1.9195,1.9475,1.987,2.0234,2.0366,2.0555,2.0728,2.0891,2.0917,2.136,-1.1743,-1.1739,-1.1739,-1.1739,-1.1739,-1.1739,-1.1743,-1.162,-1.162,-1.1743,-1.1254,-1.1258,-1.0054,-0.8253,-0.5981,-0.5145,-0.5623,-0.7176,-0.8015,-0.8256,-0.9818,-1.0542,-1.1143,-1.1505,-1.0542,-1.0419,-1.0781,-1.1505,-1.1139,-1.1139,-1.162,-1.1505,-1.1505,-1.1505,-1.1505,-1.1505,-1.1505,-1.1505,-1.1505,-1.1505,-1.1505,-1.1505,-1.1505,-1.1505,-1.1505,-1.1505,-1.1385,-1.1381,-1.1235,-1.1215,-1.0139,-1.0178,-1.0808,-0.9998,-0.9419,-0.9579,-1.0032,-1.0298,-0.9251,-0.9099,-0.8527,-0.7464,-0.7204,-0.7085,-0.632,-0.5992,-0.5992,-0.6864,-0.4682,-0.3156,-0.2722,-0.0871,0.0545,0.0981,0.1307,0.1634,0.218,0.3595,0.403,0.4466,0.4684,0.3704,0.2942,0.3485,0.4136,0.4791,0.5445,0.6427,0.6973,0.7191,0.7408,0.75,0.8138,0.8398,0.8787,0.9447,1.0177,1.0127,1.1553,1.3008,1.3739,1.4402,1.5651,1.6887,1.7746,1.822,1.7967,1.8066,1.8605,1.8807,1.8687,1.907,1.9636,2.0199,2.047,-1.3056,-1.3056,-1.3056,-1.3056,-1.3056,-1.3056,-1.2936,-1.3056,-1.2932,-1.2936,-1.2936,-1.2451,-1.197,-1.125,-1.0415,-0.9822,-1.0057,-1.018,-1.0538,-1.0657,-1.1262,-1.1505,-1.1505,-1.1505,-1.1501,-1.162,-1.162,-1.1739,-1.2093,-1.2212,-1.1978,-1.1743,-1.1505,-1.1505,-1.1505,-1.1624,-1.1505,-1.1505,-1.1505,-1.1505,-1.1505,-1.1505,-1.1505,-1.1505,-1.1505,-1.1505,-1.1505,-1.1505,-1.1445,-1.1232,-1.1017,-1.0773,-1.078,-1.0691,-1.0547,-1.0416,-1.0512,-1.0553,-1.0239,-1.0095,-0.9548,-0.8502,-0.8383,-0.784,-0.7517,-0.7408,-0.7191,-0.6973,-0.6209,-0.5989,-0.5663,-0.4576,-0.3159,-0.2069,-0.0871,0.0109,0.0872,0.1743,0.207,0.1961,0.2507,0.218,0.1634,0.196,0.2504,0.3158,0.4029,0.4901,0.5556,0.5992,0.6523,0.6727,0.7117,0.7267,0.7701,0.8456,0.8465,0.8647,0.984,1.0962,1.1564,1.2267,1.3511,1.4838,1.5701,1.5977,1.6177,1.6197,1.6734,1.7005,1.6878,1.6992,1.7436,1.802,1.889,-1.5167,-1.5049,-1.388,-1.3418,-1.3418,-1.3418,-1.3418,-1.3418,-1.3418,-1.3418,-1.3294,-1.3056,-1.2932,-1.2813,-1.2579,-1.2459,-1.2217,-1.2097,-1.2097,-1.2217,-1.1739,-1.162,-1.1974,-1.1974,-1.1974,-1.1974,-1.2217,-1.2694,-1.2813,-1.2932,-1.2813,-1.2459,-1.2459,-1.2459,-1.2459,-1.234,-1.2459,-1.2455,-1.2459,-1.234,-1.1978,-1.234,-1.2217,-1.2097,-1.1978,-1.1739,-1.162,-1.1505,-1.1453,-1.1366,-1.1282,-1.1147,-1.106,-1.1036,-1.102,-1.0784,-1.0929,-1.087,-1.0636,-1.0576,-1.0306,-0.9603,-0.9585,-0.9259,-0.8824,-0.8607,-0.8824,-0.8607,-0.839,-0.7843,-0.7843,-0.6647,-0.5774,-0.4682,-0.3704,-0.2725,-0.1635,-0.0327,-0.0763,-0.1635,-0.0981,-0.0654,-0.0654,0.0,0.0871,0.1743,0.2506,0.3268,0.4032,0.4566,0.5312,0.5717,0.6309,0.6535,0.702,0.7276,0.7313,0.7511,0.8214,0.8886,0.9629,1.0882,1.2031,1.2992,1.2992,1.3283,1.368,1.4765,1.4978,1.5173,1.5497,1.5713,1.5687,1.6035,1.7036,-1.809,-1.7854,-1.5766,-1.4945,-1.4945,-1.4475,-1.4594,-1.4356,-1.4123,-1.3771,-1.3771,-1.3652,-1.3532,-1.3532,-1.3532,-1.3418,-1.3175,-1.2813,-1.2813,-1.2936,-1.2459,-1.2097,-1.257,-1.2574,-1.2685,-1.2923,-1.3404,-1.3647,-1.3647,-1.3528,-1.3409,-1.3413,-1.3294,-1.3294,-1.3299,-1.3418,-1.3175,-1.3175,-1.3175,-1.2936,-1.2813,-1.2936,-1.2936,-1.2694,-1.2574,-1.2332,-1.1978,-1.1863,-1.1727,-1.1687,-1.1549,-1.1964,-1.287,-1.3303,-1.296,-1.2479,-1.2256,-1.2015,-1.1323,-1.0963,-1.058,-1.0505,-1.0352,-1.0352,-1.0352,-1.0352,-1.0027,-0.9914,-0.9476,-0.9038,-0.9038,-0.7949,-0.7405,-0.6973,-0.6103,-0.5234,-0.4796,-0.3705,-0.305,-0.4359,-0.425,-0.3923,-0.3595,-0.3049,-0.1851,-0.0544,0.0218,0.0871,0.2283,0.336,0.3881,0.4488,0.5298,0.5804,0.6079,0.6051,0.6314,0.6527,0.6896,0.7666,0.8537,0.9694,1.0368,1.1049,1.1341,1.1725,1.2476,1.3364,1.3623,1.3585,1.4189,1.4746,1.4705,1.4666,1.5653,-2.186,-2.186,-2.1515,-2.1288,-2.1046,-1.9059,-1.8122,-1.7885,-1.6003,-1.5539,-1.5064,-1.4475,-1.4945,-1.4361,-1.4118,-1.3532,-1.3652,-1.3647,-1.4237,-1.4242,-1.3766,-1.3528,-1.3642,-1.3999,-1.4227,-1.4113,-1.5178,-1.5178,-1.4827,-1.4242,-1.5064,-1.389,-1.3652,-1.4475,-1.3885,-1.3532,-1.4242,-1.4475,-1.4475,-1.4237,-1.3999,-1.3999,-1.4118,-1.3999,-1.3999,-1.3875,-1.3756,-1.3633,-1.3335,-1.2929,-1.2413,-1.423,-1.6746,-1.8298,-1.8022,-1.5511,-1.467,-1.3949,-1.2968,-1.1703,-1.0941,-1.0477,-1.0678,-1.0678,-1.0678,-1.0678,-1.0678,-1.0461,-1.0244,-1.0023,-1.0131,-0.915,-0.86,-0.8275,-0.7408,-0.6864,-0.6647,-0.6538,-0.61,-0.6756,-0.6318,-0.5883,-0.5665,-0.5339,-0.4136,-0.2938,-0.2284,-0.1305,0.0759,0.2158,0.2135,0.2537,0.3761,0.4404,0.4529,0.4593,0.545,0.5797,0.6091,0.6867,0.7744,0.793,0.7829,0.8805,1.0067,1.1225,1.2021,1.2546,1.2519,1.209,1.2357,1.2585,1.3023,1.3458,1.3811,-2.4798,-2.4682,-2.3272,-2.2687,-2.257,-2.1515,-2.1046,-2.0694,-1.976,-1.9288,-1.9171,-1.8941,-1.8824,-1.8706,-1.847,-1.824,-1.8352,-1.8352,-1.824,-1.7885,-1.6116,-1.5647,-1.5884,-1.7413,-1.8463,-1.8824,-1.9053,-1.9171,-1.8941,-1.8941,-1.8358,-1.8352,-1.847,-1.7997,-1.8352,-1.8588,-1.8115,-1.8122,-1.8352,-1.8233,-1.7997,-1.8115,-1.8233,-1.8004,-1.7885,-1.7643,-1.74,-1.74,-1.7322,-1.7361,-1.7448,-1.8388,-1.995,-2.017,-1.9509,-1.7932,-1.6912,-1.5985,-1.5463,-1.4532,-1.3789,-1.3362,-1.3789,-1.3146,-1.2182,-1.1867,-1.1542,-1.0787,-1.0569,-1.0569,-1.0461,-0.9914,-0.9806,-0.9476,-0.8604,-0.7949,-0.8054,-0.8702,-0.9245,-0.9028,-0.8054,-0.7408,-0.7082,-0.6538,-0.5661,-0.5099,-0.4449,-0.346,-0.1401,0.0,0.0105,0.0729,0.2057,0.2842,0.2994,0.3459,0.4415,0.4805,0.4903,0.5488,0.6173,0.578,0.5484,0.6554,0.7816,0.9268,1.0804,1.1595,1.1825,1.1364,1.0851,1.0539,1.0842,1.1716,1.2256,-2.7616,-2.7268,-2.539,-2.4448,-2.4332,-2.374,-2.3623,-2.3506,-2.2921,-2.2336,-2.257,-2.257,-2.2453,-2.2453,-2.2219,-2.2687,-2.2219,-2.2219,-2.2687,-2.2336,-1.9386,-1.904,-2.0341,-2.1281,-2.2453,-2.2336,-2.257,-2.257,-2.2453,-2.2102,-2.257,-2.2336,-2.175,-2.257,-2.2336,-2.1867,-2.2687,-2.2687,-2.257,-2.1984,-2.1633,-2.1867,-2.1867,-2.1633,-2.1633,-2.1625,-2.1376,-2.1368,-2.1962,-2.2789,-2.3349,-2.3187,-2.2928,-2.2652,-2.1969,-2.085,-1.9552,-1.8627,-1.8224,-1.7734,-1.7205,-1.6354,-1.6669,-1.6676,-1.4225,-1.401,-1.3259,-1.1966,-1.1537,-1.1966,-1.1966,-1.1646,-1.1537,-1.1212,-1.077,-1.0433,-1.0545,-1.1407,-1.2159,-1.1732,-1.0112,-0.8383,-0.8383,-0.8495,-0.7714,-0.715,-0.6368,-0.5482,-0.4043,-0.2418,-0.1867,-0.1328,0.0,0.11,0.1382,0.1968,0.2744,0.3234,0.3332,0.3724,0.4018,0.392,0.4014,0.4695,0.566,0.735,0.91,0.993,1.023,1.0195,0.9891,0.9795,0.9882,1.0218,1.0781,-3.0882,-2.997,-3.0201,-3.0086,-2.9026,-2.7268,-2.6321,-2.5855,-2.4332,-2.3272,-2.3272,-2.2921,-2.3506,-2.2687,-2.374,-2.3038,-2.3038,-2.3506,-2.3272,-2.3155,-2.2913,-2.3272,-2.4915,-2.4207,-2.3631,-2.3506,-2.2804,-2.3155,-2.3623,-2.328,-2.3046,-2.3506,-2.3272,-2.2921,-2.3631,-2.3272,-2.2804,-2.328,-2.3631,-2.3623,-2.3506,-2.3623,-2.3623,-2.3506,-2.3506,-2.3272,-2.3147,-2.3147,-2.4673,-2.9026,-2.9372,-2.8172,-2.71,-2.7599,-2.6614,-2.4328,-2.2915,-2.1997,-2.1162,-1.9975,-1.9016,-1.8902,-1.9009,-1.8155,-1.7312,-1.689,-1.6246,-1.4963,-1.5076,-1.4855,-1.4855,-1.4861,-1.422,-1.3259,-1.422,-1.464,-1.4855,-1.4963,-1.5172,-1.4957,-1.3578,-1.2502,-1.1966,-1.1091,-0.9746,-0.9332,-0.7667,-0.655,-0.5111,-0.3617,-0.2757,-0.2516,-0.1593,-0.0492,-0.0098,0.0392,0.098,0.1372,0.1372,0.1666,0.1961,0.1764,0.2155,0.2826,0.3577,0.4981,0.6907,0.7699,0.789,0.7982,0.835,0.8662,0.9059,0.9061,1.0147,-3.1802,-3.1342,-3.1583,-3.1583,-3.1227,-3.0285,-2.9824,-2.9583,-2.8533,-2.8061,-2.7732,-2.7732,-2.7491,-2.7143,-2.7143,-2.7143,-2.7143,-2.7143,-2.7027,-2.7143,-2.7027,-2.7616,-2.8196,-2.7848,-2.7143,-2.7143,-2.7152,-2.7027,-2.7027,-2.7143,-2.7143,-2.6911,-2.7143,-2.7143,-2.692,-2.7143,-2.7143,-2.7036,-2.7152,-2.7143,-2.7143,-2.7143,-2.7143,-2.7143,-2.7152,-2.7152,-2.7036,-2.7143,-2.7964,-2.9562,-3.0055,-2.9494,-2.8571,-2.8559,-2.7897,-2.6603,-2.5345,-2.4597,-2.3944,-2.3521,-2.2762,-2.2232,-2.2656,-2.1807,-2.0303,-1.977,-1.9123,-1.7841,-1.7627,-1.7627,-1.752,-1.6884,-1.593,-1.5189,-1.6909,-1.8082,-1.7225,-1.7118,-1.7118,-1.6688,-1.5614,-1.4435,-1.4435,-1.377,-1.2496,-1.1024,-0.9239,-0.7666,-0.6238,-0.4368,-0.3222,-0.2989,-0.2364,-0.2164,-0.1866,-0.1766,-0.1373,-0.1177,-0.0981,-0.0392,-0.0589,-0.1275,-0.0585,0.0483,0.134,0.2556,0.4447,0.5808,0.5715,0.5814,0.6484,0.6895,0.716,0.7307,0.913,-3.2375,-3.2146,-3.226,-3.226,-3.2146,-3.2146,-3.2031,-3.2031,-3.2031,-3.1457,-3.1479,-3.1479,-3.0893,-3.0777,-3.0652,-3.0662,-3.0316,-3.0442,-3.0557,-3.0432,-3.0557,-3.0788,-3.0557,-3.0327,-3.0201,-3.0327,-3.0201,-3.0557,-3.0557,-3.0201,-3.0211,-3.0327,-2.9855,-3.0096,-3.0327,-2.997,-3.0327,-3.0327,-3.0211,-3.0096,-3.0086,-3.0086,-3.0327,-3.0327,-3.0211,-3.0096,-3.0327,-3.0327,-3.0327,-3.0295,-2.9887,-2.9385,-2.87,-2.8345,-2.7981,-2.7394,-2.6745,-2.6304,-2.6198,-2.6198,-2.5882,-2.524,-2.5566,-2.523,-2.2877,-2.2665,-2.1905,-2.0835,-2.0409,-2.0401,-2.0295,-1.977,-1.8703,-1.7961,-1.9907,-2.0981,-1.9808,-1.938,-1.9266,-1.8838,-1.7332,-1.6424,-1.6029,-1.5353,-1.4355,-1.3041,-1.1441,-0.9669,-0.8635,-0.6968,-0.557,-0.4823,-0.4123,-0.4026,-0.3928,-0.3928,-0.3732,-0.3436,-0.314,-0.2551,-0.2939,-0.3331,-0.2523,-0.1911,-0.0945,-0.0186,0.1726,0.3392,0.3271,0.2976,0.3717,0.4559,0.4921,0.5639,0.7321,-3.3177,-3.226,-3.2741,-3.273,-3.226,-3.2146,-3.226,-3.2146,-3.2146,-3.2146,-3.2031,-3.2031,-3.2031,-3.1916,-3.1802,-3.1583,-3.1385,-3.1259,-3.0903,-3.0893,-3.1353,-3.1583,-3.1144,-3.0788,-3.0788,-3.1144,-3.1259,-3.127,-3.1259,-3.1259,-3.0914,-3.0547,-3.0442,-3.0327,-3.0432,-3.0316,-3.0327,-3.0442,-3.0316,-3.0327,-3.0327,-3.0327,-3.0327,-3.0327,-3.0327,-3.0327,-3.0442,-3.0777,-3.0662,-3.0379,-3.0218,-2.9683,-2.8604,-2.8168,-2.8131,-2.7637,-2.7585,-2.7375,-2.748,-2.727,-2.7165,-2.706,-2.7165,-2.684,-2.5662,-2.524,-2.4799,-2.3733,-2.3636,-2.3742,-2.3636,-2.3424,-2.2894,-2.2372,-2.2912,-2.3124,-2.2487,-2.216,-2.1374,-2.0425,-1.9251,-1.7986,-1.7592,-1.6263,-1.5373,-1.4378,-1.3303,-1.2166,-1.1044,-0.9441,-0.8429,-0.7643,-0.6858,-0.647,-0.5784,-0.5784,-0.5393,-0.5197,-0.5195,-0.4889,-0.4974,-0.4582,-0.3878,-0.3699,-0.3166,-0.2464,-0.1253,0.0088,0.0612,0.0784,0.1306,0.1916,0.2599,0.3446,0.4728,-3.3759,-3.3291,-3.3531,-3.3531,-3.3291,-3.3291,-3.3291,-3.3302,-3.3291,-3.3062,-3.273,-3.273,-3.2501,-3.2146,-3.2146,-3.1916,-3.1813,-3.1813,-3.1698,-3.1572,-3.1916,-3.1916,-3.1802,-3.1468,-3.1583,-3.1813,-3.1813,-3.1813,-3.1824,-3.1813,-3.1687,-3.1468,-3.1018,-3.1134,-3.1342,-3.0777,-3.0557,-3.0914,-3.0673,-3.0327,-3.0327,-3.0327,-3.0327,-3.0327,-3.0327,-3.0327,-3.0547,-3.2593,-3.3713,-3.3631,-3.3111,-3.1818,-2.9919,-2.9542,-2.8901,-2.7921,-2.7596,-2.7596,-2.7596,-2.7795,-2.7596,-2.7596,-2.7596,-2.7375,-2.706,-2.6945,-2.684,-2.6419,-2.6208,-2.6304,-2.6103,-2.5671,-2.5038,-2.4616,-2.5038,-2.4712,-2.3751,-2.3009,-2.2296,-2.1453,-2.0242,-1.9549,-1.9055,-1.8147,-1.7349,-1.608,-1.488,-1.3814,-1.2425,-1.1127,-1.035,-0.9771,-0.9288,-0.8805,-0.8028,-0.7536,-0.7145,-0.7331,-0.7517,-0.7385,-0.7034,-0.6539,-0.6213,-0.6071,-0.5512,-0.4771,-0.3985,-0.2712,-0.1916,-0.1046,-0.0523,-0.0174,0.0261,0.1129,0.1912,-3.6211,-3.6199,-3.6199,-3.5759,-3.5102,-3.5102,-3.466,-3.3988,-3.3988,-3.3771,-3.3417,-3.3314,-3.3188,-3.273,-3.2719,-3.2604,-3.249,-3.3382,-3.3394,-3.2719,-3.2719,-3.2604,-3.2604,-3.3154,-3.3039,-3.2364,-3.2936,-3.3485,-3.3713,-3.4384,-3.4486,-3.4259,-3.4043,-3.3929,-3.4361,-3.3575,-3.3245,-3.3713,-3.3359,-3.3131,-3.3119,-3.3119,-3.3131,-3.3131,-3.2788,-3.2571,-3.2674,-3.5269,-3.6312,-3.5362,-3.5287,-3.396,-3.1759,-3.0939,-3.0256,-2.9238,-2.9133,-2.9144,-2.9133,-2.9133,-2.9238,-2.9133,-2.9238,-2.8924,-2.8517,-2.8413,-2.8099,-2.7596,-2.7596,-2.7596,-2.748,-2.684,-2.6724,-2.7144,-2.6724,-2.6103,-2.5355,-2.4298,-2.3246,-2.2191,-2.0892,-2.0065,-1.9639,-1.9426,-1.8613,-1.7466,-1.6702,-1.5798,-1.4626,-1.3653,-1.2674,-1.2305,-1.1792,-1.1414,-1.0988,-1.0675,-1.0363,-1.0433,-1.0319,-1.0088,-0.9482,-0.9024,-0.8941,-0.8627,-0.7788,-0.7045,-0.6227,-0.5477,-0.487,-0.4177,-0.3742,-0.3043,-0.2172,-0.1477,-0.0782,-4.0852,-4.063,-4.0949,-3.9307,-3.7665,-3.744,-3.6224,-3.4761,-3.4432,-3.4761,-3.4863,-3.4318,-3.466,-3.4318,-3.4648,-3.3988,-3.4192,-3.6211,-3.6325,-3.4636,-3.442,-3.409,-3.3759,-3.5621,-3.5269,-3.3142,-3.5269,-3.65,-3.6613,-3.8398,-3.9181,-3.9029,-3.8582,-3.8385,-3.9029,-3.8484,-3.8694,-3.8596,-3.8359,-3.8596,-3.9141,-3.847,-3.8359,-3.8484,-3.8049,-3.7613,-3.7613,-3.8681,-3.8204,-3.5852,-3.5933,-3.4895,-3.344,-3.2763,-3.2508,-3.2405,-3.2302,-3.2314,-3.2211,-3.2108,-3.1901,-3.1901,-3.2211,-3.1385,-3.0245,-3.0037,-2.9528,-2.8517,-2.8109,-2.79,-2.8005,-2.7889,-2.838,-2.9621,-2.8694,-2.7941,-2.7397,-2.6589,-2.4953,-2.2846,-2.1148,-1.9817,-1.943,-1.9362,-1.9055,-1.8559,-1.825,-1.8027,-1.7539,-1.6576,-1.6061,-1.5626,-1.4841,-1.4047,-1.3808,-1.3761,-1.3612,-1.3453,-1.3207,-1.2647,-1.1986,-1.1793,-1.1688,-1.1161,-1.0385,-0.9725,-0.896,-0.7468,-0.7035,-0.6779,-0.7385,-0.7032,-0.5646,-0.4257,-0.3476,-4.2526,-4.1185,-4.0963,-4.0519,-3.9962,-3.9865,-3.9418,-3.8846,-3.8734,-3.8748,-3.8748,-3.8748,-3.8748,-3.8748,-3.8761,-3.8636,-3.8636,-3.9405,-3.953,-3.886,-3.8748,-3.8636,-3.8524,-3.9181,-3.9056,-3.8398,-3.9168,-3.9614,-3.9726,-4.0407,-4.0616,-4.0505,-4.006,-4.0074,-4.0282,-3.9587,-3.9489,-3.9712,-3.9489,-3.9266,-3.9266,-3.9266,-3.9266,-3.96,-4.2084,-4.3562,-4.3562,-4.2674,-4.1667,-4.082,-4.0041,-3.9404,-3.8572,-3.7211,-3.5844,-3.4711,-3.3996,-3.3497,-3.3497,-3.2817,-3.2508,-3.252,-3.252,-3.2314,-3.1798,-3.1695,-3.1488,-3.1086,-3.0879,-3.0879,-3.0879,-3.0867,-3.0932,-3.0943,-3.0964,-3.0609,-2.9762,-2.8832,-2.7727,-2.6292,-2.3873,-2.2098,-2.135,-1.9946,-1.9116,-1.8747,-1.8708,-1.8708,-1.8612,-1.8124,-1.7825,-1.7538,-1.7112,-1.6373,-1.5968,-1.6496,-1.6755,-1.6452,-1.6145,-1.5177,-1.446,-1.4567,-1.4346,-1.3759,-1.3111,-1.2469,-1.1306,-0.9548,-0.868,-0.8251,-0.8857,-0.9375,-0.8165,-0.6955,-0.5995,-4.5298,-4.394,-4.383,-4.3297,-4.2415,-4.229,-4.1863,-4.1074,-4.0963,-4.0963,-4.0963,-4.0963,-4.0963,-4.117,-4.2937,-4.3282,-4.2401,-4.2305,-4.1849,-4.1074,-4.0963,-4.0963,-4.1059,-4.1959,-4.1974,-4.1295,-4.1959,-4.2305,-4.2401,-4.3202,-4.3641,-4.3531,-4.3327,-4.3202,-4.3406,-4.2842,-4.2731,-4.3092,-4.2731,-4.2496,-4.2621,-4.2496,-4.2511,-4.2607,-4.5563,-4.6933,-4.6498,-4.5348,-4.4308,-4.333,-4.2606,-4.1992,-4.1222,-3.9841,-3.8584,-3.7549,-3.6438,-3.6047,-3.6249,-3.5464,-3.4968,-3.5376,-3.5376,-3.5274,-3.4151,-3.3946,-3.3433,-3.2611,-3.2405,-3.2988,-3.3203,-3.305,-3.2495,-3.2117,-3.1918,-3.1329,-3.0765,-3.0195,-2.9512,-2.8497,-2.6688,-2.4568,-2.3672,-2.1636,-2.0415,-2.0892,-2.0319,-2.0242,-2.0354,-1.9924,-1.9337,-1.8928,-1.8645,-1.8447,-1.7879,-1.9335,-1.9801,-1.9422,-1.9027,-1.8236,-1.767,-1.7738,-1.6868,-1.6266,-1.5042,-1.4413,-1.4399,-1.2724,-1.1279,-1.0848,-1.0843,-1.102,-0.9898,-0.8943,-0.8161,-4.9008,-4.8918,-4.9025,-4.7285,-4.5002,-4.5002,-4.3641,-4.2055,-4.1738,-4.1627,-4.1834,-4.1724,-4.1474,-4.1895,-4.6361,-4.7246,-4.508,-4.4862,-4.377,-4.1858,-4.1709,-4.1406,-4.1517,-4.3656,-4.3656,-4.229,-4.3876,-4.4893,-4.5002,-4.6901,-4.8248,-4.8016,-4.78,-4.8032,-4.78,-4.7583,-4.8032,-4.7583,-4.7583,-4.7924,-4.7924,-4.7924,-4.78,-4.7691,-4.814,-4.755,-4.6663,-4.6795,-4.5758,-4.298,-4.3202,-4.2667,-4.1082,-4.0873,-4.0758,-4.0628,-3.97,-3.947,-4.0168,-3.9265,-3.9051,-3.9992,-3.9603,-3.9195,-3.6546,-3.6313,-3.5302,-3.2922,-3.3013,-3.3667,-3.5023,-3.4245,-3.3262,-3.3059,-3.1891,-3.1305,-3.0997,-3.0947,-3.0095,-2.925,-2.8594,-2.779,-2.6472,-2.4257,-2.3617,-2.3995,-2.3229,-2.2244,-2.287,-2.2178,-2.1095,-2.0159,-1.9547,-1.937,-2.1792,-2.1989,-2.2216,-2.1867,-2.1244,-2.1834,-2.137,-2.0749,-1.9672,-1.8554,-1.7382,-1.6794,-1.6778,-1.6003,-1.4636,-1.4201,-1.4194,-1.4029,-1.3673,-1.1612,-1.0918,-4.9098,-4.9667,-4.9702,-4.9256,-4.8505,-4.8505,-4.8148,-4.7468,-4.7485,-4.7468,-4.7485,-4.7485,-4.691,-4.6112,-4.7295,-4.7623,-4.6963,-4.7466,-4.7048,-4.6123,-4.6593,-4.6603,-4.6325,-4.7009,-4.6901,-4.645,-4.6901,-4.7242,-4.735,-4.8016,-4.8248,-4.8248,-4.8248,-4.8248,-4.8248,-4.8248,-4.8248,-4.8248,-4.8248,-4.8248,-4.8248,-4.8248,-4.8248,-4.8248,-4.8248,-4.7767,-4.6902,-4.6475,-4.5659,-4.4339,-4.3922,-4.3544,-4.3052,-4.3035,-4.3035,-4.2904,-4.1554,-4.0764,-4.0959,-3.9551,-3.8726,-3.9015,-3.9096,-3.8422,-3.7224,-3.7295,-3.6635,-3.4978,-3.5385,-3.5802,-3.6447,-3.557,-3.4687,-3.4324,-3.4372,-3.3797,-3.2898,-3.2268,-3.1984,-3.2082,-3.1075,-3.0217,-2.8874,-2.6697,-2.4927,-2.5209,-2.454,-2.402,-2.3816,-2.3559,-2.281,-2.2004,-2.1844,-2.1922,-2.2009,-2.2765,-2.2528,-2.2278,-2.2396,-2.2449,-2.1818,-2.1683,-2.1085,-2.0773,-1.9935,-1.9352,-1.9386,-1.9201,-1.8198,-1.8274,-1.818,-1.7926,-1.7095,-1.6831,-1.588,-5.1405,-5.1704,-5.1497,-5.0999,-5.01,-4.9282,-4.8985,-4.9002,-4.9002,-4.8985,-4.9107,-4.9526,-4.9038,-4.7963,-4.7963,-4.7844,-4.7658,-4.8123,-4.8123,-4.7846,-4.8221,-4.8296,-4.8069,-4.8102,-4.8056,-4.8232,-4.8248,-4.8248,-4.8248,-4.8248,-4.8248,-4.8248,-4.8248,-4.8248,-4.8248,-4.8248,-4.8248,-4.8248,-4.8248,-4.8248,-4.8248,-4.8248,-4.8098,-4.7815,-4.7782,-4.7433,-4.6667,-4.6653,-4.6347,-4.5904,-4.5207,-4.4782,-4.4782,-4.4213,-4.3802,-4.3388,-4.2378,-4.173,-4.1325,-3.9896,-3.9297,-3.9768,-3.9768,-3.9297,-3.8352,-3.8593,-3.7963,-3.6458,-3.6661,-3.7051,-3.6796,-3.63,-3.5701,-3.5038,-3.5227,-3.4904,-3.3749,-3.3191,-3.3103,-3.349,-3.2858,-3.2113,-3.1353,-2.9867,-2.8757,-2.82,-2.6876,-2.6475,-2.6265,-2.5399,-2.4609,-2.3838,-2.4266,-2.4529,-2.4405,-2.4378,-2.4462,-2.4278,-2.4186,-2.4186,-2.4186,-2.3771,-2.3109,-2.2861,-2.1791,-2.1245,-2.203,-2.1592,-2.0976,-2.1295,-2.1275,-1.9794,-1.9044,-1.879,-1.9306,-5.4359,-5.4398,-5.3831,-5.2594,-5.0938,-4.9265,-4.8507,-4.8286,-4.8048,-4.7978,-4.8042,-4.8784,-4.8767,-4.8363,-4.8209,-4.7955,-4.7567,-4.7688,-4.7639,-4.7639,-4.7606,-4.7694,-4.7805,-4.7839,-4.7929,-4.8263,-4.833,-4.833,-4.8339,-4.8339,-4.8248,-4.8248,-4.8248,-4.8248,-4.8248,-4.8248,-4.8248,-4.8248,-4.8182,-4.8148,-4.8256,-4.8297,-4.7929,-4.7315,-4.7403,-4.7051,-4.6636,-4.7031,-4.7425,-4.7284,-4.6668,-4.6316,-4.6105,-4.4794,-4.3713,-4.311,-4.2785,-4.2323,-4.1515,-4.0528,-4.0338,-4.1239,-4.1249,-4.0769,-3.9762,-4.009,-3.9374,-3.7514,-3.7382,-3.7535,-3.6796,-3.6569,-3.609,-3.5246,-3.5185,-3.4796,-3.3874,-3.3601,-3.3601,-3.3601,-3.351,-3.3601,-3.3314,-3.3041,-3.2935,-3.1991,-2.9867,-2.8526,-2.8699,-2.7575,-2.6142,-2.5646,-2.6303,-2.7247,-2.7631,-2.77,-2.7645,-2.7959,-2.7972,-2.8052,-2.7954,-2.6963,-2.5707,-2.676,-2.5019,-2.4756,-2.5048,-2.4278,-2.3623,-2.4854,-2.3437,-2.1045,-2.0289,-2.0046,-2.0645,-5.45,-5.5022,-5.4905,-5.4516,-5.4145,-5.3635,-5.267,-5.13,-5.1281,-5.0594,-4.936,-4.8048,-4.7483,-4.7367,-4.7385,-4.7288,-4.7261,-4.7828,-4.7812,-4.7431,-4.7972,-4.8033,-4.7677,-4.7694,-4.8002,-4.8582,-4.865,-4.8746,-4.8777,-4.8827,-4.8629,-4.8248,-4.8248,-4.8248,-4.8248,-4.8248,-4.8248,-4.8215,-4.7559,-4.7878,-4.9037,-4.8675,-4.8875,-4.9664,-4.9747,-4.9389,-4.8887,-4.8948,-4.8745,-4.8223,-4.8004,-4.7931,-4.7781,-4.5926,-4.4762,-4.4382,-4.2832,-4.1558,-4.0875,-4.0096,-3.9659,-3.9927,-3.9943,-3.9569,-3.8925,-4.1103,-4.1635,-3.9334,-3.915,-3.9006,-3.7954,-3.7119,-3.6149,-3.5338,-3.5157,-3.4871,-3.3874,-3.3601,-3.3601,-3.3601,-3.3601,-3.3601,-3.3601,-3.3342,-3.2964,-3.2323,-3.0933,-2.9643,-2.9238,-2.8757,-2.8054,-2.7528,-2.7579,-2.8477,-2.999,-3.0004,-3.0327,-3.1632,-3.1877,-3.1805,-3.1953,-3.2354,-3.2304,-3.17,-3.1403,-3.0921,-3.0571,-3.0208,-3.0069,-2.935,-2.7727,-2.633,-2.585,-2.4543,-2.4009,-5.6394,-5.6815,-5.6836,-5.6277,-5.5433,-5.5454,-5.4375,-5.266,-5.352,-5.289,-5.1239,-5.0188,-4.9717,-4.9736,-4.9717,-4.9717,-4.9736,-5.0209,-5.0129,-4.9841,-5.0253,-5.0371,-5.0193,-5.0249,-5.0454,-5.08,-4.9751,-4.9261,-4.923,-4.8453,-4.8019,-4.7642,-4.8082,-4.8248,-4.8248,-4.8248,-4.8248,-4.8215,-4.8482,-4.9323,-5.055,-5.0051,-4.9936,-5.0311,-5.0236,-4.9776,-4.9109,-4.9302,-4.926,-4.8878,-4.8878,-4.8767,-4.8582,-4.6788,-4.5466,-4.4923,-4.3711,-4.268,-4.2002,-4.1565,-4.1077,-4.0482,-4.0394,-4.0465,-4.0518,-4.2412,-4.293,-4.1477,-4.099,-4.0448,-3.9746,-3.8632,-3.7492,-3.6582,-3.6477,-3.6044,-3.5128,-3.46,-3.4328,-3.4237,-3.3965,-3.3579,-3.3308,-3.31,-3.2695,-3.2118,-3.1478,-3.0575,-2.9421,-3.0386,-3.1257,-3.0707,-3.0525,-3.1087,-3.1966,-3.1901,-3.2046,-3.2889,-3.3403,-3.3631,-3.3658,-3.4419,-3.4882,-3.4868,-3.5031,-3.4791,-3.3865,-3.367,-3.3183,-3.2361,-3.0787,-2.9343,-2.8518,-2.7785,-2.7226,-5.8669,-5.8735,-5.8735,-5.7739,-5.6196,-5.6196,-5.525,-5.3842,-5.5452,-5.509,-5.322,-5.3016,-5.2832,-5.2832,-5.2832,-5.2832,-5.2832,-5.2832,-5.2832,0.0,-5.2832,-5.2995,-5.3223,-5.3242,-5.3276,-5.3344,-5.1455,-5.0336,-5.0218,-4.8862,-4.7946,-4.7944,-4.8415,-4.8737,-4.8557,-4.854,-4.8664,-4.8843,-5.007,-5.1275,-5.2441,-5.1892,-5.1378,-5.0835,-5.0493,-4.9802,-4.9039,-4.9533,-4.9681,-4.9681,-4.9681,-4.9533,-4.8973,-4.7382,-4.599,-4.4962,-4.4533,-4.4114,-4.342,-4.3469,-4.2992,-4.2016,-4.186,-4.229,-4.3298,-4.3798,-4.3958,-4.353,-4.2689,-4.212,-4.186,-4.0728,-3.978,-3.8881,-3.8511,-3.7994,-3.694,-3.5969,-3.5293,-3.5159,-3.4364,-3.3488,-3.3019,-3.2802,-3.2398,-3.1944,-3.1957,-3.1671,-3.0929,-3.2558,-3.4058,-3.3868,-3.371,-3.3868,-3.4183,-3.3852,-3.3852,-3.382,-3.4432,-3.4916,-3.5094,-3.6007,-3.6661,-3.6411,-3.6609,-3.6443,-3.5789,-3.5135,-3.4291,-3.3198,-3.1954,-3.0632,-2.9295,-2.9596,-3.0046,-5.8735,-5.8735,-5.8735,-5.8558,-5.8204,-5.8182,-5.8005,-5.7717,0.0,0.0,0.0,-5.3588,-5.2832,-5.2832,-5.2832,-5.2832,-5.2832,-5.2832,-5.2832,-5.2832,-5.2832,-5.2932,-5.298,-5.298,-5.3275,-5.3925,-5.3468,-5.3438,-5.3596,-5.326,-5.2445,-5.1386,-5.1315,-5.0986,-5.0213,-5.0112,-5.0719,-5.1954,-5.1687,-5.2334,-5.4056,-5.3509,-5.3553,-5.4283,-5.349,-5.2866,-5.2274,-5.1684,-5.13,-5.13,-5.13,-5.0951,-5.0042,-4.7957,-4.6323,-4.5356,-4.3654,-4.2681,-4.2871,-4.2889,-4.3018,-4.3237,-4.3187,-4.3102,-4.288,-4.5392,-4.5967,-4.3702,-4.4441,-4.4441,-4.3291,-4.2948,-4.243,-4.1564,-4.0448,-3.9289,-3.8406,-3.7103,-3.6126,-3.552,-3.4767,-3.3826,-3.3137,-3.2589,-3.1844,-3.14,-3.2383,-3.2842,-3.2397,-3.3569,-3.4794,-3.4637,-3.4716,-3.5045,-3.617,-3.617,-3.648,-3.7673,-3.8065,-3.8422,-3.8864,-3.9677,-3.9971,-3.9374,-3.9074,-3.8287,-3.7305,-3.6403,-3.5582,-3.445,-3.2748,-3.1384,-3.1409,-3.1911,-3.1564,-5.8735,0.0,-5.8735,-5.8735,0.0,-5.8735,-5.8735,-5.8735,-5.8735,-5.8204,-5.7182,-5.6264,-5.5793,-5.5793,-5.5793,-5.5883,-5.5793,-5.5793,-5.5771,-5.5883,-5.5793,-5.5793,-5.5883,-5.5793,-5.6047,-5.6402,-5.5115,-5.4558,-5.4705,-5.3818,-5.2877,-5.1885,-5.2324,-5.2058,-5.14,-5.1319,-5.2348,-5.4369,-5.3998,-5.454,-5.5923,-5.5411,-5.5313,-5.5878,0.0,0.0,0.0,0.0,0.0,0.0,0.0,0.0,0.0,0.0,0.0,-4.6464,-4.4479,-4.3455,-4.3622,-4.3661,-4.3645,-4.3609,-4.3544,-4.3632,-4.402,-4.581,-4.6433,-4.5414,-4.5262,-4.5096,-4.4538,-4.3895,-4.3075,-4.2186,-4.148,-4.0742,-3.9897,-3.8792,-3.7857,-3.7526,-3.6766,-3.5493,-3.3746,-3.3806,-3.3529,-3.2065,-3.3146,-3.4191,-3.4232,-3.6058,-3.756,-3.756,-3.7389,-3.7619,-3.8516,-3.8268,-3.8381,-3.9179,-3.9599,-3.9766,-3.9996,-4.0523,-4.0721,-3.9953,-3.9354,-3.8555,-3.7471,-3.6928,-3.6351,-3.5253,-3.3989,-3.309,-3.2827,-3.3335,-3.3507,-5.8735,-5.8735,-5.8735,-5.8735,-5.869,-5.8333,-5.8177,-5.8177,-5.8177,-5.8177,-5.8177,-5.8177,-5.8199,-5.8199,-5.8378,-5.8467,-5.8489,-5.8645,-5.8735,-5.8735,-5.8735,-5.8735,-5.8735,-5.8735,-5.8735,-5.8558,-5.6713,-5.5702,-5.5702,-5.4395,-5.3312,-5.2839,-5.3358,-5.3382,-5.272,0.0,0.0,0.0,-5.6239,-5.68,-5.7582,-5.7158,-5.6979,-5.6889,-5.6444,0.0,-5.5921,-5.494,-5.398,-5.3134,-5.2894,0.0,0.0,0.0,0.0,0.0,0.0,0.0,0.0,0.0,0.0,0.0,-4.3388,-4.3895,-4.5327,-4.5948,-4.6442,-4.6853,-4.587,-4.5366,-4.5588,-4.4482,-4.3487,-4.2945,-4.2575,-4.2157,-4.166,-4.057,-3.9811,-3.9541,-3.8737,-3.7285,-3.5159,-3.5672,-3.5536,-3.368,-3.4654,-3.5902,-3.666,-3.9316,-4.1125,-4.1294,-4.0692,-4.0467,-4.0486,-4.0166,-4.0034,-4.0488,-4.0719,-4.089,-4.0911,-4.1083,-4.0949,-3.9918,-3.9071,-3.8233,-3.7235,-3.6577,-3.5995,-3.5327,-3.4916,-3.4685,-3.4644,-3.5113,-3.5696,-5.8735,-5.8735,-5.8735,-5.8735,-5.8601,-5.6883,-5.6168,-5.6168,-5.6168,-5.6168,-5.6168,-5.6168,-5.6168,-5.6213,-5.7106,-5.7507,-5.7574,-5.8378,-5.8735,-5.8735,-5.8735,-5.8735,-5.8735,-5.8735,-5.8735,-5.8735,-5.8381,-5.8271,-5.8293,-5.8004,-5.7446,-5.6659,-5.6766,-5.6148,-5.4867,-5.6057,-5.6813,-5.7136,-5.7604,-5.8071,-5.8558,-5.847,-5.8227,-5.7871,-5.7145,-5.6465,-5.5987,-5.4201,-5.3199,-5.3047,-5.2285,-5.137,-5.0333,-4.8712,-4.7066,0.0,-4.363,0.0,0.0,0.0,0.0,0.0,0.0,0.0,0.0,-4.6142,-4.6176,-4.6343,-4.6483,-4.6483,-4.617,-4.5467,-4.5338,-4.6075,-4.455,-4.3617,-4.3684,-4.2488,-4.1164,-3.9925,-3.9023,-3.8148,-3.719,-3.6549,-3.6221,-3.5885,-3.7182,-3.8899,-4.0692,-4.2162,-4.3266,-4.3631,-4.3005,-4.2397,-4.2142,-4.1974,-4.2323,-4.3569,-4.3725,-4.3734,-4.3003,-4.302,-4.2586,-4.1257,-3.9553,-3.816,-3.7279,-3.57,-3.4456,-3.4352,-3.496,-3.6178,-3.8131,-3.8208,-3.7545,-5.7106,-5.7106,-5.7106,-5.7937,-5.9112,-5.8209,-5.757,-5.718,-5.718,-5.6955,-5.6502,-5.623,-5.5956,-5.5834,-5.6533,-5.665,-5.6503,-5.6905,-5.7083,-5.7106,-5.7106,-5.7106,-5.7106,-5.7083,-5.7396,-5.7954,-5.7954,-5.8221,-5.8712,-5.8735,-5.8381,-5.7804,-5.7804,-5.7164,-5.6023,-5.6619,-5.7234,-5.7782,-5.8004,-5.8691,-5.9875,-6.0612,-6.0848,-6.0698,-6.0345,-5.9775,-5.8929,-5.8034,-5.7024,-5.5946,-5.5441,-5.4225,-5.1993,-4.9543,-4.7317,0.0,0.0,0.0,0.0,0.0,0.0,0.0,0.0,0.0,0.0,0.0,-4.5474,0.0,-4.6303,-4.6037,-4.4511,-4.5017,-4.5247,-4.4764,-4.3846,-4.3149,-4.2864,-4.2673,-4.2313,-4.1509,-4.1526,-4.0889,-3.907,-3.9279,-3.9108,-3.7737,-4.0165,-4.2457,-4.3599,-4.4285,-4.4799,-4.4943,-4.4828,-4.4592,-4.4294,-4.4129,-4.4177,-4.4372,-4.4384,-4.397,-4.3205,-4.2602,-4.1907,-4.0926,-3.9685,-3.854,-3.802,-3.7516,-3.7571,-3.7965,-3.9191,-4.0477,-4.1236,-4.1311,-4.1426,-5.6661,-5.6548,-5.536,-5.6132,-5.8178,-5.7841,-5.7698,-5.7422,-5.7121,-5.668,-5.6094,-5.572,-5.5345,-5.512,-5.5697,-5.5704,-5.5477,-5.57,-5.5767,-5.5767,-5.5767,-5.5767,-5.5767,-5.5767,-5.6213,-5.6927,-5.6982,-5.7497,-5.8355,-5.817,-5.8018,-5.7895,-5.7959,-5.7535,-5.6886,-5.7299,-5.7901,-5.8773,-5.9085,-5.9898,-6.1239,-6.2219,-6.279,-6.279,-6.279,-6.2252,-6.1273,-6.1011,-6.0009,-5.8219,-5.7462,-5.5837,-5.3137,-4.995,0.0,0.0,0.0,0.0,0.0,0.0,0.0,0.0,0.0,-4.1661,-4.1976,0.0,-4.4431,0.0,-4.5445,-4.5364,-4.3674,-4.4506,0.0,0.0,-4.2771,-4.2245,-4.145,-4.2235,-4.2513,-4.2098,-4.2844,-4.2658,-4.075,-4.1641,-4.1888,-4.054,-4.3025,-4.5244,-4.5603,-4.6178,-4.677,-4.6841,-4.7006,-4.7054,-4.6796,-4.6678,-4.6455,-4.5905,-4.5884,-4.5526,-4.4586,-4.3736,-4.3047,-4.2328,-4.1519,-4.0826,-4.0531,-4.0686,-4.1723,-4.3883,-4.5567,-4.6374,-4.4897,-4.4872,-4.5243,-5.92,-5.8782,-5.4043,-5.3038,-5.4384,-5.3321,-5.3708,-5.496,-5.3826,-5.3236,-5.3236,-5.3156,-5.3156,-5.3121,-5.4093,0.0,-5.4621,-5.5387,-5.5722,-5.5767,-5.5767,-5.5767,-5.5767,-5.5767,-5.5834,-5.5901,-5.6053,-5.654,-5.7393,-5.6562,-5.6585,-5.7373,-5.7264,-5.7349,-5.774,-5.9404,-6.0312,-6.043,-6.1746,-6.2474,-6.262,-6.2729,-6.279,-6.279,-6.279,-6.2336,-6.1249,-6.0329,-5.9301,-5.81,-5.5508,-5.3495,-5.2382,0.0,0.0,0.0,0.0,0.0,0.0,0.0,0.0,0.0,0.0,0.0,0.0,0.0,0.0,0.0,-4.4,0.0,-4.5561,-4.4459,0.0,0.0,0.0,-4.104,-4.0288,-4.0943,-4.1266,-4.0477,0.0,0.0,-4.2253,0.0,-4.3217,-4.4562,-4.5559,-4.6298,-4.6652,-4.8466,-4.9768,-4.9723,-4.9788,-4.9808,-4.9764,-4.9516,-4.9537,-5.0367,-5.0732,-5.0248,-4.9516,-4.9063,-4.8748,-4.7936,-4.7027,-4.6038,-4.5719,-4.4843,-4.5619,-5.0777,-5.2142,-5.2153,-5.0433,-4.9009,-4.7979,-5.6306,-5.525,-5.3666,-5.3828,-5.4911,-5.3249,-5.3694,-5.5492,-5.3775,-5.3038,-5.325,-5.2903,-5.2257,-5.1403,-5.1841,0.0,0.0,0.0,-5.2913,-5.3452,-5.3452,-5.3709,-5.4048,-5.4071,-5.4361,-5.5001,-5.503,-5.5863,-5.7307,-5.6381,-5.5381,-5.4418,0.0,0.0,-5.7226,-5.8641,-6.0051,-6.1343,-6.2264,-6.3236,-6.4015,-6.4123,-6.4457,-6.5178,-6.526,-6.4441,-6.2675,-6.2233,-6.0748,-5.8028,-5.6257,-5.3706,0.0,0.0,0.0,0.0,0.0,0.0,0.0,0.0,0.0,0.0,0.0,-3.9279,-3.9847,0.0,0.0,0.0,-4.0878,-4.0581,-4.1445,-4.2537,0.0,0.0,0.0,0.0,0.0,0.0,0.0,-4.0698,-4.1853,-4.2814,-4.3252,-4.3442,-4.4346,-4.6395,-4.6926,-4.757,-4.8811,0.0,-5.1455,-5.1279,-5.2093,-5.2568,-5.2224,-5.2356,-5.2684,-5.3125,-5.2402,-5.1405,-5.0565,-5.0214,-4.9915,-4.9539,-4.9303,-4.913,-4.8797,-5.0215,-5.2077,-5.3479,-5.3768,-5.346,-5.2556,-5.1472,-5.0849,-5.3513,0.0,0.0,0.0,0.0,-5.1391,-5.2186,-5.4725,-5.2898,-5.2391,-5.2875,-5.2397,0.0,0.0,0.0,0.0,0.0,0.0,-5.073,-5.1042,-5.1911,-5.2186,-5.1871,-5.2102,-5.2463,-5.2902,-5.3103,-5.3928,-5.5083,-5.403,-5.2903,-5.171,0.0,0.0,0.0,0.0,-6.0169,-6.222,-6.3392,-6.4432,-6.55,-6.5942,-6.6676,-6.7563,-6.7255,-6.6023,-6.3814,-6.3354,-6.1588,-5.8241,-5.6183,0.0,0.0,0.0,0.0,0.0,0.0,0.0,0.0,0.0,0.0,0.0,0.0,0.0,0.0,0.0,0.0,0.0,0.0,0.0,-3.8846,-4.1008,-4.1924,0.0,0.0,0.0,0.0,0.0,0.0,0.0,0.0,0.0,-4.2813,-4.3697,-4.5076,0.0,0.0,-4.908,-5.092,-5.2258,-5.3045,-5.298,0.0,0.0,0.0,-5.4426,-5.4801,-5.4837,-5.381,-5.2633,-5.1828,-5.1285,-5.0812,-5.0615,-5.1293,-5.1607,-5.1142,-5.3024,-5.4397,-5.3948,-5.3593,-5.3324,-5.2874,-5.2077,-5.1721,0.0,0.0,0.0,0.0,0.0,0.0,0.0,0.0,-5.0397,-5.052,0.0,-5.131,0.0,0.0,0.0,0.0,0.0,0.0,0.0,0.0,-5.1806,-5.1918,-4.9669,-5.0243,-5.0123,-4.9213,-4.995,-5.023,-5.0031,-4.8649,0.0,0.0,0.0,0.0,0.0,0.0,-6.1374,-6.3484,-6.5561,-6.6782,-6.6863,-6.8389,-6.923,-6.9282,-6.8227,-6.6491,-6.4251,-6.2897,-6.117,-5.887,-5.4584,0.0,0.0,0.0,0.0,0.0,0.0,0.0,0.0,0.0,0.0,0.0,0.0,0.0,0.0,0.0,0.0,0.0,0.0,0.0,0.0,-4.047,0.0,0.0,0.0,0.0,0.0,0.0,0.0,0.0,0.0,0.0,-4.0633,-4.3024,-4.5344,-4.6538,0.0,0.0,0.0,0.0,-5.4773,-5.538,-5.6068,-5.6257,-5.5636,-5.5564,-5.5654,-5.5865,0.0,0.0,-5.482,-5.3371,-5.2248,-5.2539,-5.3403,-5.3907,-5.1865,-5.1887,-5.2201,-5.2139,-5.2264,-5.2259,-5.1783,-5.0713,-5.0009,0.0,0.0,0.0,0.0,0.0,0.0,0.0,0.0,0.0,0.0,0.0,-5.0645,0.0,0.0,0.0,0.0,0.0,0.0,0.0,0.0,-4.8387,-4.8519,-4.7968,-4.8081,-4.7949,0.0,-4.7901,-4.6505,0.0,0.0,0.0,0.0,0.0,0.0,0.0,0.0,-6.1223,-6.5011,-6.6585,-6.826,-6.9877,-7.0049,-7.0047,-7.002,-6.9029,-6.6981,-6.3758,-6.1512,-5.8415,0.0,0.0,0.0,0.0,0.0,0.0,0.0,0.0,0.0,0.0,0.0,0.0,0.0,0.0,0.0,0.0,0.0,0.0,0.0,0.0,0.0,0.0,0.0,-4.126,0.0,0.0,0.0,0.0,0.0,0.0,0.0,0.0,0.0,-3.9793,-4.1745,-4.4361,-4.7707,-4.8448,-4.9826,-5.3196,0.0,0.0,0.0,0.0,0.0,0.0,0.0,-5.7105,-5.6344,-5.623,-5.5783,-5.4228,-5.2628,-5.1561,-5.167,0.0,0.0,-4.9132,-4.9267,-4.9742,-4.9476,-4.9591,-4.9558,-4.9114,-4.844,-4.8323,0.0,0.0,0.0,0.0,0.0,0.0,0.0,0.0,0.0,-4.6204,-4.8121,0.0,0.0,0.0,0.0,0.0,0.0,0.0,0.0,0.0,0.0,0.0,-4.5904,-4.5963,0.0,0.0,0.0,0.0,0.0,0.0,0.0,0.0,0.0,0.0,0.0,0.0,-6.0911,-6.5473,-6.7153,-6.8836,-7.0729,-7.0743,-7.0713,-7.0686,-6.9698,-6.7823,-6.5004,0.0,0.0,0.0,0.0,0.0,0.0,0.0,0.0,0.0,0.0,0.0,0.0,0.0,0.0,0.0,0.0,0.0,0.0,0.0,0.0,0.0,0.0,0.0,0.0,0.0,-4.0463,0.0,0.0,0.0,0.0,0.0,0.0,0.0,0.0,0.0,0.0,0.0,-4.3236,-4.7311,-4.8301,-5.0005,-5.4019,-5.5916,-5.7103,0.0,0.0,0.0,0.0,0.0,0.0,0.0,0.0,0.0,0.0,0.0,0.0,0.0,0.0,-4.7855,-4.5802,-4.5989,-4.6422,-4.6278,0.0,0.0,0.0,0.0,0.0,0.0,0.0,0.0,0.0,0.0,0.0,0.0,0.0,0.0,0.0,0.0,0.0,0.0,-4.1622,0.0,0.0,0.0,0.0,0.0,0.0,0.0,0.0,0.0,0.0,0.0,0.0,0.0,0.0,0.0,0.0,0.0,0.0,0.0,0.0,0.0,0.0,0.0,-6.5273,-6.7416,-6.8711,-6.9219,-7.0601,-7.1354,-7.1325,-7.02,-6.902,-6.7866,0.0,0.0,0.0,0.0,0.0,0.0,0.0,0.0,0.0,0.0,0.0,0.0,0.0,0.0,0.0,0.0,0.0,0.0,0.0,0.0,0.0,0.0,0.0,0.0,0.0,0.0,-3.7436,-3.877,-3.9311,0.0,0.0,0.0,0.0,0.0,0.0,0.0,0.0,0.0,0.0,-4.8317,-5.1525,-5.5007,-5.6911,-5.8577,-6.0568,-6.1269,-6.1518,-6.1351,-6.1295,-6.0924,0.0,0.0,0.0,0.0,0.0,0.0,0.0,0.0,0.0,0.0,0.0,0.0,0.0,0.0,0.0,0.0,0.0,0.0,0.0,0.0,0.0,0.0,0.0,0.0,0.0,0.0,0.0,0.0,0.0,0.0,0.0,0.0,0.0,0.0,0.0,0.0,0.0,0.0,0.0,0.0,0.0,0.0,0.0,0.0,0.0,0.0,0.0,0.0,0.0,0.0,0.0,0.0,0.0,0.0,-6.0612,-6.6509,-6.8291,-7.0169,-7.2221,-7.2076,-7.2025,-7.1967,-7.0563,-6.8694,0.0,0.0,0.0,0.0,0.0,0.0,0.0,0.0,0.0,0.0,0.0,0.0,0.0,0.0,0.0,0.0,0.0,0.0,0.0,0.0,0.0,0.0,0.0,0.0,0.0,0.0,0.0,0.0,-4.0727,-4.0475,-3.7973,0.0,0.0,0.0,0.0,0.0,0.0,0.0,0.0,0.0,0.0,-5.0464,-5.4131,-5.631,-5.8065,-5.9492,-6.0876,-6.1484,-6.0711,-6.0756,-6.0043,-5.7693,0.0,0.0,0.0,0.0,0.0,0.0,0.0,0.0,0.0,0.0,0.0,0.0,0.0,0.0,0.0,0.0,0.0,0.0,0.0,0.0,0.0,0.0,0.0,0.0,0.0,0.0,0.0,0.0,0.0,0.0,0.0,0.0,0.0,0.0,0.0,0.0,0.0,0.0,0.0,0.0,0.0,0.0,0.0,0.0,0.0,0.0,0.0,0.0,0.0,0.0,0.0,0.0,0.0,-6.0795,-6.6736,-6.8883,-7.0738,-7.2482,-7.2085,-7.2039,-7.2469,-7.092,-6.8784,0.0,0.0,0.0,0.0,0.0,0.0,0.0,0.0,0.0,0.0,0.0,0.0,0.0,0.0,0.0,0.0,0.0,0.0,0.0,0.0,0.0,0.0,0.0,0.0,0.0,0.0,0.0,0.0,-3.9502,-3.9626,-3.791,0.0,0.0,0.0,0.0,0.0,0.0,0.0,0.0,0.0,0.0,-4.9233,-5.279,-5.5337,0.0,0.0,-6.0296,-6.1141,-6.0898,-6.1155,-6.0303,-5.7249,-5.475,0.0,0.0,0.0,0.0,0.0,0.0,0.0,0.0,0.0,0.0,0.0,0.0,0.0,0.0,0.0,0.0,0.0,0.0,0.0,0.0,0.0,0.0,0.0,0.0,0.0,0.0,0.0,0.0,0.0,0.0,0.0,0.0,0.0,0.0,0.0,0.0,0.0,0.0,0.0,0.0,0.0,0.0,0.0,0.0,0.0,0.0,0.0,0.0,0.0,0.0,0.0,0.0,0.0,-6.6256,-6.9052,-7.0601,-7.1055,-7.1055,-7.1623,-7.276,-7.131,-6.9246,0.0,0.0,0.0,0.0,0.0,0.0,0.0,0.0,0.0,0.0,0.0,0.0,0.0,0.0,0.0,0.0,0.0,0.0,0.0,0.0,0.0,0.0,0.0,0.0,0.0,0.0,0.0,0.0,0.0,0.0,0.0,0.0,0.0,0.0,0.0,0.0,0.0,0.0,0.0,0.0,0.0,-4.8029,-5.1196,-5.4189,-5.6709,0.0,0.0,-6.043,-6.1422,-6.1943,-6.1057,-5.7572,0.0,0.0,0.0,0.0,0.0,0.0,0.0,0.0,0.0,0.0,0.0,0.0,0.0,0.0,0.0,0.0,0.0,0.0,0.0,0.0,0.0,0.0,0.0,0.0,0.0,0.0,0.0,0.0,0.0,0.0,0.0,0.0,0.0,0.0,0.0,0.0,0.0,0.0,0.0,0.0,0.0,0.0,0.0,0.0,0.0,0.0,0.0,0.0,0.0,0.0,0.0,0.0,0.0,0.0,-6.5511,-6.899,-7.1235,-7.221,-7.221,-7.2786,-7.3879,-7.1123,0.0,0.0,0.0,0.0,0.0,0.0,0.0,0.0,0.0,0.0,0.0,0.0,0.0,0.0,0.0,0.0,0.0,0.0,0.0,0.0,0.0,0.0,0.0,0.0,0.0,0.0,0.0,-3.0328,0.0,0.0,0.0,0.0,0.0,0.0,0.0,0.0,0.0,0.0,0.0,0.0,0.0,0.0,-4.7729,-5.0939,-5.3167,-5.4947,0.0,0.0,-5.8623,-5.9095,-5.8906,-5.7585,0.0,0.0,0.0,0.0,0.0,0.0,0.0,0.0,0.0,0.0,0.0,0.0,0.0,0.0,0.0,0.0,0.0,0.0,0.0,0.0,0.0,0.0,0.0,0.0,0.0,0.0,0.0,0.0,0.0,0.0,0.0,0.0,0.0,0.0,0.0,0.0,0.0,0.0,0.0,0.0,0.0,0.0,0.0,0.0,0.0,0.0,0.0,0.0,0.0,0.0,0.0,0.0,0.0,0.0,-5.9659,-6.5227,-6.9171,-7.1614,-7.2488,-7.2686,-7.3317,-7.4401,-7.1375,-6.8147,0.0,0.0,0.0,0.0,0.0,0.0,0.0,0.0,0.0,0.0,0.0,0.0,0.0,0.0,0.0,0.0,0.0,0.0,0.0,0.0,0.0,0.0,0.0,0.0,0.0,0.0,0.0,0.0,0.0,0.0,0.0,0.0,0.0,0.0,0.0,0.0,0.0,0.0,0.0,0.0,0.0,0.0,-4.7377,-4.9898,0.0,0.0,0.0,-5.4496,-5.5214,0.0,0.0,0.0,0.0,0.0,0.0,0.0,0.0,0.0,0.0,0.0,0.0,0.0,0.0,0.0,0.0,0.0,0.0,0.0,0.0,0.0,0.0,0.0,0.0,0.0,0.0,0.0,0.0,0.0,0.0,0.0,0.0,0.0,0.0,0.0,0.0,0.0,0.0,0.0,0.0,0.0,0.0,0.0,0.0,0.0,0.0,0.0,0.0,0.0,0.0,0.0,0.0,0.0,0.0,0.0,0.0,0.0,-6.4762,-6.8979,-7.148,-7.2247,-7.2542,-7.3236,-7.431,-7.179,-6.8444,0.0,0.0,0.0,0.0,0.0,0.0,0.0,0.0,0.0,0.0,0.0,0.0,0.0,0.0,0.0,0.0,0.0,0.0,0.0,0.0,0.0,0.0,0.0,0.0,0.0,0.0,0.0,0.0,0.0,0.0,0.0,0.0,0.0,0.0,0.0,0.0,0.0,0.0,0.0,0.0,0.0,-4.1296,-4.2654,-4.5545,-4.7615,0.0,0.0,-4.9373,-5.0656,-4.9855,0.0,0.0,0.0,0.0,0.0,0.0,0.0,0.0,0.0,0.0,0.0,0.0,0.0,0.0,0.0,0.0,0.0,0.0,0.0,0.0,0.0,0.0,0.0,0.0,0.0,0.0,0.0,0.0,0.0,0.0,0.0,0.0,0.0,0.0,0.0,0.0,0.0,0.0,0.0,0.0,0.0,0.0,0.0,0.0,0.0,0.0,0.0,0.0,0.0,0.0,0.0,0.0,0.0,0.0,0.0,0.0,-6.2217,-6.6382,-6.9611,-7.2052,-7.2412,-7.3076,-7.4236,-7.1605,-6.8834,0.0,0.0,0.0,0.0,0.0,0.0,0.0,0.0,0.0,0.0,0.0,0.0,0.0,0.0,0.0,0.0,0.0,0.0,0.0,0.0,0.0,0.0,0.0,0.0,0.0,0.0,0.0,0.0,0.0,0.0,0.0,0.0,0.0,0.0,0.0,0.0,0.0,0.0,0.0,0.0,0.0,-3.8296,-4.168,-4.2347,0.0,0.0,0.0,0.0,-4.7915,-4.6366,0.0,0.0,0.0,0.0,0.0,0.0,0.0,0.0,0.0,0.0,0.0,0.0,0.0,0.0,0.0,0.0,0.0,0.0,0.0,0.0,0.0,0.0,0.0,0.0,0.0,0.0,0.0,0.0,0.0,0.0,0.0,0.0,0.0,0.0,0.0,0.0,0.0,0.0,0.0,0.0,0.0,0.0,0.0,0.0,0.0,0.0,0.0,0.0,0.0,0.0,0.0,0.0,0.0,0.0,0.0,0.0,-6.0186,-6.5452,-6.9243,-7.1468,-7.2158,-7.2816,-7.3351,-7.1434,-6.8445,0.0,0.0,0.0,0.0,0.0,0.0,0.0,0.0,0.0,0.0,0.0,0.0,0.0,0.0,0.0,0.0,0.0,0.0,0.0,0.0,0.0,0.0,0.0,0.0,0.0,0.0,0.0,0.0,0.0,0.0,0.0,0.0,0.0,0.0,0.0,0.0,0.0,0.0,0.0,0.0,-3.4435,-3.4956,-3.7094,0.0,0.0,0.0,0.0,0.0,0.0,-4.1309,-3.9987,0.0,0.0,0.0,0.0,0.0,0.0,0.0,0.0,0.0,0.0,0.0,0.0,0.0,0.0,0.0,0.0,0.0,0.0,0.0,0.0,0.0,0.0,0.0,0.0,0.0,0.0,0.0,0.0,0.0,0.0,0.0,0.0,0.0,0.0,0.0,0.0,0.0,0.0,0.0,0.0,0.0,0.0,0.0,0.0,0.0,0.0,0.0,0.0,0.0,0.0,0.0,0.0,0.0,0.0,0.0,-5.8009,-6.4364,-6.8465,-7.0336,-7.1537,-7.2035,-7.1844,-7.0775,-6.7568,-6.2037,0.0,0.0,0.0,0.0,0.0,0.0,0.0,0.0,0.0,0.0,0.0,0.0,0.0,0.0,0.0,0.0,0.0,0.0,0.0,0.0,0.0,0.0,0.0,0.0,0.0,0.0,0.0,0.0,0.0,0.0,0.0,0.0,0.0,0.0,0.0,0.0,0.0,0.0,0.0,-3.0262,-3.0917,0.0,0.0,0.0,0.0,0.0,0.0,0.0,0.0,-3.4777,0.0,0.0,0.0,0.0,0.0,0.0,0.0,0.0,0.0,0.0,0.0,0.0,0.0,0.0,0.0,0.0,0.0,0.0,0.0,0.0,0.0,0.0,0.0,0.0,0.0,0.0,0.0,0.0,0.0,0.0,0.0,0.0,0.0,0.0,0.0,0.0,0.0,0.0,0.0,0.0,0.0,0.0,0.0,0.0,0.0,0.0,0.0,0.0,0.0,0.0,0.0,0.0,0.0,0.0,0.0,0.0,-6.0493,-6.4722,-6.7887,-6.9883,-7.0321,-6.9115,-6.8853,-6.6089,-6.0585,0.0,0.0,0.0,0.0,0.0,0.0,0.0,0.0,0.0,0.0,0.0,0.0,0.0,0.0,0.0,0.0,0.0,0.0,0.0,0.0,0.0,0.0,0.0,0.0,0.0,0.0,0.0,0.0,0.0,0.0,0.0,0.0,0.0,0.0,0.0,0.0,0.0,0.0,-2.289,-2.3692,0.0,0.0,0.0,0.0,0.0,0.0,0.0,0.0,-3.1771,0.0,0.0,0.0,0.0,0.0,0.0,0.0,0.0,0.0,0.0,0.0,0.0,0.0,0.0,0.0,0.0,0.0,0.0,0.0,0.0,0.0,0.0,0.0,0.0,0.0,0.0,0.0,0.0,0.0,0.0,0.0,0.0,0.0,0.0,0.0,0.0,0.0,0.0,0.0,0.0,0.0,0.0,0.0,0.0,0.0,0.0,0.0,0.0,0.0,0.0,0.0,0.0,0.0,0.0,0.0,0.0,0.0,0.0,-6.2444,-6.4747,-6.7044,-6.7948,-6.7278,-6.5664,-6.2518,0.0,0.0,0.0,0.0,0.0,0.0,0.0,0.0,0.0,0.0,0.0,0.0,0.0,0.0,0.0,0.0,0.0,0.0,0.0,0.0,0.0,0.0,0.0,0.0,0.0,0.0,0.0,0.0,0.0,0.0,0.0,0.0,0.0,0.0,0.0,0.0,0.0,0.0,0.0,0.0,0.0,0.0,0.0,0.0,0.0,0.0,0.0,0.0,0.0,0.0,0.0,0.0,0.0,0.0,0.0,0.0,0.0,0.0,0.0,0.0,0.0,0.0,0.0,0.0,0.0,0.0,0.0,0.0,0.0,0.0,0.0,0.0,0.0,0.0,0.0,0.0,0.0,0.0,0.0,0.0,0.0,0.0,0.0,0.0,0.0,0.0,0.0,0.0,0.0,0.0,0.0,0.0,0.0,0.0,0.0,0.0,0.0,0.0,0.0,0.0,0.0,0.0,0.0,0.0,0.0,0.0,0.0,0.0,-6.008,-6.1971,-6.4651,-6.5989,-6.5808,-6.2247,-5.8427,0.0,0.0,0.0,0.0,0.0,0.0,0.0,0.0,0.0,0.0,0.0,0.0,0.0,0.0,0.0,0.0,0.0,0.0,0.0,0.0,0.0,0.0,0.0,0.0,0.0,0.0,0.0,0.0,0.0,0.0,0.0,0.0,0.0,0.0,0.0,0.0,0.0,0.0,0.0,0.0,0.0,0.0,0.0,0.0,0.0,0.0,0.0,0.0,-2.2834,0.0,0.0,0.0,0.0,0.0,0.0,0.0,0.0,0.0,0.0,0.0,0.0,0.0,0.0,0.0,0.0,0.0,0.0,0.0,0.0,0.0,0.0,0.0,0.0,0.0,0.0,0.0,0.0,0.0,0.0,0.0,0.0,0.0,0.0,0.0,0.0,0.0,0.0,0.0,0.0,0.0,0.0,0.0,0.0,0.0,0.0,0.0,0.0,0.0,0.0,0.0,0.0,0.0,0.0,0.0,0.0,0.0,0.0,0.0,-5.6994,-6.0574,-6.3768,-6.5034,-6.4056,-5.9034,-5.4466,0.0,0.0,0.0,0.0,0.0,0.0,0.0,0.0,0.0,0.0,0.0,0.0,0.0,0.0,0.0,0.0,0.0,0.0,0.0,0.0,0.0,0.0,0.0,0.0,0.0,0.0,0.0,0.0,0.0,0.0,0.0,0.0,0.0,0.0,0.0,0.0,0.0,0.0,0.0,0.0,0.0,0.0,0.0,0.0,0.0,0.0,0.0,0.0,0.0,0.0,0.0,0.0,0.0,0.0,0.0,0.0,0.0,0.0,0.0,0.0,0.0,0.0,0.0,0.0,0.0,0.0,0.0,0.0,0.0,0.0,0.0,0.0,0.0,0.0,0.0,0.0,0.0,0.0,0.0,0.0,0.0,0.0,0.0,0.0,0.0,0.0,0.0,0.0,0.0,0.0,0.0,0.0,0.0,0.0,0.0,0.0,0.0,0.0,0.0,0.0,0.0,0.0,0.0,0.0,0.0,0.0,0.0,0.0,-5.4136,-5.6955,-6.0075,-6.0813,-5.9031,-5.4943,-5.1654,0.0,0.0,0.0,0.0,0.0,0.0,0.0,0.0,0.0,0.0,0.0,0.0,0.0,0.0,0.0,0.0,0.0,0.0,0.0,0.0,0.0,0.0,0.0,0.0,0.0,0.0,0.0,0.0,0.0,0.0,0.0,0.0,0.0,0.0,0.0,0.0,0.0,0.0,0.0,0.0,0.0,0.0,0.0,0.0,0.0,0.0,0.0,0.0,0.0,0.0,0.0,0.0,0.0,0.0,0.0,0.0,0.0,0.0,0.0,0.0,0.0,0.0,0.0,0.0,0.0,0.0,0.0,0.0,0.0,0.0,0.0,0.0,0.0,0.0,0.0,0.0,0.0,0.0,0.0,0.0,0.0,0.0,0.0,0.0,0.0,0.0,0.0,0.0,0.0,0.0,0.0,0.0,0.0,0.0,0.0,0.0,0.0,0.0,0.0,0.0,0.0,0.0,0.0,0.0,0.0,0.0,0.0,0.0,0.0,-5.3524,-5.5646,-5.5701,-5.3537,-5.1029,-4.8432,0.0,0.0,0.0,0.0,0.0,0.0,0.0,0.0,0.0,0.0,0.0,0.0,0.0,0.0,0.0,0.0,0.0,0.0,0.0,0.0,0.0,0.0,0.0,0.0,0.0,0.0,0.0,0.0,0.0,0.0,0.0,0.0,0.0,0.0,0.0,0.0,0.0,0.0,0.0,0.0,0.0,0.0,0.0,0.0,0.0,0.0,0.0,0.0,0.0,0.0,0.0,0.0,0.0,0.0,0.0,0.0,0.0,0.0,0.0,0.0,0.0,0.0,0.0,0.0,0.0,0.0,0.0,0.0,0.0,0.0,0.0,0.0,0.0,0.0,0.0,0.0,0.0,0.0,0.0,0.0,0.0,0.0,0.0,0.0,0.0,0.0,0.0,0.0,0.0,0.0,0.0,0.0,0.0,0.0,0.0,0.0,0.0,0.0,0.0,0.0,0.0,0.0,0.0,0.0,0.0,0.0,0.0,0.0,0.0,-5.1236,-5.0855,-4.9915,-4.8428,-4.74,-4.4147,0.0,0.0,0.0,0.0,0.0,0.0,0.0,0.0,0.0,0.0,0.0,0.0,0.0,0.0,0.0,0.0,0.0,0.0,0.0,0.0,0.0,0.0,0.0,0.0,0.0,0.0,0.0,0.0,0.0,0.0,0.0,0.0,0.0,0.0,0.0,0.0,0.0,0.0,0.0,0.0,0.0,0.0,0.0,0.0,0.0,0.0,0.0,0.0,0.0,0.0,0.0,0.0,0.0,0.0,0.0,0.0,0.0,0.0,0.0,0.0,0.0,0.0,0.0,0.0,0.0,0.0,0.0,0.0,0.0,0.0,0.0,0.0,0.0,0.0,0.0,0.0,0.0,0.0,0.0,0.0,0.0,0.0,0.0,0.0,0.0,0.0,0.0,0.0,0.0,0.0,0.0,0.0,0.0,0.0,0.0,0.0,0.0,0.0,0.0,0.0,0.0,0.0,0.0,0.0,0.0,0.0,0.0,0.0,0.0,-4.3343,-4.3627,-4.3625,-4.3434,-4.208,-3.9873,-3.6768,0.0,0.0,0.0,0.0,0.0,0.0,0.0,0.0,0.0,0.0,0.0,0.0,0.0,0.0,0.0,0.0,0.0,0.0,0.0,0.0,0.0,0.0,0.0,0.0,0.0,0.0,0.0,0.0,0.0,0.0,0.0,0.0,0.0,0.0,0.0,0.0,0.0,0.0,0.0,0.0,0.0,0.0,0.0,0.0,0.0,0.0,0.0,0.0,0.0,0.0,0.0,0.0,0.0,0.0,0.0,0.0,0.0,0.0,0.0,0.0,0.0,0.0,0.0,0.0,0.0,0.0,0.0,0.0,0.0,0.0,0.0,0.0,0.0,0.0,0.0,0.0,0.0,0.0,0.0,0.0,0.0,0.0,0.0,0.0,0.0,0.0,0.0,0.0,0.0,0.0,0.0,0.0,0.0,0.0,0.0,0.0,0.0,0.0,0.0,0.0,0.0,0.0,0.0,0.0,0.0,0.0,0.0,0.0,-3.6681,-3.7873,-3.8503,-3.8399,-3.737,-3.5707,0.0,0.0,0.0,0.0,0.0,0.0,0.0,0.0,0.0,0.0,0.0,0.0,0.0,0.0,0.0,0.0,0.0,0.0,0.0,0.0,0.0,0.0,0.0,0.0,0.0,0.0,0.0,0.0,0.0,0.0,0.0,0.0,0.0,0.0,0.0,0.0,0.0,0.0,0.0,0.0,0.0,0.0,0.0,0.0,0.0,0.0,0.0,0.0,0.0,0.0,0.0,0.0,0.0,0.0,0.0,0.0,0.0,0.0,0.0,0.0,0.0,0.0,0.0,0.0,0.0,0.0,0.0,0.0,0.0,0.0,0.0,0.0,0.0,0.0,0.0,0.0,0.0,0.0,0.0,0.0,0.0,0.0,0.0,0.0,0.0,0.0,0.0,0.0,0.0,0.0,0.0,0.0,0.0,0.0,0.0,0.0,0.0,0.0,0.0,0.0,0.0,0.0,0.0,0.0,0.0,0.0,0.0,0.0,-2.8603,-3.2001,-3.4074,-3.4583,-3.3675,-3.3447,-3.1455,0.0,0.0,0.0,0.0,0.0,0.0,0.0,0.0,0.0,0.0,0.0,0.0,0.0,0.0,0.0,0.0,0.0,0.0,0.0,0.0,0.0,0.0,0.0,0.0,0.0,0.0,0.0,0.0,0.0,0.0,0.0,0.0,0.0,0.0,0.0,0.0,0.0,0.0,0.0,0.0,0.0,0.0,0.0,0.0,0.0,0.0,0.0,0.0,0.0,0.0,0.0,0.0,0.0,0.0,0.0,0.0,0.0,0.0,0.0,0.0,0.0,0.0,0.0,0.0,0.0,0.0,0.0,0.0,0.0,0.0,0.0,0.0,0.0,0.0,0.0,0.0,0.0,0.0,0.0,0.0,0.0,0.0,0.0,0.0,0.0,0.0,0.0,0.0,0.0,0.0,0.0,0.0,0.0,0.0,0.0,0.0,0.0,0.0,0.0,0.0,0.0,0.0,0.0,0.0,0.0,0.0,0.0,0.0,0.0,-2.5713,0.0,-2.8518,0.0,-2.7929,-2.6361,0.0,0.0,0.0,0.0,0.0,0.0,0.0,0.0,0.0,0.0,0.0,0.0,0.0,0.0,0.0,0.0,0.0,0.0,0.0,0.0,0.0,0.0,0.0,0.0,0.0,0.0,0.0,0.0,0.0,0.0,0.0,0.0,0.0,0.0,0.0,0.0,0.0,0.0,0.0,0.0,0.0,0.0,0.0,0.0,0.0,0.0,0.0,0.0,0.0,0.0,0.0,0.0,0.0,0.0,0.0,0.0,0.0,0.0,0.0,0.0,0.0,0.0,0.0,0.0,0.0,0.0,0.0,0.0,0.0,0.0,0.0,0.0,0.0,0.0,0.0,0.0,0.0,0.0,0.0,0.0,0.0,0.0,0.0,0.0,0.0,0.0,0.0,0.0,0.0,0.0,0.0,0.0,0.0,0.0,0.0,0.0,0.0,0.0,0.0,0.0,0.0,0.0,0.0,0.0,0.0,0.0,0.0,0.0,0.0,-2.0033,-2.1938,-2.2854,0.0,-2.2826,-2.1432,0.0,0.0,0.0,0.0,0.0,0.0,0.0,0.0,0.0,0.0,0.0,0.0,0.0,0.0,0.0,0.0,0.0,0.0,0.0,0.0,0.0,0.0,0.0,0.0,0.0,0.0,0.0,0.0,0.0,0.0,0.0,0.0,0.0,0.0,0.0,0.0,0.0,0.0,0.0,0.0,0.0,0.0,0.0,0.0,0.0,0.0,0.0,0.0,0.0,0.0,0.0,0.0,0.0,0.0,0.0,0.0,0.0,0.0,0.0,0.0,0.0,0.0,0.0,0.0,0.0,0.0,0.0,0.0,0.0,0.0,0.0,0.0,0.0,0.0,0.0,0.0,0.0,0.0,0.0,0.0,0.0,0.0,0.0,0.0,0.0,0.0,0.0,0.0,0.0,0.0,0.0,0.0,0.0,0.0,0.0,0.0,0.0,0.0,0.0,0.0,0.0,0.0,0.0,0.0,0.0,0.0,0.0,0.0,0.0,0.0,-1.6551,-1.7733,-1.8306,-1.8088,-1.6699,0.0,0.0,0.0,0.0,0.0,0.0,0.0,0.0,0.0,0.0,0.0,0.0,0.0,0.0,0.0,0.0,0.0,0.0,0.0,0.0,0.0,0.0,0.0,0.0,0.0,0.0,0.0,0.0,0.0,0.0,0.0,0.0,0.0,0.0,0.0,0.0,0.0,0.0,0.0,0.0,0.0,0.0,0.0,0.0,0.0,0.0,0.0,0.0,0.0,0.0,0.0,0.0,0.0,0.0,0.0,0.0,0.0,0.0,0.0,0.0,0.0,0.0,0.0,0.0,0.0,0.0,0.0,0.0,0.0,0.0,0.0,0.0,0.0,0.0,0.0,0.0,0.0,0.0,0.0,0.0,0.0,0.0,0.0,0.0,0.0,0.0,0.0,0.0,0.0,0.0,0.0,0.0,0.0,0.0,0.0,0.0,0.0,0.0,0.0,0.0,0.0,0.0,0.0,0.0,0.0,0.0,0.0,0.0,0.0,0.0,-1.1965,0.0,-1.3502,-1.3056,-1.159,-0.9114,0.0,0.0,0.0,0.0,0.0,0.0,0.0,0.0,0.0,0.0,0.0,0.0,0.0,0.0,0.0,0.0,0.0,0.0,0.0,0.0,0.0,0.0,0.0,0.0,0.0,0.0,0.0,0.0,0.0,0.0,0.0,0.0,0.0,0.0,0.0,0.0,0.0,0.0,0.0,0.0,0.0,0.0,0.0,0.0,0.0,0.0,0.0,0.0,0.0,0.0,0.0,0.0,0.0,0.0,0.0,0.0,0.0,0.0,0.0,0.0,0.0,0.0,0.0,0.0,0.0,0.0,0.0,0.0,0.0,0.0,0.0,0.0,0.0,0.0,0.0,0.0,0.0,0.0,0.0,0.0,0.0,0.0,0.0,0.0,0.0,0.0,0.0,0.0,0.0,0.0,0.0,0.0,0.0,0.0,0.0,0.0,0.0,0.0,0.0,0.0,0.0,0.0,0.0,0.0,0.0,0.0,0.0,0.0,0.0,0.0,0.0,-0.8746,-0.8296,-0.7027,0.0,0.0,0.0,0.0,0.0,0.0,0.0,0.0,0.0,0.0,0.0,0.0,0.0,0.0,0.0,0.0,0.0,0.0,0.0,0.0,0.0,0.0,0.0,0.0,0.0,0.0,0.0,0.0,0.0,0.0,0.0,0.0,0.0,0.0,0.0,0.0,0.0,0.0,0.0,0.0,0.0,0.0,0.0,0.0,0.0,0.0,0.0,0.0,0.0,0.0,0.0,0.0,0.0,0.0,0.0,0.0,0.0,0.0,0.0,0.0,0.0,0.0,0.0,0.0,0.0,0.0,0.0,0.0,0.0,0.0,0.0,0.0,0.0,0.0,0.0,0.0,0.0,0.0,0.0,0.0,0.0,0.0,0.0,0.0,0.0,0.0,0.0,0.0,0.0,0.0,0.0,0.0,0.0,0.0,0.0,0.0,0.0,0.0,0.0,0.0,0.0,0.0,0.0,0.0,0.0,0.0,0.0,0.0,0.0,0.0,0.0,-0.3498,-0.3883,-0.38,0.0,-0.1309,0.0,0.0,0.0,0.0,0.0,0.0,0.0,0.0,0.0,0.0,0.0,0.0,0.0,0.0,0.0,0.0,0.0,0.0,0.0,0.0,0.0,0.0,0.0,0.0,0.0,0.0,0.0,0.0,0.0,0.0,0.0,0.0,0.0,0.0,0.0,0.0,0.0,0.0,0.0,0.0,0.0,0.0,0.0,0.0,0.0,0.0,0.0,0.0,0.0,0.0,0.0,0.0,0.0,0.0,0.0,0.0,0.0,0.0,0.0,0.0,0.0,0.0,0.0,0.0,0.0,0.0,0.0,0.0,0.0,0.0,0.0,0.0,0.0,0.0,0.0,0.0,0.0,0.0,0.0,0.0,0.0,0.0,0.0,0.0,0.0,0.0,0.0,0.0,0.0,0.0,0.0,0.0,0.0,0.0,0.0,0.0,0.0,0.0,0.0,0.0,0.0,0.0,0.0,0.0,0.0,0.0,0.0,0.0,0.0,0.0,0.0,0.0,0.0391,0.0748,0.1325,0.0,0.0,0.0,0.0,0.0,0.0,0.0,0.0,0.0,0.0,0.0,0.0,0.0,0.0,0.0,0.0,0.0,0.0,0.0,0.0,0.0,0.0,0.0,0.0,0.0,0.0,0.0,0.0,0.0,0.0,0.0,0.0,0.0,0.0,0.0,0.0,0.0,0.0,0.0,0.0,0.0,0.0,0.0,0.0,0.0,0.0,0.0,0.0,0.0,0.0,0.0,0.0,0.0,0.0,0.0,0.0,0.0,0.0,0.0,0.0,0.0,0.0,0.0,0.0,0.0,0.0,0.0,0.0,0.0,0.0,0.0,0.0,0.0,0.0,0.0,0.0,0.0,0.0,0.0,0.0,0.0,0.0,0.0,0.0,0.0,0.0,0.0,0.0,0.0,0.0,0.0,0.0,0.0,0.0,0.0,0.0,0.0,0.0,0.0,0.0,0.0,0.0,0.0,0.0,0.0,0.0,0.0,0.0,0.0,0.0,0.4815,0.3957,0.3943,0.3759,0.3601,0.0,0.0,0.0,0.0,0.0,0.0,0.0,0.0,0.0,0.0,0.0,0.0,0.0,0.0,0.0,0.0,0.0,0.0,0.0,0.0,0.0,0.0,0.0,0.0,0.0,0.0,0.0,0.0,0.0,0.0,0.0,0.0,0.0,0.0,0.0,0.0,0.0,0.0,0.0,0.0,0.0,0.0,0.0,0.0,0.0,0.0,0.0,0.0,0.0,0.0,0.0,0.0,0.0,0.0,0.0,0.0,0.0,0.0,0.0,0.0,0.0,0.0,0.0,0.0,0.0,0.0,0.0,0.0,0.0,0.0,0.0,0.0,0.0,0.0,0.0,0.0,0.0,0.0,0.0,0.0,0.0,0.0,0.0,0.0,0.0,0.0,0.0,0.0,0.0,0.0,0.0,0.0,0.0,0.0,0.0,0.0,0.0,0.0,0.0,0.0,0.0,0.0,0.0,0.0,0.0,0.0,0.0,0.0,0.0,0.0,0.0,0.0,0.0,0.0,0.5726,0.0,0.0,0.0,0.0,0.0,0.0,0.0,0.0,0.0,0.0,0.0,0.0,0.0,0.0,0.0,0.0,0.0,0.0,0.0,0.0,0.0,0.0,0.0,0.0,0.0,0.0,0.0,0.0,0.0,0.0,0.0,0.0,0.0,0.0,0.0,0.0,0.0,0.0,0.0,0.0,0.0,0.0,0.0,0.0,0.0,0.0,0.0,0.0,0.0,0.0,0.0,0.0,0.0,0.0,0.0,0.0,0.0,0.0,0.0,0.0,0.0,0.0,0.0,0.0,0.0,0.0,0.0,0.0,0.0,0.0,0.0,0.0,0.0,0.0,0.0,0.0,0.0,0.0,0.0,0.0,0.0,0.0,0.0,0.0,0.0,0.0,0.0,0.0,0.0,0.0,0.0,0.0,0.0,0.0,0.0,0.0,0.0,0.0,0.0,0.0,0.0,0.0,0.0,0.0,0.0,0.0,0.0,0.0,0.0,0.0,0.0,0.0,0.0,0.0,0.0,0.0,0.0,0.0,0.0,0.0,0.0,0.0,0.0,0.0,0.0,0.0,0.0,0.0,0.0,0.0,0.0,0.0,0.0,0.0,0.0,0.0,0.0,0.0,0.0,0.0,0.0,0.0,0.0,0.0,0.0,0.0,0.0,0.0,0.0,0.0,0.0,0.0,0.0,0.0,0.0,0.0,0.0,0.0,0.0,0.0,0.0,0.0,0.0,0.0,0.0,0.0,0.0,0.0,0.0,0.0,0.0,0.0,0.0,0.0,0.0,0.0,0.0,0.0,0.0,0.0,0.0,0.0,0.0,0.0,0.0,0.0,0.0,0.0,0.0,0.0,0.0,0.0,0.0,0.0,0.0,0.0,0.0,0.0,0.0,0.0,0.0,0.0,0.0,0.0,0.0,0.0,0.0,0.0,0.0,0.0,0.0,0.0,0.0,0.0,0.0,0.0,0.0,0.0,0.0,0.0,0.0,0.0,0.0,0.0,0.0,0.0,0.0,0.0,0.0,0.0,0.0,0.0,0.0,0.0,0.0,0.0,0.0,0.0,0.0,0.0,0.0,0.0,0.0,0.0,0.0,0.0,0.0,0.0,0.0,0.0,0.0,0.0,0.0,0.0,0.0,0.0,0.0,0.0,0.0,0.0,0.0,0.0,0.0,0.0,0.0,0.0,0.0,0.0,0.0,0.0,0.0,0.0,0.0,0.0,0.0,0.0,0.0,0.0,0.0,0.0,0.0,0.0,0.0,0.0,0.0,0.0,0.0,0.0,0.0,0.0,0.0,0.0,0.0,0.0,0.0,0.0,0.0,0.0,0.0,0.0,0.0,0.0,0.0,0.0,0.0,0.0,0.0,0.0,0.0,0.0,0.0,0.0,0.0,0.0,0.0,0.0,0.0,0.0,0.0,0.0,0.0,0.0,0.0,0.0,0.0,0.0,0.0,0.0,0.0,0.0,0.0,0.0,0.0,0.0,0.0,0.0,0.0,0.0,0.0,0.0,0.0,0.0,0.0,0.0,0.0,0.0,0.0,0.0,0.0,0.0,0.0,0.0,0.0,0.0,0.0,0.0,0.0,0.0,0.0,0.0,0.0,0.0,0.0,0.0,0.0,0.0,0.0,0.0,0.0,0.0,0.0,0.0,0.0,0.0,0.0,0.0,0.0,0.0,0.0,0.0,0.0,0.0,0.0,0.0,0.0,0.0,0.0,0.0,0.0,0.0,0.0,0.0,0.0,0.0,0.0,0.0,0.0,0.0,0.0,0.0,0.0,0.0,0.0,0.0,0.0,0.0,0.0,0.0,0.0,0.0,0.0,0.0,0.0,0.0,0.0,0.0,0.0,0.0,0.0,0.0,0.0,0.0,0.0,0.0,0.0,0.0,0.0,0.0,0.0,0.0,0.0,0.0,0.0,0.0,0.0,0.0,0.0,0.0,0.0,0.0,0.0,0.0,0.0,0.0,0.0,0.0,0.0,0.0,0.0,0.0,0.0,0.0,0.0,0.0,0.0,0.0,0.0,0.0,0.0,0.0,0.0,0.0,0.0,0.0,0.0,0.0,0.0,0.0,0.0,0.0,0.0,0.0,0.0,0.0,0.0,0.0,0.0,0.0,0.0,0.0,0.0,0.0,0.0,0.0,0.0,0.0,0.0,0.0,0.0,0.0,0.0,0.0,0.0,0.0,0.0,0.0,0.0,0.0,0.0,0.0,0.0,0.0,0.0,0.0,0.0,0.0,0.0,0.0,0.0,0.0,0.0,0.0,0.0,0.0,0.0,0.0,0.0,0.0,0.0,0.0,0.0,0.0,0.0,0.0,0.0,0.0,0.0,0.0,0.0,0.0,0.0,0.0,0.0,0.0,0.0,0.0,0.0,0.0,0.0,0.0,0.0,0.0,0.0,0.0,0.0,0.0,0.0,0.0,0.0,0.0,0.0,0.0,0.0,0.0,0.0,0.0,0.0,0.0,0.0,0.0,0.0,0.0,0.0,0.0,0.0,0.0,0.0,0.0,0.0,0.0,0.0,0.0,0.0,0.0,0.0,0.0,0.0,0.0,0.0,0.0,0.0,0.0,0.0,0.0,0.0,0.0,0.0,0.0,0.0,0.0,0.0,0.0,0.0,0.0,0.0,0.0,0.0,0.0,0.0,0.0,0.0,0.0,0.0,0.0,0.0,0.0,0.0,0.0,0.0,0.0,0.0,0.0,0.0,0.0,0.0,0.0,0.0,0.0,0.0,0.0,0.0,0.0,0.0,0.0,0.0,0.0,0.0,0.0,0.0,0.0,0.0,0.0,0.0,0.0,0.0,0.0,0.0,0.0,0.0,0.0,0.0,0.0,0.0,0.0,0.0,0.0,0.0,0.0,0.0,0.0,0.0,0.0,0.0,0.0,0.0,0.0,0.0,0.0,0.0,0.0,0.0,0.0,0.0,0.0,0.0,0.0,0.0,0.0,0.0,0.0,0.0,0.0,0.0,0.0,0.0,0.0,0.0,0.0,0.0,0.0,0.0,0.0,0.0,0.0,0.0,0.0,0.0,0.0,0.0,0.0,0.0,0.0,0.0,0.0,0.0,0.0,0.0,0.0,0.0,0.0,0.0,0.0,0.0,0.0,0.0,0.0,0.0,0.0,0.0,0.0,0.0,0.0,0.0,0.0,0.0,0.0,0.0,0.0,0.0,0.0,0.0,0.0,0.0,0.0,0.0,0.0,0.0,0.0,0.0,0.0,0.0,0.0,0.0,0.0,0.0,0.0,0.0,0.0,0.0,0.0,0.0,0.0,0.0,0.0,0.0,0.0,0.0,0.0,0.0,0.0,0.0,0.0,0.0,0.0,0.0,0.0,0.0,0.0,0.0,0.0,0.0,0.0,0.0,0.0,0.0,0.0,0.0,0.0,0.0,0.0,0.0,0.0,0.0,0.0,0.0,0.0,0.0,0.0,0.0,0.0,0.0,0.0,0.0,0.0,0.0,0.0,0.0,0.0,0.0,0.0,0.0,0.0,0.0,0.0,0.0,0.0,0.0,0.0,0.0,0.0,0.0,0.0,0.0,0.0,0.0,0.0,0.0,0.0,0.0,0.0,0.0,0.0,0.0,0.0,0.0,0.0,0.0,0.0,0.0,0.0,0.0,0.0,0.0,0.0,0.0,0.0,0.0,0.0,0.0,0.0,0.0,0.0,0.0,0.0,0.0,0.0,0.0,0.0,0.0,0.0,0.0,0.0,0.0,0.0,0.0,0.0,0.0,0.0,0.0,0.0,0.0,0.0,0.0,0.0,0.0,0.0,0.0,0.0,0.0,0.0,0.0,0.0,0.0,0.0,0.0,0.0,0.0,0.0,0.0,0.0,0.0,0.0,0.0,0.0,0.0,0.0,0.0,0.0,0.0,0.0,0.0,0.0,0.0,0.0,0.0,0.0,0.0,0.0,0.0,0.0,0.0,0.0,0.0,0.0,0.0,0.0,0.0,0.0,0.0,0.0,0.0,0.0,0.0,0.0,0.0,0.0,0.0,0.0,0.0,0.0,0.0,0.0,0.0,0.0,0.0,0.0,0.0,0.0,0.0,0.0,0.0,0.0,0.0,0.0,0.0,0.0,0.0,0.0,0.0,0.0,0.0,0.0,0.0,0.0,0.0,0.0,0.0,0.0,0.0,0.0,0.0,0.0,0.0,0.0,0.0,0.0,0.0,0.0,0.0,0.0,0.0,0.0,0.0,0.0,0.0,0.0,0.0,0.0,0.0,0.0,0.0,0.0,0.0,0.0,0.0,0.0,0.0,0.0,0.0,0.0,0.0,0.0,0.0,0.0,0.0,0.0,0.0,0.0,0.0,0.0,0.0,0.0,0.0,0.0,0.0,0.0,0.0,0.0]}],[{"header":{"parameterUnit":"kt","parameterCategory":2,"dx":1,"dy":1,"la1":29.587661999999998,"la2":31.0,"lo1":-88.76705300000003,"lo2":-86.6583820000003,"nx":115,"ny":88,"refTime":"2022-10-02T18:00:00:Z","depth":0,"parameterNumber":2,"parameterNumberName":"V-component_of_WINDS"},"data":[11.8617,11.824,11.7847,11.7717,11.7668,11.7309,11.7156,11.7101,11.6793,11.665,11.6734,11.6726,11.6885,11.7208,11.7208,11.7154,11.7008,11.6896,11.677,11.6697,11.6885,11.6585,11.5713,11.4663,11.4783,11.5163,11.5912,11.7011,11.6878,11.7307,11.7752,11.7752,11.7752,11.791,11.776,11.7593,11.743,11.7862,11.7885,11.7789,11.8616,11.8802,11.8784,11.8766,11.8766,11.8766,11.8766,11.8766,11.8766,11.8766,11.8766,11.8766,11.8766,11.8766,11.8766,11.8748,11.8748,11.8711,11.8692,11.8522,11.8463,11.8419,11.7507,11.7259,11.6884,11.6608,11.5034,11.3617,11.274,11.1816,11.0678,10.9998,10.9419,10.8836,10.853,10.7848,10.7352,10.6303,10.547,10.5256,10.5041,10.4968,10.486,10.4751,10.4751,10.4603,10.4603,10.4603,10.4603,10.4603,10.4603,10.4134,10.3628,10.3051,10.204,10.0559,9.9332,9.8862,9.814,9.6985,9.5974,9.5143,9.5035,9.5071,9.5037,9.5037,9.4901,9.4587,9.4481,9.441,9.4194,9.3938,9.3753,9.3337,9.2544,11.8853,11.8636,11.8299,11.8111,11.8082,11.7679,11.7568,11.7543,11.7466,11.744,11.7505,11.7729,11.7833,11.7861,11.7861,11.7839,11.7655,11.7179,11.743,11.7445,11.7304,11.6202,11.5904,11.6276,11.5804,11.5941,11.6873,11.7418,11.7823,11.8101,11.8327,11.8303,11.8598,11.8937,11.8707,11.8519,11.8346,11.8502,11.8559,11.8577,11.8705,11.887,11.887,11.88,11.8766,11.8766,11.8766,11.8766,11.8766,11.8766,11.8766,11.8766,11.8766,11.8766,11.8766,11.8766,11.8766,11.8635,11.8466,11.8391,11.841,11.8129,11.7096,11.6381,11.5929,11.4932,11.3302,11.2052,11.1213,11.0197,10.8855,10.7879,10.7345,10.6867,10.6753,10.649,10.6247,10.5911,10.5732,10.5699,10.5528,10.5425,10.5285,10.5109,10.4932,10.4678,10.4603,10.4603,10.446,10.4208,10.3846,10.334,10.2291,10.1244,10.0378,9.9078,9.7779,9.7346,9.6949,9.5901,9.5143,9.5071,9.5035,9.5035,9.5035,9.5035,9.4899,9.4832,9.4901,9.4865,9.4552,9.4122,9.4122,9.3939,9.3218,11.9148,11.9093,11.8904,11.8853,11.8725,11.8314,11.8136,11.8095,11.7924,11.8112,11.8561,11.8667,11.8572,11.8316,11.8316,11.8222,11.7778,11.7165,11.7019,11.6377,11.5534,11.4998,11.5197,11.5501,11.5613,11.624,11.732,11.8275,11.8672,11.8828,11.8878,11.8953,11.9071,11.923,11.9155,11.9117,11.9057,11.9071,11.9087,11.9087,11.9102,11.9133,11.9117,11.9117,11.9055,11.9007,11.8953,11.8887,11.8835,11.8802,11.8784,11.8784,11.8802,11.8672,11.8691,11.8616,11.8465,11.839,11.7676,11.7225,11.6924,11.6041,11.5066,11.501,11.4579,11.255,11.0897,11.0729,10.9868,10.969,10.8327,10.7883,10.7396,10.7072,10.6989,10.6772,10.6564,10.6282,10.604,10.6014,10.5824,10.5726,10.5626,10.5455,10.5277,10.5,10.5143,10.5213,10.4059,10.3371,10.2933,10.2206,10.036,9.9134,9.8704,9.7732,9.6615,9.6044,9.5685,9.5249,9.5174,9.5105,9.5035,9.5035,9.5035,9.5035,9.5035,9.5003,9.5037,9.5037,9.4727,9.4339,9.4481,9.441,9.2926,11.9392,11.9366,11.9366,11.9366,11.93,11.8936,11.8744,11.8727,11.8479,11.8807,11.9343,11.9406,11.9214,11.8913,11.8913,11.88,11.8151,11.735,11.628,11.5825,11.4608,11.419,11.3936,11.4951,11.5518,11.6229,11.7217,11.8339,11.8997,11.9287,11.9392,11.9314,11.9469,11.9431,11.93,11.9392,11.9341,11.9287,11.9341,11.9406,11.9368,11.9368,11.9379,11.9352,11.93,11.923,11.9162,11.9064,11.8986,11.8941,11.8907,11.889,11.8815,11.8404,11.8068,11.7676,11.7225,11.6661,11.6059,11.5721,11.54,11.446,11.3653,11.3465,11.2412,11.0194,10.9012,10.9012,10.8886,10.8818,10.8576,10.85,10.8326,10.814,10.7982,10.7691,10.7384,10.6965,10.6484,10.6282,10.6108,10.5982,10.5922,10.5715,10.5536,10.5357,10.5211,10.4565,10.3203,10.189,10.1332,9.9851,9.8149,9.7722,9.7294,9.6644,9.6253,9.5753,9.5482,9.5343,9.5238,9.5102,9.5035,9.5035,9.5035,9.5035,9.5035,9.5037,9.5037,9.5035,9.4831,9.4551,9.4587,9.3399,9.1938,11.9394,11.9228,11.9366,11.9341,11.9328,11.9314,11.9263,11.9314,11.9416,11.9632,11.9632,11.9727,11.9622,11.9484,11.9473,11.9424,11.8849,11.7325,11.6356,11.6914,11.4468,11.345,11.3537,11.4392,11.4763,11.6022,11.7022,11.7377,11.8776,11.9205,11.9116,11.9341,11.9575,11.9597,11.9432,11.9506,11.9506,11.9482,11.9564,11.9619,11.9515,11.948,11.9456,11.9406,11.9392,11.9366,11.9314,11.93,11.93,11.9287,11.9272,11.9183,11.8597,11.7858,11.6117,11.5411,11.5134,11.4628,11.4347,11.4104,11.3821,11.3164,11.2525,11.1849,11.1247,10.9668,10.9029,10.8862,10.8862,10.8793,10.8758,10.8685,10.8613,10.8462,10.8343,10.814,10.7944,10.7653,10.7168,10.6735,10.6403,10.5671,10.5542,10.4704,10.4386,10.377,10.3345,10.2761,10.1524,10.0102,9.8895,9.732,9.6857,9.6864,9.6511,9.6382,9.5982,9.5785,9.5695,9.5532,9.5235,9.5102,9.5035,9.5035,9.5035,9.5035,9.5035,9.5035,9.5035,9.4963,9.4753,9.4654,9.3503,9.1848,9.0539,11.751,11.6873,11.8689,11.8992,11.8349,11.9143,11.9597,11.9608,11.9679,11.9717,11.9717,11.9679,11.9717,11.9717,11.9641,11.9566,11.9338,11.7104,11.5665,11.4983,11.2732,11.2306,11.2231,11.2522,11.3436,11.4138,11.4933,11.596,11.6467,11.7368,11.8882,11.9332,11.966,11.966,11.9581,11.957,11.9619,11.9629,11.965,11.9717,11.967,11.965,11.9639,11.9608,11.9608,11.9553,11.9494,11.9482,11.9431,11.9366,11.9366,11.8937,11.7588,11.7183,11.5822,11.4304,11.3767,11.3283,11.2539,11.2409,11.1736,11.0984,11.0232,10.9969,10.9609,10.9476,10.9121,10.8878,10.8878,10.8862,10.8862,10.8862,10.8756,10.8685,10.8613,10.8538,10.8403,10.8241,10.7779,10.7248,10.6502,10.5654,10.4726,10.3858,10.3146,10.2565,10.1962,10.1279,10.0092,9.8807,9.7466,9.6574,9.648,9.6386,9.6306,9.629,9.6061,9.5878,9.5785,9.5596,9.5235,9.5102,9.5035,9.5035,9.5035,9.5035,9.5035,9.5035,9.4746,9.4565,9.4318,9.3277,9.1765,9.0147,8.9008,11.5816,11.4945,11.7255,11.7596,11.6763,11.7785,11.8278,11.8278,11.8278,11.8657,11.9035,11.8997,11.9187,11.9641,11.9225,11.8997,11.771,11.593,11.4453,11.3051,11.149,11.0324,11.0249,11.1036,11.1726,11.2512,11.3383,11.4321,11.4936,11.5702,11.7322,11.896,11.9414,11.9679,11.9708,11.9717,11.9708,11.9708,11.9698,11.9708,11.9708,11.9708,11.9698,11.9698,11.9689,11.967,11.9619,11.9608,11.9083,11.8825,11.87,11.7894,11.6282,11.5603,11.5149,11.3594,11.2843,11.2309,11.1125,11.0793,11.0438,10.9557,10.9212,10.897,10.897,10.9045,10.8976,10.8907,10.889,10.8895,10.8862,10.8862,10.8845,10.8773,10.8756,10.8685,10.8631,10.8351,10.7724,10.7101,10.6226,10.5281,10.3854,10.2897,10.2031,10.1479,10.0807,9.9923,9.893,9.7891,9.6934,9.6871,9.6779,9.6697,9.6577,9.6464,9.6233,9.6031,9.5909,9.5754,9.5463,9.5268,9.5102,9.5035,9.5035,9.5035,9.4999,9.4421,9.3915,9.3807,9.2941,9.1496,8.9984,8.8273,8.6957,11.4726,11.4689,11.4793,11.4907,11.4793,11.4945,11.4983,11.4907,11.4992,11.5892,11.7293,11.7407,11.8013,11.9035,11.8051,11.7407,11.6611,11.3931,11.2871,11.1886,11.0712,11.0181,10.9916,11.0106,11.0863,11.1696,11.2302,11.2833,11.4415,11.468,11.5513,11.7028,11.8467,11.9111,11.9414,11.9566,11.9717,11.9717,11.9717,11.9717,11.9717,11.9717,11.9717,11.9717,11.9717,11.9708,11.9623,11.9386,11.8629,11.7947,11.7228,11.6177,11.4786,11.311,11.2463,11.1604,11.0453,11.0101,10.9621,10.9684,10.9242,10.9186,10.9142,10.9232,10.9206,10.9097,10.9054,10.9009,10.897,10.8907,10.8878,10.8878,10.8841,10.8766,10.8766,10.8523,10.8527,10.7915,10.7207,10.6511,10.5541,10.4425,10.2906,10.1856,10.088,10.0299,9.9579,9.88,9.8257,9.7213,9.715,9.7125,9.6994,9.6968,9.6941,9.6824,9.6605,9.6386,9.621,9.6,9.5748,9.5523,9.5333,9.5169,9.5102,9.4927,9.4782,9.4204,9.3266,9.1966,9.0991,8.9655,8.8391,8.6611,8.5792,11.2454,11.1772,11.3771,11.4074,11.3089,11.3022,11.3051,11.3203,11.4225,11.4954,11.5711,11.6725,11.7066,11.6725,11.6763,11.6877,11.5286,11.3136,11.2151,11.1961,11.0522,10.9954,10.9803,10.9916,11.0295,11.0371,11.0712,11.0863,11.1848,11.2605,11.3477,11.4718,11.6611,11.7605,11.8325,11.9006,11.9461,11.9376,11.9508,11.9546,11.9575,11.9726,11.9717,11.9697,11.9612,11.9659,11.9385,11.8732,11.7785,11.7104,11.6081,11.4756,11.3497,11.2305,11.1728,11.0745,10.9767,10.9518,10.927,10.9258,10.9332,10.927,10.9329,10.9355,10.9233,10.9044,10.9055,10.8926,10.9054,10.8956,10.8873,10.8841,10.8728,10.8465,10.8164,10.7262,10.6945,10.5913,10.5156,10.4715,10.3924,10.2807,10.1595,10.065,9.9928,9.9158,9.8484,9.8078,9.7647,9.745,9.7364,9.7139,9.6984,9.702,9.702,9.6984,9.6914,9.6789,9.6529,9.6299,9.6055,9.5743,9.5559,9.5435,9.5018,9.4704,9.4563,9.3735,9.2396,9.1023,8.9438,8.7958,8.6658,8.5833,8.5189,11.0796,11.0068,11.2113,11.2395,11.1502,11.135,11.1388,11.1577,11.2487,11.3358,11.4062,11.4916,11.4945,11.4907,11.5248,11.4756,11.359,11.2151,11.1355,11.1242,11.0371,10.9916,10.9803,10.9803,10.984,10.984,10.984,10.9954,10.984,11.0825,11.1507,11.234,11.4386,11.5455,11.6048,11.7141,11.8094,11.8144,11.867,11.8914,11.8952,11.942,11.971,11.9707,11.9073,11.8814,11.8689,11.7135,11.6009,11.5102,11.4533,11.3101,11.1696,11.1309,11.0817,11.0156,10.976,10.9551,10.9471,10.9412,10.9482,10.9561,10.9515,10.922,10.8618,10.8573,10.8134,10.7683,10.7131,10.7102,10.7579,10.7465,10.748,10.7254,10.6853,10.5988,10.5408,10.4339,10.3389,10.2982,10.269,10.17,10.0577,9.9565,9.9165,9.8558,9.85,9.8101,9.7817,9.7727,9.7613,9.7352,9.7153,9.7113,9.7047,9.6984,9.6941,9.6861,9.6725,9.6447,9.6226,9.5964,9.5738,9.539,9.4919,9.4403,9.3646,9.2746,9.1448,8.9827,8.7849,8.6225,8.5647,8.5141,8.4383,10.9857,10.9811,10.9932,10.9978,11.0011,10.9842,10.9924,11.0113,11.0221,11.0998,11.2207,11.2554,11.3258,11.375,11.319,11.2698,11.1902,11.0728,11.0084,11.016,10.994,10.9849,10.9811,10.9819,10.9789,10.9811,10.9819,10.9827,10.9811,11.0198,11.0804,11.1789,11.2198,11.2686,11.2654,11.4146,11.4871,11.5056,11.654,11.7023,11.7408,11.8291,11.8675,11.8519,11.7798,11.7229,11.6859,11.561,11.4333,11.3311,11.2656,11.1674,11.0409,11.0205,11.0084,10.985,10.9827,10.9811,10.9765,10.9697,10.9288,10.8933,10.8955,10.8523,10.7543,10.7027,10.6656,10.5927,10.5263,10.4903,10.4652,10.4678,10.4917,10.4879,10.4597,10.4103,10.3924,10.3232,10.2238,10.1571,10.1299,10.0893,9.9633,9.8783,9.8591,9.8573,9.8573,9.8408,9.816,9.804,9.7936,9.772,9.759,9.7496,9.7315,9.7153,9.7036,9.6931,9.6777,9.6449,9.6219,9.5677,9.5421,9.5368,9.4567,9.3303,9.2489,9.1711,9.021,8.8638,8.6538,8.5406,8.4919,8.4341,8.3155,10.9706,10.97,10.97,10.9733,10.9682,10.972,10.9711,10.9683,10.9677,11.0096,11.065,11.1818,11.2039,11.166,11.1691,11.1729,11.0667,11.0144,10.9878,10.981,10.9816,10.9803,10.9803,10.9816,10.9798,10.9803,10.9803,10.9816,10.9791,10.981,11.0202,11.0451,11.0477,11.1228,11.2072,11.3669,11.4617,11.4614,11.511,11.5301,11.5338,11.5979,11.625,11.6175,11.5795,11.5415,11.4998,11.3897,11.2679,11.1987,11.1215,11.0439,11.0049,10.9814,10.9814,10.9797,10.9811,10.9804,10.9443,10.8787,10.7529,10.7052,10.7406,10.7074,10.6063,10.5462,10.5203,10.4421,10.4416,10.4562,10.4637,10.4092,10.3906,10.3427,10.308,10.2552,10.2339,10.1998,10.103,10.0451,10.0109,9.9866,9.9027,9.8938,9.8869,9.8975,9.8923,9.881,9.8575,9.8476,9.8351,9.818,9.8015,9.783,9.7676,9.7562,9.7459,9.7302,9.6871,9.6498,9.5773,9.4926,9.4511,9.3978,9.3141,9.2172,9.1246,9.0372,8.8951,8.7458,8.65,8.5442,8.4748,8.3041,8.1862,10.9638,10.9644,10.96,10.9586,10.961,10.961,10.963,10.9644,10.9644,10.9679,10.9846,11.0754,11.0698,11.0304,11.0895,11.0739,10.9949,10.9801,10.9783,10.9755,10.9787,10.9759,10.9721,10.9727,10.9721,10.9727,10.9762,10.9759,10.9756,10.9733,10.9765,10.9748,10.9793,11.0378,11.0868,11.183,11.2365,11.2593,11.3116,11.3598,11.375,11.4022,11.455,11.4451,11.4219,11.362,11.3343,11.2029,11.1441,11.0923,11.0326,10.9986,10.9758,10.9752,10.937,10.8721,10.9431,10.9259,10.8686,10.7225,10.5986,10.5142,10.5543,10.5632,10.4034,10.3775,10.3597,10.3069,10.2581,10.2235,10.2658,10.2647,10.2747,10.2359,10.1819,10.1182,10.0772,10.0374,9.9747,9.9874,9.951,9.9221,9.9156,9.9089,9.9208,9.9343,9.9306,9.9244,9.9081,9.892,9.8787,9.8612,9.8423,9.8258,9.7965,9.7899,9.7872,9.7401,9.6922,9.6203,9.5344,9.4415,9.3114,9.221,9.1443,9.0831,9.0081,8.9074,8.8123,8.7129,8.6271,8.5315,8.3579,8.1781,8.06,10.9639,10.9607,10.9499,10.953,10.9621,10.9631,10.9636,10.9612,10.9607,10.9628,10.9666,10.9721,10.9827,10.9744,10.9942,10.9982,10.9773,10.9689,10.9672,10.9643,10.9643,10.9675,10.9675,10.9637,10.9634,10.9634,10.9638,10.9675,10.9628,10.963,10.9628,10.9598,10.9568,10.9621,10.9925,11.0294,11.0314,11.0584,11.1312,11.1933,11.2331,11.2992,11.3821,11.3639,11.2775,11.1956,11.1877,11.0652,10.9909,10.9903,10.9801,10.9714,10.9123,10.9059,10.8269,10.7587,10.7934,10.767,10.6683,10.5354,10.4671,10.4666,10.4397,10.3489,10.2266,10.2072,10.1463,10.0653,10.0839,10.0404,10.019,9.9815,10.0545,10.0553,10.0597,10.0177,9.9999,9.9496,9.9455,9.9374,9.9352,9.9352,9.9306,9.927,9.9378,9.9465,9.9448,9.9417,9.9303,9.928,9.9133,9.9027,9.8818,9.8591,9.8275,9.794,9.7716,9.7321,9.6711,9.5868,9.4534,9.3268,9.1885,9.0953,9.0007,8.9587,8.9018,8.8335,8.7564,8.6718,8.5615,8.4306,8.2702,8.1135,7.9773,10.9485,10.9485,10.9449,10.9438,10.9492,10.9454,10.9505,10.9509,10.9478,10.9545,10.9616,10.9642,10.9616,10.9624,10.9672,10.9718,10.9676,10.9662,10.9619,10.9616,10.9639,10.9624,10.9616,10.962,10.962,10.9632,10.9612,10.9616,10.9573,10.9561,10.9496,10.9492,10.9487,10.9495,10.9513,10.9515,10.9505,10.9524,11.0045,11.028,11.0345,11.0764,11.0902,11.0746,11.0383,11.0119,11.0108,10.9595,10.9495,10.9503,10.9539,10.8944,10.8079,10.7768,10.6945,10.5894,10.5851,10.556,10.4287,10.3633,10.3742,10.3533,10.3018,10.1384,10.0607,10.045,10.0138,9.9996,9.987,9.9826,9.9856,9.985,9.9811,9.9773,9.9669,9.965,9.9637,9.9651,9.9588,9.9544,9.9517,9.9498,9.9517,9.9458,9.9478,9.9582,9.9582,9.9555,9.9498,9.9498,9.94,9.9347,9.9157,9.8992,9.877,9.8449,9.7696,9.7154,9.6423,9.5248,9.2927,9.1422,9.0595,8.9633,8.8568,8.8337,8.8543,8.7735,8.6951,8.6032,8.5005,8.3513,8.2035,8.0657,7.9256,10.9459,10.9459,10.9459,10.9459,10.9459,10.9459,10.9442,10.9465,10.9447,10.9467,10.9508,10.9562,10.9568,10.9556,10.9603,10.9612,10.9641,10.9573,10.9545,10.9545,10.9554,10.9516,10.9531,10.9562,10.9562,10.9546,10.9524,10.9547,10.9521,10.9487,10.9472,10.9446,10.9434,10.9459,10.9483,10.9434,10.9459,10.9459,10.9459,10.9459,10.9459,10.9472,10.951,10.951,10.9547,10.9522,10.9522,10.9468,10.9454,10.9363,10.8701,10.802,10.7235,10.6307,10.5313,10.3874,10.4075,10.3651,10.2406,10.2255,10.2235,10.2044,10.1085,9.9864,9.9848,9.9885,9.9899,9.983,9.9846,9.9811,9.9812,9.9883,9.9866,9.9847,9.9796,9.9768,9.9792,9.9762,9.9714,9.9681,9.9652,9.9708,9.9701,9.9657,9.9605,9.965,9.9652,9.9613,9.9626,9.9626,9.9609,9.9553,9.9375,9.9067,9.8796,9.8249,9.712,9.5909,9.5172,9.3547,9.1264,9.0021,8.9384,8.8539,8.8103,8.7946,8.7846,8.7368,8.6778,8.5654,8.4398,8.2752,8.1144,7.9803,7.8349,10.9434,10.9396,10.9396,10.9396,10.9396,10.9396,10.9434,10.9409,10.9409,10.9434,10.9371,10.9409,10.9412,10.9448,10.9558,10.96,10.9576,10.9486,10.9466,10.9486,10.9471,10.948,10.9459,10.9459,10.948,10.9454,10.9457,10.9459,10.9421,10.9421,10.9409,10.9459,10.9459,10.9459,10.9459,10.9459,10.9459,10.9459,10.9459,10.9459,10.9459,10.9459,10.9459,10.9459,10.9459,10.9459,10.9472,10.9434,10.9182,10.8993,10.7764,10.6921,10.6173,10.5032,10.3751,10.3012,10.3007,10.34,10.1898,10.1455,10.1276,10.0446,9.9894,9.975,9.9763,9.9746,9.9746,9.9728,9.974,9.9724,9.9775,9.9846,9.9886,9.9883,9.9841,9.9874,9.9902,9.9823,9.9806,9.9788,9.9778,9.9819,9.9844,9.9789,9.9726,9.9735,9.9739,9.9719,9.972,9.9705,9.9689,9.9453,9.9251,9.8467,9.7976,9.6999,9.5818,9.4372,9.3252,9.1833,9.0575,8.9664,8.8761,8.8418,8.8211,8.8076,8.7818,8.7332,8.6598,8.5272,8.3431,8.1786,8.0246,7.8813,7.7409,10.9285,10.9285,10.9285,10.9285,10.9285,10.9285,10.9299,10.9285,10.9262,10.9299,10.9299,10.9279,10.9295,10.9333,10.9416,10.9509,10.9449,10.9476,10.9442,10.9431,10.9446,10.9459,10.9459,10.9459,10.9422,10.9409,10.9409,10.9396,10.932,10.9306,10.937,10.9434,10.9459,10.9459,10.9459,10.9447,10.9459,10.9459,10.9459,10.9459,10.9459,10.9459,10.9459,10.9459,10.9459,10.9459,10.9459,10.9459,10.8893,10.7999,10.7067,10.5833,10.3657,10.3895,10.3604,10.232,10.2158,10.1466,10.0583,10.0254,10.0307,9.9678,9.9573,9.9617,9.968,9.9689,9.9705,9.972,9.9732,9.9708,9.9727,9.9821,9.9838,9.9828,9.9846,9.9888,9.9884,9.9872,9.9866,9.9868,9.9894,9.9902,9.9874,9.983,9.978,9.98,9.9768,9.9767,9.9771,9.9746,9.9522,9.9318,9.8682,9.7796,9.6506,9.5451,9.4383,9.2994,9.1692,9.0915,9.0113,8.9407,8.9074,8.867,8.8482,8.8356,8.7818,8.7389,8.6089,8.4526,8.2499,8.0808,7.947,7.8054,7.6832,10.8782,10.8799,10.9107,10.928,10.928,10.928,10.928,10.928,10.928,10.928,10.9257,10.9285,10.9262,10.9276,10.9341,10.9355,10.9344,10.9357,10.9357,10.9344,10.9396,10.9409,10.9333,10.9333,10.9333,10.9333,10.9344,10.929,10.9276,10.9262,10.9276,10.9355,10.9355,10.9355,10.9355,10.9368,10.9355,10.9317,10.9355,10.9368,10.937,10.9368,10.9344,10.9357,10.937,10.9396,10.9409,10.9459,10.8969,10.8138,10.7345,10.6061,10.5231,10.5004,10.4853,10.3694,10.3985,10.3418,10.119,10.0624,10.0156,9.973,9.9541,9.9572,9.9611,9.963,9.9611,9.963,9.9649,9.9655,9.9655,9.9742,9.9759,9.974,9.9819,9.9888,9.9912,9.9887,9.9885,9.9912,9.9883,9.9885,9.9885,9.985,9.9846,9.9834,9.9856,9.9834,9.9844,9.9593,9.929,9.8773,9.79,9.6477,9.4464,9.3759,9.2918,9.1607,9.048,9.0225,8.9729,8.9433,8.9132,8.8921,8.8921,8.8878,8.8241,8.7065,8.5487,8.391,8.2113,8.037,7.8866,7.7517,7.6448,10.8104,10.8143,10.8735,10.8928,10.8928,10.903,10.9014,10.9045,10.9114,10.9197,10.9197,10.9212,10.9227,10.9227,10.9227,10.928,10.9271,10.9276,10.9276,10.9299,10.9355,10.9357,10.9266,10.9303,10.9214,10.9186,10.9167,10.9175,10.9175,10.919,10.9204,10.9242,10.9257,10.9257,10.9294,10.928,10.9271,10.9271,10.9271,10.9299,10.9276,10.9299,10.9299,10.929,10.9303,10.9293,10.937,10.9421,10.9283,10.8906,10.7622,10.708,10.6746,10.6425,10.5549,10.446,10.4525,10.3444,10.1345,10.1117,10.0662,9.9944,9.9541,9.9541,9.9541,9.9541,9.9574,9.9547,9.9551,9.9554,9.9554,9.9609,9.9651,9.972,9.9777,9.9864,9.9848,9.9857,9.9841,9.983,9.9835,9.9848,9.9823,9.9803,9.9794,9.9772,9.9773,9.9808,9.9634,9.9337,9.8786,9.7886,9.7047,9.4889,9.2741,9.2324,9.1736,9.0503,9.0133,8.988,8.9687,8.9417,8.9265,8.9183,8.9146,8.9058,8.8074,8.683,8.5406,8.3989,8.2041,8.0051,7.8862,7.7711,7.651,10.7444,10.7444,10.7552,10.7636,10.7645,10.8091,10.8291,10.833,10.8701,10.8845,10.8912,10.903,10.8928,10.9083,10.9077,10.9227,10.9212,10.9175,10.9061,10.9099,10.916,10.919,10.9137,10.9092,10.8986,10.9039,10.8857,10.8857,10.8944,10.9099,10.8912,10.9182,10.9212,10.903,10.9145,10.9227,10.9099,10.903,10.903,10.9061,10.9092,10.9092,10.9077,10.9092,10.9092,10.9069,10.9084,10.9062,10.8601,10.7236,10.6876,10.7186,10.7244,10.6489,10.4881,10.3784,10.2756,10.1669,10.0191,9.9811,9.9898,9.968,9.9506,9.9506,9.9506,9.9506,9.9506,9.9529,9.9552,9.9536,9.9525,9.9582,9.9555,9.9582,9.9689,9.9728,9.9742,9.9749,9.9739,9.9735,9.9726,9.9752,9.9765,9.9783,9.9726,9.973,9.971,9.9651,9.9353,9.8915,9.7852,9.6893,9.5713,9.3824,9.2183,9.1458,9.0726,8.9944,8.9924,8.9754,8.9645,8.9514,8.9485,8.9394,8.9223,8.9008,8.8329,8.653,8.5038,8.4026,8.2068,7.9459,7.8349,7.7813,7.5437,10.6882,10.6909,10.7185,10.7311,10.7335,10.7552,10.7645,10.7713,10.7927,10.8012,10.8033,10.8112,10.8132,10.8153,10.8193,10.8271,10.8214,10.8214,10.8271,10.833,10.8646,10.8753,10.8718,10.8407,10.8156,10.8132,10.8054,10.8033,10.8112,10.8112,10.8251,10.8214,10.8193,10.8273,10.8214,10.8173,10.8253,10.8291,10.8214,10.8234,10.8273,10.8253,10.8234,10.831,10.833,10.8331,10.8332,10.8332,10.7845,10.7339,10.7132,10.7013,10.6347,10.561,10.3996,10.2353,10.1064,10.0215,9.9029,9.871,9.8893,9.899,9.8893,9.9019,9.9218,9.9333,9.9371,9.9494,9.9518,9.9518,9.9529,9.9547,9.9558,9.9551,9.9593,9.9609,9.9562,9.947,9.9421,9.9441,9.9562,9.9689,9.9712,9.9749,9.9689,9.9377,9.9408,9.9068,9.8815,9.7686,9.666,9.5405,9.4284,9.301,9.1448,9.0558,8.987,8.9812,8.9807,8.9735,8.969,8.9679,8.9659,8.9511,8.9334,8.9118,8.7989,8.5897,8.414,8.2824,8.1055,7.8722,7.7147,7.6674,7.4743,10.6306,10.6396,10.6782,10.6962,10.6989,10.7083,10.7109,10.7134,10.7261,10.7384,10.7335,10.7335,10.736,10.736,10.7409,10.7311,10.7409,10.7409,10.7311,10.7384,10.7879,10.7979,10.778,10.7598,10.736,10.7384,10.7335,10.7335,10.736,10.7433,10.7335,10.7384,10.7505,10.7335,10.7384,10.7481,10.7311,10.7311,10.7335,10.7457,10.7528,10.7481,10.7481,10.7528,10.7528,10.7491,10.7463,10.7426,10.7345,10.7212,10.6974,10.6233,10.5046,10.4329,10.2806,10.0791,10.0006,9.9294,9.8327,9.8069,9.8202,9.8386,9.8294,9.8332,9.8869,9.89,9.9042,9.9245,9.9334,9.9245,9.9245,9.9321,9.9334,9.9371,9.9343,9.9265,9.9291,9.9158,9.903,9.912,9.9336,9.9573,9.9573,9.9602,9.9399,9.9137,9.8809,9.8444,9.7488,9.6364,9.5086,9.3652,9.2598,9.1642,9.05,9.0185,8.9823,8.9806,8.9803,8.9787,8.9775,8.9779,8.9699,8.959,8.9344,8.8459,8.7494,8.5493,8.3316,8.1561,7.9839,7.8359,7.7008,7.57,7.4356,10.5522,10.5824,10.5759,10.5792,10.6009,10.6396,10.6556,10.667,10.6989,10.7185,10.7185,10.7261,10.7134,10.7311,10.7083,10.7236,10.7236,10.7134,10.7185,10.7211,10.7224,10.7185,10.6854,10.6978,10.7146,10.7134,10.7286,10.7211,10.7109,10.7222,10.7273,10.7134,10.7185,10.7261,10.7146,10.7185,10.7286,10.7222,10.7146,10.7109,10.7134,10.7109,10.7109,10.7134,10.7134,10.7185,10.7174,10.7174,10.6872,10.6009,10.5913,10.5139,10.3851,10.2108,10.0642,9.9422,9.8276,9.7708,9.7465,9.7637,9.7829,9.7812,9.7791,9.7954,9.8183,9.8295,9.8404,9.8645,9.8666,9.8662,9.8662,9.8699,9.8832,9.9042,9.8832,9.8694,9.8662,9.8645,9.8575,9.8608,9.896,9.914,9.9245,9.927,9.8953,9.804,9.7422,9.6705,9.5537,9.4693,9.3583,9.2222,9.1255,9.0281,9.0092,8.9902,8.9859,8.9854,8.9854,8.9849,8.9881,8.9847,8.9763,8.9288,8.8578,8.7711,8.6552,8.4808,8.2884,8.1044,7.9442,7.8301,7.7262,7.5848,7.5174,10.5249,10.5387,10.5354,10.5354,10.5421,10.5616,10.5747,10.5776,10.6024,10.6111,10.6276,10.6276,10.6299,10.6389,10.6389,10.6389,10.6389,10.6389,10.6418,10.6389,10.6418,10.6306,10.6154,10.6245,10.6389,10.6389,10.6425,10.6418,10.6418,10.6389,10.6389,10.6448,10.6389,10.6389,10.6484,10.6389,10.6389,10.6455,10.6425,10.6389,10.6389,10.6389,10.6389,10.6389,10.6425,10.6425,10.6455,10.6389,10.6215,10.5703,10.4813,10.371,10.2156,10.0424,9.8914,9.7579,9.7129,9.6851,9.6936,9.704,9.7143,9.7265,9.7167,9.7361,9.7609,9.7718,9.7808,9.805,9.8089,9.8089,9.8108,9.8258,9.8494,9.8687,9.8407,9.816,9.8314,9.8333,9.8333,9.8407,9.8583,9.8801,9.8801,9.7976,9.7381,9.6756,9.5951,9.4756,9.3605,9.3065,9.2276,9.1296,9.0289,9.0142,8.9997,8.9923,8.993,8.9933,8.9935,8.994,8.9939,8.9932,8.9407,8.8497,8.7766,8.6752,8.4851,8.3056,8.173,8.0619,7.9083,7.7828,7.7004,7.5884,7.5725,10.5074,10.5144,10.5109,10.5109,10.5144,10.5144,10.5179,10.5179,10.5179,10.5352,10.5425,10.5425,10.5559,10.5592,10.5589,10.5626,10.5726,10.5729,10.5696,10.5693,10.5696,10.5629,10.5696,10.5762,10.5759,10.5762,10.5759,10.5696,10.5696,10.5759,10.5795,10.5762,10.5857,10.5828,10.5762,10.5824,10.5762,10.5762,10.5795,10.5828,10.5792,10.5792,10.5762,10.5762,10.5795,10.5828,10.5762,10.5762,10.5762,10.5653,10.4229,10.2478,10.0502,9.9261,9.7983,9.6729,9.6438,9.648,9.6509,9.6509,9.6594,9.6725,9.6678,9.6688,9.7155,9.7204,9.73,9.7496,9.7586,9.7549,9.7571,9.7718,9.7928,9.8105,9.7845,9.7659,9.7904,9.7989,9.7973,9.8056,9.8295,9.8143,9.7747,9.6933,9.6049,9.5049,9.4031,9.297,9.1775,9.1079,9.1061,9.0153,8.9922,8.9964,8.9969,8.9969,8.9977,8.9951,8.9924,8.9904,8.9779,8.9765,8.8918,8.7566,8.667,8.5195,8.3279,8.1784,8.0991,8.0204,7.9185,7.8761,7.7674,7.7016,7.6912,10.4824,10.5109,10.504,10.5004,10.5109,10.5144,10.5109,10.5144,10.5144,10.5144,10.5179,10.5179,10.5179,10.5214,10.5249,10.5354,10.5532,10.553,10.5595,10.5559,10.5423,10.5354,10.5564,10.5629,10.5629,10.5564,10.553,10.5566,10.553,10.553,10.5632,10.5659,10.5729,10.5762,10.5693,10.5726,10.5762,10.5729,10.5726,10.5762,10.5762,10.5762,10.5762,10.5762,10.5762,10.5762,10.5729,10.5592,10.5626,10.551,10.4095,10.1838,9.9344,9.864,9.7703,9.6383,9.6201,9.6261,9.6231,9.629,9.632,9.635,9.632,9.6372,9.6614,9.6725,9.676,9.6988,9.7051,9.7025,9.7051,9.7102,9.7228,9.7389,9.7302,9.7252,9.7401,9.7437,9.7418,9.7661,9.7899,9.7637,9.6088,9.5899,9.4392,9.2743,9.1753,9.0876,8.9948,8.9825,8.9583,8.9615,8.9641,8.9708,8.9754,8.9754,8.9779,8.979,8.9752,8.9541,8.9309,8.9292,8.8831,8.6901,8.5326,8.364,8.2072,8.1057,8.0143,7.9876,7.9831,7.9819,7.9382,7.8931,7.8713,10.4677,10.4787,10.4751,10.4751,10.4787,10.4787,10.4787,10.4824,10.4787,10.486,10.5004,10.5004,10.5075,10.5144,10.5144,10.5214,10.5285,10.5285,10.532,10.5318,10.5214,10.5214,10.5249,10.5389,10.5354,10.5285,10.5285,10.5285,10.5322,10.5285,10.5283,10.5389,10.5561,10.5528,10.5387,10.5592,10.5696,10.5632,10.5662,10.5762,10.5762,10.5762,10.5762,10.5762,10.5762,10.5762,10.5659,10.4967,10.4533,10.428,10.3051,10.0913,9.8242,9.7008,9.6408,9.6183,9.6237,9.6237,9.6237,9.614,9.6237,9.6237,9.6237,9.6261,9.635,9.6342,9.6372,9.6488,9.6545,9.648,9.6574,9.665,9.6816,9.6925,9.6816,9.6861,9.7062,9.724,9.7056,9.6273,9.6264,9.5554,9.4183,9.3357,9.1925,9.1191,9.0125,8.9104,8.9116,8.902,8.9114,8.9217,8.9307,8.9394,8.9505,8.951,8.9542,8.9413,8.9283,8.8875,8.8142,8.7989,8.748,8.5473,8.4103,8.2437,8.1111,8.0176,7.9819,7.9911,7.9878,7.9804,7.9689,7.9644,7.9667,10.3694,10.3658,10.3658,10.3851,10.4154,10.4154,10.4343,10.4603,10.4603,10.4713,10.4787,10.486,10.486,10.5004,10.4967,10.5003,10.5038,10.4679,10.4715,10.4967,10.4967,10.5003,10.5003,10.4751,10.4787,10.5038,10.4859,10.4606,10.4533,10.4274,10.42,10.4275,10.4386,10.4423,10.4202,10.4497,10.4643,10.4533,10.4606,10.4679,10.4643,10.4643,10.4679,10.4679,10.4787,10.4894,10.4822,10.3898,10.3256,10.3064,10.1402,9.933,9.7024,9.5574,9.5235,9.5632,9.5664,9.57,9.5664,9.5664,9.5632,9.5664,9.5632,9.5727,9.5889,9.592,9.6012,9.6237,9.6237,9.6237,9.6231,9.6372,9.6364,9.6247,9.6364,9.6574,9.6734,9.7005,9.6364,9.5171,9.4726,9.3895,9.2394,9.1392,9.0476,8.9853,8.9033,8.8465,8.8589,8.8706,8.8775,8.8252,8.882,8.8945,8.8693,8.854,8.8386,8.8148,8.8009,8.7692,8.6575,8.5861,8.5068,8.3841,8.2779,8.155,8.0246,7.9577,7.9617,7.9694,7.9716,7.967,7.9622,7.9638,7.9648,10.175,10.1839,10.167,10.2398,10.3134,10.3216,10.3729,10.4269,10.4418,10.4269,10.4195,10.4455,10.4343,10.4455,10.4307,10.4603,10.4457,10.3694,10.3654,10.4271,10.4382,10.453,10.4677,10.3818,10.3898,10.4715,10.3898,10.3431,10.3391,10.2701,10.2405,10.2341,10.2511,10.2666,10.2341,10.2588,10.2468,10.2546,10.2594,10.2546,10.2299,10.2553,10.2594,10.2588,10.2791,10.2991,10.2991,10.2433,10.1842,10.1244,9.9401,9.7192,9.509,9.4482,9.441,9.4445,9.448,9.4516,9.4551,9.4587,9.4656,9.4656,9.4551,9.4829,9.5199,9.5264,9.5463,9.5889,9.6049,9.611,9.6079,9.6073,9.5811,9.5395,9.5717,9.5861,9.5939,9.6284,9.6054,9.4703,9.3462,9.224,9.0925,9.0124,8.9646,8.8742,8.8225,8.8115,8.8175,8.8361,8.7723,8.6953,8.7514,8.8068,8.7798,8.7498,8.7176,8.6778,8.6432,8.5901,8.4616,8.3915,8.3163,8.2009,8.0925,8.0662,7.9414,7.9377,7.9417,7.9477,7.9423,7.9379,7.949,7.9576,7.9614,10.1103,10.1616,10.1706,10.1883,10.2103,10.2182,10.2355,10.2533,10.2575,10.261,10.261,10.261,10.261,10.261,10.2646,10.2653,10.2653,10.2319,10.2312,10.2568,10.261,10.2653,10.2695,10.2405,10.2412,10.2701,10.237,10.2198,10.2154,10.1927,10.1804,10.1848,10.2024,10.2059,10.1936,10.2127,10.2205,10.2119,10.2205,10.2291,10.2291,10.2291,10.2291,10.2162,10.1288,10.0785,10.0785,9.9927,9.9364,9.8853,9.6669,9.4837,9.3989,9.327,9.3072,9.346,9.3722,9.3942,9.3942,9.4303,9.441,9.4446,9.4446,9.4516,9.4691,9.4726,9.4795,9.4967,9.5035,9.5035,9.5035,9.4999,9.4498,9.3495,9.4248,9.4204,9.2284,9.3214,9.3232,9.2069,9.1078,8.9884,8.8503,8.8596,8.8507,8.8198,8.8012,8.8012,8.8033,8.8096,8.7614,8.62,8.7021,8.7279,8.6157,8.5865,8.5698,8.4636,8.4038,8.3408,8.2533,8.209,8.1358,8.0073,7.9412,7.9285,7.9191,7.9192,7.9254,7.9338,7.9273,7.9213,7.9347,7.95,7.9502,9.9975,10.0455,10.0503,10.0775,10.1149,10.1161,10.1379,10.1661,10.1706,10.1706,10.1706,10.1706,10.1706,10.1581,10.0847,10.0741,10.1114,10.1196,10.1344,10.1661,10.1706,10.1706,10.1626,10.1299,10.1334,10.1571,10.1299,10.1196,10.1114,10.0858,10.0668,10.0716,10.0845,10.0858,10.0728,10.0929,10.0975,10.0905,10.0975,10.1033,10.1022,10.1033,10.1068,10.0987,9.998,9.9512,9.9716,9.8366,9.7506,9.7321,9.4859,9.322,9.2858,9.2177,9.2011,9.2356,9.28,9.2994,9.2915,9.3299,9.3526,9.3373,9.3373,9.3411,9.3828,9.3902,9.4086,9.4374,9.4445,9.3478,9.2797,9.2368,9.2082,9.133,9.2043,9.1964,9.0632,9.0903,9.1167,8.9699,8.9026,8.8216,8.7202,8.7182,8.7554,8.7441,8.7576,8.7243,8.6866,8.6732,8.5893,8.4506,8.5424,8.6321,8.4113,8.3751,8.3681,8.2483,8.1601,8.1003,8.0118,7.9598,7.9787,7.8632,7.876,7.8723,7.8648,7.8668,7.9003,7.9063,7.9025,7.9039,7.9187,7.9263,7.9309,9.8295,9.8382,9.8329,9.9135,10.0192,10.0192,10.0668,10.1218,10.139,10.1435,10.1309,10.1355,10.1375,10.0832,9.8858,9.8775,9.9782,9.988,10.0364,10.1053,10.132,10.1526,10.1481,10.0703,10.0703,10.1161,10.0607,10.0241,10.0192,9.9443,9.8923,9.8994,9.9099,9.9028,9.9099,9.9203,9.9028,9.9203,9.9203,9.9081,9.9081,9.9081,9.9099,9.9151,9.8976,9.9134,9.922,9.756,9.6204,9.569,9.3712,9.2286,9.1465,9.1267,9.1277,9.1252,9.1577,9.1593,9.1289,9.1392,9.1443,9.1159,9.1081,9.1505,9.2186,9.2482,9.2873,9.3944,9.355,9.2186,8.9196,8.9212,8.926,8.9011,8.9436,8.9643,8.9388,8.9245,8.8975,8.7737,8.7354,8.6816,8.5917,8.6371,8.6627,8.6523,8.6693,8.6402,8.4981,8.4614,8.3443,8.1994,8.261,8.3899,8.0277,8.0657,8.0791,7.9864,7.9285,7.8731,7.7716,7.7099,7.7459,7.7656,7.8004,7.8172,7.8098,7.8221,7.8489,7.853,7.8493,7.8561,7.8547,7.8878,7.8938,9.7145,9.8006,9.8073,9.8255,9.8629,9.8629,9.8719,9.8963,9.8997,9.8963,9.8997,9.8997,9.7799,9.5866,9.5119,9.4997,9.5494,9.6516,9.7269,9.7795,9.8791,9.9374,9.9629,9.9392,9.9443,9.9613,9.9443,9.9324,9.9272,9.8994,9.8923,9.8923,9.8923,9.8923,9.8923,9.8923,9.8923,9.8923,9.8923,9.8923,9.8923,9.8923,9.8923,9.8923,9.8923,9.8482,9.7509,9.5817,9.4398,9.3221,9.1569,9.0529,9.026,9.0226,9.0226,9.0204,8.9622,8.9191,8.9102,8.8573,8.8273,8.8146,8.8069,8.8365,8.9041,9.0039,9.0392,8.9947,8.9543,8.9172,8.772,8.8038,8.7777,8.6859,8.782,8.7473,8.5704,8.6592,8.6697,8.4958,8.5089,8.5035,8.506,8.5648,8.622,8.6138,8.6291,8.5886,8.4444,8.3886,8.2951,8.0023,8.1168,8.1107,7.8366,7.8743,7.889,7.8014,7.7466,7.7333,7.704,7.6881,7.7007,7.7525,7.7431,7.7617,7.8118,7.7733,7.7662,7.7605,7.7588,7.7647,7.7912,7.7931,7.8053,9.3699,9.4487,9.46,9.4913,9.5476,9.5943,9.6138,9.6172,9.6172,9.6138,9.6118,9.5903,9.4959,9.3377,9.3377,9.3395,9.3533,9.4447,9.4958,9.5183,9.5929,9.6868,9.7743,9.7811,9.8257,9.8889,9.8923,9.8923,9.8923,9.8923,9.8923,9.8923,9.8923,9.8923,9.8923,9.8923,9.8923,9.8923,9.8923,9.8923,9.8923,9.8923,9.8616,9.8036,9.7968,9.7251,9.5682,9.3827,9.2452,9.1569,9.0178,8.9329,8.9329,8.9655,8.956,8.8959,8.8351,8.7735,8.7129,8.6791,8.648,8.6265,8.6265,8.648,8.6904,8.771,8.7571,8.6151,8.6106,8.598,8.5387,8.5517,8.5398,8.4851,8.5307,8.5317,8.3532,8.4531,8.4851,8.3677,8.3683,8.3931,8.4137,8.4635,8.5019,8.5205,8.4916,8.3967,8.2361,8.1798,8.0492,7.8584,7.8452,7.8092,7.6818,7.7025,7.6998,7.6419,7.613,7.613,7.613,7.6261,7.6781,7.7489,7.7915,7.8262,7.8439,7.8522,7.7942,7.7776,7.7703,7.7232,7.7459,7.7521,7.7433,8.9361,8.9425,8.9812,9.0411,9.1658,9.2654,9.3181,9.3253,9.3291,9.3156,9.2781,9.2479,9.2445,9.2657,9.2609,9.2613,9.2855,9.3091,9.3245,9.3245,9.3432,9.4366,9.5882,9.595,9.6923,9.8409,9.8545,9.8545,9.8837,9.8837,9.8923,9.8923,9.8923,9.8923,9.8923,9.8923,9.8923,9.8923,9.8787,9.8719,9.8666,9.8477,9.7727,9.621,9.6124,9.5409,9.3793,9.1807,9.062,9.0351,8.9173,8.8501,8.8568,8.9111,8.8885,8.7659,8.748,8.6775,8.5354,8.5448,8.5286,8.5023,8.4807,8.4997,8.5514,8.5487,8.4439,8.3037,8.3471,8.3568,8.2402,8.2378,8.2755,8.3035,8.3144,8.2978,8.3318,8.3428,8.3428,8.3428,8.3465,8.3428,8.3502,8.3611,8.3612,8.3612,8.2902,8.1686,7.9933,7.8962,7.7848,7.6372,7.5586,7.5372,7.5151,7.5085,7.5186,7.5029,7.5065,7.5278,7.5517,7.5877,7.6552,7.7717,7.8455,7.8817,7.9441,7.972,7.849,7.7352,7.696,7.6861,7.7064,7.7166,7.7048,8.8071,8.9132,8.916,8.9398,8.9668,8.9929,9.0542,9.1369,9.1336,9.0111,8.8365,8.8956,8.9302,8.932,8.9353,8.9405,8.9591,9.0665,9.136,9.1601,9.2646,9.3512,9.4077,9.4111,9.4976,9.6385,9.652,9.7237,9.8367,9.8469,9.861,9.8923,9.8923,9.8923,9.8923,9.8923,9.8923,9.8855,9.7781,9.6821,9.624,9.5017,9.3888,9.2914,9.2827,9.2158,9.0746,9.0152,8.9312,8.8126,8.7726,8.7593,8.7545,8.729,8.6912,8.6637,8.6144,8.5206,8.3807,8.2666,8.1992,8.1862,8.1896,8.2035,8.2301,8.1107,8.0408,8.1095,8.1394,8.1548,8.1624,8.1924,8.2398,8.2749,8.2826,8.2905,8.3318,8.3428,8.3428,8.3428,8.3428,8.3428,8.3428,8.3573,8.3151,8.2057,8.0846,7.9548,7.8199,7.7689,7.6816,7.5633,7.5008,7.4672,7.3995,7.403,7.3899,7.3184,7.4195,7.4928,7.5277,7.6221,7.7272,7.7726,7.797,7.7999,7.7116,7.6688,7.609,7.523,7.5156,7.5134,7.5341,7.5816,7.6146,8.4599,8.5231,8.5262,8.5632,8.6181,8.6213,8.6807,8.7858,8.7337,8.6521,8.57,8.6276,8.6548,8.6581,8.6548,8.6548,8.6581,8.7404,8.7931,8.8094,8.8821,8.9713,9.0551,9.0651,9.1492,9.3077,9.3814,9.4629,9.5586,9.6917,9.7641,9.7952,9.8582,9.8923,9.8923,9.8923,9.8923,9.8855,9.5925,9.3997,9.3343,9.2663,9.1732,9.053,8.9702,8.8654,8.7243,8.6261,8.5322,8.4446,8.4446,8.4467,8.4573,8.4625,8.4395,8.3825,8.3522,8.2646,8.1116,8.0273,7.997,8.0315,8.0359,8.0281,8.0169,7.914,7.8861,7.9677,8.0015,8.0247,8.0597,8.1221,8.1795,8.2165,8.217,8.2402,8.2756,8.3019,8.3132,8.3169,8.3281,8.311,8.2441,8.2443,8.1951,8.0505,7.9656,7.8624,7.74,7.5923,7.454,7.3906,7.3694,7.3459,7.308,7.315,7.3046,7.2587,7.3937,7.4876,7.5155,7.6186,7.7435,7.8315,7.845,7.8142,7.7885,7.6976,7.5863,7.4648,7.4325,7.4254,7.4534,7.4811,7.5056,8.0936,8.0841,8.0841,8.1509,8.2535,8.2535,8.308,8.3908,8.299,8.3232,8.4349,8.4433,8.4548,8.4548,8.4548,8.4548,8.4548,8.4548,8.4548,0.0,8.4548,8.5431,8.6851,8.6884,8.7797,8.944,9.0715,9.1514,9.2011,9.4366,9.5642,9.5898,9.7106,9.7751,9.7925,9.7891,9.7872,9.7698,9.3429,9.086,9.0148,9.0334,8.9666,8.827,8.6582,8.5183,8.4089,8.203,8.0873,8.0873,8.0873,8.083,8.0905,8.1452,8.1287,8.008,7.9928,7.9379,7.8332,7.8218,7.8567,7.9438,7.9563,7.912,7.8313,7.8208,7.8292,7.8531,7.9035,7.9425,7.9563,8.0148,8.0665,8.106,8.1195,8.1479,8.2004,8.2477,8.2644,8.233,8.2706,8.2368,8.0961,8.068,8.0188,7.8816,7.8113,7.7656,7.6073,7.3774,7.2213,7.2219,7.2292,7.2219,7.207,7.2184,7.2184,7.2116,7.3422,7.4453,7.4411,7.5491,7.6861,7.8531,7.8062,7.793,7.7856,7.7321,7.5244,7.3697,7.2837,7.2826,7.3661,7.3254,7.2988,8.0841,8.0841,8.0841,8.0969,8.1224,8.1193,8.132,8.1478,0.0,0.0,0.0,8.4116,8.4548,8.4548,8.4548,8.4548,8.4548,8.4548,8.4548,8.4548,8.4548,8.4709,8.4993,8.4993,8.5882,8.7355,8.768,8.8498,8.9864,9.0417,9.1067,9.1756,9.21,9.2456,9.2964,9.3019,9.2689,9.1828,8.9751,8.8185,8.7141,8.605,8.5082,8.4392,8.2961,8.2189,8.2252,8.0738,7.9946,7.9946,7.9946,7.9403,7.8362,7.7877,7.7094,7.5859,7.5231,7.5439,7.6552,7.6585,7.7209,7.8606,7.872,7.816,7.6764,7.6677,7.7263,7.8436,7.815,7.815,7.8706,7.8894,7.9174,7.9632,8.0247,8.0779,8.1202,8.1889,8.162,8.0725,8.068,8.0421,7.9022,7.8921,7.8569,7.7233,7.629,7.5308,7.3845,7.2609,7.1735,7.1811,7.1773,7.1655,7.1179,7.1179,7.102,7.0481,7.1778,7.2835,7.2901,7.3843,7.4978,7.5636,7.4465,7.3548,7.2432,7.1444,6.9646,6.8347,6.8464,6.9267,7.0546,6.982,6.906,8.0841,0.0,8.0841,8.0841,0.0,8.0841,8.0841,8.0841,8.0841,8.1224,8.1854,8.2442,8.2716,8.2716,8.2716,8.2655,8.2716,8.2716,8.2685,8.2655,8.2716,8.2716,8.2655,8.2716,8.3094,8.3816,8.4668,8.5434,8.6285,8.7823,8.8878,8.9417,9.0172,9.0852,9.1313,9.1402,8.9763,8.6587,8.5789,8.4995,8.4091,8.3519,8.3174,8.2842,0.0,0.0,0.0,0.0,0.0,0.0,0.0,0.0,0.0,0.0,0.0,7.2584,7.101,7.0395,7.1184,7.1249,7.2103,7.385,7.4108,7.3704,7.2542,7.3312,7.4489,7.5957,7.6268,7.6367,7.6562,7.6801,7.6916,7.6498,7.6796,7.7234,7.7673,7.8231,7.8267,7.7583,7.7736,7.7658,7.6694,7.6377,7.5752,7.4858,7.4011,7.3115,7.2173,7.1151,7.0455,7.0455,7.0503,7.0381,7.0024,7.0116,7.0141,6.996,7.1073,7.211,7.2156,7.2731,7.3273,7.3392,7.2292,7.0825,6.9555,6.8727,6.783,6.6651,6.6708,6.7286,6.7119,6.6316,6.5761,8.0841,8.0841,8.0841,8.0841,8.078,8.0289,8.0074,8.0074,8.0074,8.0074,8.0074,8.0074,8.0104,8.0104,8.035,8.0473,8.0504,8.0719,8.0841,8.0841,8.0841,8.0841,8.0841,8.0841,8.0841,8.0969,8.2134,8.2777,8.2777,8.5178,8.6573,8.6863,8.8147,8.9063,8.9501,0.0,0.0,0.0,8.2597,8.2259,8.1666,8.201,8.2135,8.2197,8.061,0.0,7.9864,7.828,7.6913,7.5883,7.5541,0.0,0.0,0.0,0.0,0.0,0.0,0.0,0.0,0.0,0.0,0.0,6.8106,6.7917,6.8158,6.975,7.1514,7.3191,7.3945,7.4212,7.403,7.4214,7.401,7.3271,7.3004,7.3202,7.401,7.4526,7.4676,7.4562,7.4812,7.4783,7.4128,7.3545,7.3063,7.2641,7.1845,7.1229,7.08,6.9491,6.8613,6.8555,6.8738,6.8871,6.8904,6.9047,6.9167,6.9079,7.0174,7.0646,7.0327,7.027,7.0392,7.0197,6.9411,6.7922,6.7001,6.6844,6.6123,6.5233,6.5153,6.5061,6.4308,6.3837,6.3904,8.0841,8.0841,8.0841,8.0841,8.0657,7.8292,7.7309,7.7309,7.7309,7.7309,7.7309,7.7309,7.7309,7.7371,7.8599,7.9152,7.9244,8.035,8.0841,8.0841,8.0841,8.0841,8.0841,8.0841,8.0841,8.0841,8.1097,8.113,8.1161,8.1507,8.2041,8.2632,8.2789,8.3438,8.4286,8.35,8.2664,8.1979,8.1697,8.1413,8.0969,8.1033,8.1255,8.1508,8.0115,7.9527,7.9772,7.7407,7.5976,7.5759,7.467,7.3364,7.2051,6.9246,6.6597,0.0,6.1308,0.0,0.0,0.0,0.0,0.0,0.0,0.0,0.0,6.7609,6.9599,7.1533,7.1578,7.1578,7.178,7.0517,7.0149,7.1119,7.0607,7.083,7.2523,7.3406,7.3504,7.2585,7.2816,7.2507,7.1251,7.1156,7.1281,7.1195,7.0484,6.9638,6.8738,6.7802,6.7103,6.6866,6.718,6.7521,6.777,6.7829,6.7567,6.677,6.685,6.639,6.528,6.4996,6.4646,6.3835,6.3299,6.2731,6.2817,6.2462,6.2161,6.2132,6.1792,6.188,6.2837,6.3589,6.4379,7.8599,7.8599,7.8599,7.7941,7.6862,7.5689,7.5366,7.5709,7.5709,7.5926,7.6358,7.6512,7.6665,7.6849,7.7278,7.7616,7.777,7.8323,7.8569,7.8599,7.8599,7.8599,7.8599,7.8569,7.8999,7.9766,7.9766,8.0135,8.0811,8.0841,8.1097,8.1602,8.1602,8.145,8.1134,8.0673,8.0797,8.1571,8.1507,8.0967,8.0,7.9348,7.912,7.9282,7.8644,7.8076,7.7671,7.6492,7.5161,7.3739,7.3074,7.1471,6.8684,6.5301,6.2224,0.0,0.0,0.0,0.0,0.0,0.0,0.0,0.0,0.0,0.0,0.0,6.5857,0.0,6.8326,6.8414,6.6146,6.6583,6.6611,6.5745,6.5312,6.5502,6.6639,6.7796,6.8378,6.807,6.877,6.9415,6.9586,6.9425,6.9477,7.0231,6.8872,6.7617,6.6977,6.6434,6.5951,6.5853,6.5839,6.5954,6.6291,6.6356,6.5959,6.4864,6.4579,6.4127,6.2718,6.1842,6.1261,6.0962,6.01,5.9489,5.9823,6.0184,6.0419,6.0171,6.0062,6.0578,6.1714,6.212,6.1998,7.6051,7.5899,7.38,7.2496,7.1844,7.2068,7.2862,7.3994,7.4274,7.4707,7.529,7.5473,7.5654,7.5866,7.5961,7.6144,7.6357,7.6664,7.6756,7.6756,7.6756,7.6756,7.6756,7.6756,7.7371,7.8354,7.7891,7.8596,8.0319,7.9515,7.9672,8.0792,8.0325,7.9554,7.8477,7.8505,7.9147,8.0156,8.0398,8.0031,7.8913,7.8046,7.7539,7.7539,7.7539,7.7046,7.5835,7.551,7.427,7.2055,7.0959,6.8953,6.5619,6.1409,0.0,0.0,0.0,0.0,0.0,0.0,0.0,0.0,0.0,5.4171,5.5077,0.0,6.1294,0.0,6.4303,6.524,6.2809,6.371,0.0,0.0,6.066,6.0473,6.102,6.2323,6.3326,6.3603,6.4884,6.632,6.7819,6.7455,6.7525,6.8652,6.7212,6.5831,6.5583,6.5039,6.4521,6.447,6.4256,6.4174,6.4409,6.4542,6.4234,6.3038,6.2865,6.2375,6.1087,5.9922,5.9249,5.9205,5.8477,5.8036,5.8289,5.9198,5.9587,5.8633,5.9117,6.0029,6.0953,6.0641,6.0175,7.4092,7.3405,6.5269,6.3488,6.5973,6.6883,6.8898,7.1626,7.2576,7.3105,7.3105,7.3163,7.3163,7.3282,7.4453,0.0,7.5008,7.6234,7.6695,7.6756,7.6756,7.6756,7.6756,7.6756,7.6849,7.6941,7.4894,7.5716,7.8813,7.5746,7.5776,7.8968,7.7212,7.6105,7.5761,7.6204,7.6505,7.6654,7.7452,7.7842,7.7675,7.7637,7.7539,7.7539,7.7539,7.6978,7.5806,7.45,7.3231,7.1908,6.8242,6.5474,6.3686,0.0,0.0,0.0,0.0,0.0,0.0,0.0,0.0,0.0,0.0,0.0,0.0,0.0,0.0,0.0,5.8924,0.0,6.4917,6.2908,0.0,0.0,0.0,5.7139,5.7672,5.902,6.0043,6.0578,0.0,0.0,6.4909,0.0,6.5139,6.6066,6.5521,6.4908,6.4654,6.3305,6.2287,6.2371,6.2174,6.206,6.2144,6.239,6.2277,6.1509,6.1406,6.0821,5.9405,5.8992,5.8613,5.751,5.7816,5.8268,5.8518,5.924,5.9317,5.7016,5.8037,5.96,6.0371,6.0118,5.978,6.5346,6.0959,5.7048,5.6476,5.8118,5.8366,6.0823,6.4544,6.4801,6.638,6.8774,6.8945,6.8722,6.8369,7.022,0.0,0.0,0.0,7.2165,7.2899,7.2899,7.3417,7.4391,7.4422,7.4821,7.5529,7.4708,7.584,7.8876,7.6543,7.4164,7.1563,0.0,0.0,7.1782,7.2739,7.3992,7.5584,7.689,7.7224,7.6629,7.6588,7.6308,7.5643,7.5571,7.4623,7.2738,7.2066,7.0037,6.6314,6.3726,6.0305,0.0,0.0,0.0,0.0,0.0,0.0,0.0,0.0,0.0,0.0,0.0,4.5186,4.6552,0.0,0.0,0.0,5.2087,5.361,5.7175,5.8681,0.0,0.0,0.0,0.0,0.0,0.0,0.0,5.7988,6.0191,6.2295,6.3973,6.3061,6.2894,6.4745,6.3561,6.2699,6.304,0.0,6.105,6.1247,6.0457,5.9943,6.0343,6.0229,5.9942,5.9653,5.9229,5.8488,5.7153,5.7007,5.6917,5.6489,5.6343,5.6393,5.6631,5.7512,5.7584,5.5865,5.6166,5.6459,5.5747,5.5926,5.5981,5.5779,0.0,0.0,0.0,0.0,5.0944,5.4158,5.9331,5.9398,6.175,6.5587,6.5872,0.0,0.0,0.0,0.0,0.0,0.0,6.7782,6.8354,6.8889,6.9727,7.0905,7.0735,7.1224,7.2314,7.1601,7.2548,7.4952,7.252,6.8945,6.4574,0.0,0.0,0.0,0.0,7.1232,7.3823,7.5715,7.6279,7.5515,7.5028,7.4377,7.3571,7.3236,7.1893,6.9489,6.9138,6.648,6.1239,5.8689,0.0,0.0,0.0,0.0,0.0,0.0,0.0,0.0,0.0,0.0,0.0,0.0,0.0,0.0,0.0,0.0,0.0,0.0,0.0,5.097,5.4667,5.6399,0.0,0.0,0.0,0.0,0.0,0.0,0.0,0.0,0.0,6.1002,6.0699,6.1057,0.0,0.0,6.1427,6.1497,6.0515,5.9825,5.9883,0.0,0.0,0.0,5.7479,5.7121,5.7034,5.6703,5.6195,5.5336,5.5117,5.5089,5.5115,5.5005,5.4502,5.3424,5.3606,5.3573,5.2784,5.255,5.2173,5.0948,5.0842,5.0826,0.0,0.0,0.0,0.0,0.0,0.0,0.0,0.0,5.836,6.0743,0.0,6.4505,0.0,0.0,0.0,0.0,0.0,0.0,0.0,0.0,6.5275,6.6154,6.6062,6.5626,6.5766,6.6356,6.3933,6.3859,6.5645,6.0751,0.0,0.0,0.0,0.0,0.0,0.0,6.8013,7.0661,7.3133,7.4332,7.4259,7.27,7.1847,7.1744,7.0651,6.9003,6.668,6.5559,6.2793,5.7851,5.3057,0.0,0.0,0.0,0.0,0.0,0.0,0.0,0.0,0.0,0.0,0.0,0.0,0.0,0.0,0.0,0.0,0.0,0.0,0.0,0.0,5.1683,0.0,0.0,0.0,0.0,0.0,0.0,0.0,0.0,0.0,0.0,5.4662,5.7616,5.9766,5.9034,0.0,0.0,0.0,0.0,5.8352,5.7724,5.7055,5.6012,5.4316,5.401,5.3862,5.3479,0.0,0.0,5.4226,5.3957,5.3517,5.3231,5.3871,5.3206,4.8259,4.7338,4.7105,4.6947,4.675,4.6643,4.6831,4.5863,4.5227,0.0,0.0,0.0,0.0,0.0,0.0,0.0,0.0,0.0,0.0,0.0,5.8647,0.0,0.0,0.0,0.0,0.0,0.0,0.0,0.0,5.896,5.9783,6.0711,6.0718,6.0823,0.0,6.0085,5.6919,0.0,0.0,0.0,0.0,0.0,0.0,0.0,0.0,6.4375,6.6736,6.986,7.1305,7.0952,6.944,6.8685,6.8658,6.7392,6.525,6.2246,6.0579,5.6905,0.0,0.0,0.0,0.0,0.0,0.0,0.0,0.0,0.0,0.0,0.0,0.0,0.0,0.0,0.0,0.0,0.0,0.0,0.0,0.0,0.0,0.0,0.0,5.2221,0.0,0.0,0.0,0.0,0.0,0.0,0.0,0.0,0.0,5.0477,5.3192,5.577,5.7108,5.7229,5.7699,5.908,0.0,0.0,0.0,0.0,0.0,0.0,0.0,5.1644,5.0844,5.063,5.0559,5.0679,5.0161,4.9684,4.9571,0.0,0.0,4.4045,4.378,4.3815,4.2444,4.2075,4.1584,4.0396,4.002,3.9923,0.0,0.0,0.0,0.0,0.0,0.0,0.0,0.0,0.0,4.501,5.0377,0.0,0.0,0.0,0.0,0.0,0.0,0.0,0.0,0.0,0.0,0.0,5.4706,5.4656,0.0,0.0,0.0,0.0,0.0,0.0,0.0,0.0,0.0,0.0,0.0,0.0,6.0646,6.3642,6.6861,6.8238,6.7708,6.6258,6.551,6.5484,6.4147,6.2148,5.9435,0.0,0.0,0.0,0.0,0.0,0.0,0.0,0.0,0.0,0.0,0.0,0.0,0.0,0.0,0.0,0.0,0.0,0.0,0.0,0.0,0.0,0.0,0.0,0.0,0.0,4.9746,0.0,0.0,0.0,0.0,0.0,0.0,0.0,0.0,0.0,0.0,0.0,5.1641,5.3948,5.4594,5.5414,5.6924,5.6406,5.5749,0.0,0.0,0.0,0.0,0.0,0.0,0.0,0.0,0.0,0.0,0.0,0.0,0.0,0.0,4.2339,3.9728,3.9802,3.9823,3.8404,0.0,0.0,0.0,0.0,0.0,0.0,0.0,0.0,0.0,0.0,0.0,0.0,0.0,0.0,0.0,0.0,0.0,0.0,4.3669,0.0,0.0,0.0,0.0,0.0,0.0,0.0,0.0,0.0,0.0,0.0,0.0,0.0,0.0,0.0,0.0,0.0,0.0,0.0,0.0,0.0,0.0,0.0,6.1268,6.3976,6.5204,6.4831,6.3152,6.2301,6.2276,6.1024,5.9603,5.8091,0.0,0.0,0.0,0.0,0.0,0.0,0.0,0.0,0.0,0.0,0.0,0.0,0.0,0.0,0.0,0.0,0.0,0.0,0.0,0.0,0.0,0.0,0.0,0.0,0.0,0.0,4.4713,4.6616,4.7794,0.0,0.0,0.0,0.0,0.0,0.0,0.0,0.0,0.0,0.0,5.2844,5.4892,5.382,5.4362,5.403,5.173,5.0957,4.9816,4.7396,4.7033,4.6643,0.0,0.0,0.0,0.0,0.0,0.0,0.0,0.0,0.0,0.0,0.0,0.0,0.0,0.0,0.0,0.0,0.0,0.0,0.0,0.0,0.0,0.0,0.0,0.0,0.0,0.0,0.0,0.0,0.0,0.0,0.0,0.0,0.0,0.0,0.0,0.0,0.0,0.0,0.0,0.0,0.0,0.0,0.0,0.0,0.0,0.0,0.0,0.0,0.0,0.0,0.0,0.0,0.0,0.0,5.4217,5.7688,6.0551,6.1808,6.141,5.9812,5.8978,5.893,5.638,5.4154,0.0,0.0,0.0,0.0,0.0,0.0,0.0,0.0,0.0,0.0,0.0,0.0,0.0,0.0,0.0,0.0,0.0,0.0,0.0,0.0,0.0,0.0,0.0,0.0,0.0,0.0,0.0,0.0,4.7897,4.7811,4.4657,0.0,0.0,0.0,0.0,0.0,0.0,0.0,0.0,0.0,0.0,5.1916,5.216,5.251,5.2167,5.0475,4.8858,4.7285,4.5541,4.5163,4.4531,4.2983,0.0,0.0,0.0,0.0,0.0,0.0,0.0,0.0,0.0,0.0,0.0,0.0,0.0,0.0,0.0,0.0,0.0,0.0,0.0,0.0,0.0,0.0,0.0,0.0,0.0,0.0,0.0,0.0,0.0,0.0,0.0,0.0,0.0,0.0,0.0,0.0,0.0,0.0,0.0,0.0,0.0,0.0,0.0,0.0,0.0,0.0,0.0,0.0,0.0,0.0,0.0,0.0,0.0,5.158,5.4891,5.7417,5.8571,5.8173,5.7211,5.641,5.5733,5.3442,5.0782,0.0,0.0,0.0,0.0,0.0,0.0,0.0,0.0,0.0,0.0,0.0,0.0,0.0,0.0,0.0,0.0,0.0,0.0,0.0,0.0,0.0,0.0,0.0,0.0,0.0,0.0,0.0,0.0,4.6047,4.6191,4.361,0.0,0.0,0.0,0.0,0.0,0.0,0.0,0.0,0.0,0.0,4.8699,4.966,5.0485,0.0,0.0,4.6897,4.5345,4.3941,4.332,4.2618,4.1213,3.8963,0.0,0.0,0.0,0.0,0.0,0.0,0.0,0.0,0.0,0.0,0.0,0.0,0.0,0.0,0.0,0.0,0.0,0.0,0.0,0.0,0.0,0.0,0.0,0.0,0.0,0.0,0.0,0.0,0.0,0.0,0.0,0.0,0.0,0.0,0.0,0.0,0.0,0.0,0.0,0.0,0.0,0.0,0.0,0.0,0.0,0.0,0.0,0.0,0.0,0.0,0.0,0.0,0.0,5.2585,5.4803,5.5782,5.5265,5.5265,5.4463,5.2742,5.1572,4.8712,0.0,0.0,0.0,0.0,0.0,0.0,0.0,0.0,0.0,0.0,0.0,0.0,0.0,0.0,0.0,0.0,0.0,0.0,0.0,0.0,0.0,0.0,0.0,0.0,0.0,0.0,0.0,0.0,0.0,0.0,0.0,0.0,0.0,0.0,0.0,0.0,0.0,0.0,0.0,0.0,0.0,4.5577,4.6912,4.8472,4.8648,0.0,0.0,4.4005,4.261,4.1781,4.099,4.0032,0.0,0.0,0.0,0.0,0.0,0.0,0.0,0.0,0.0,0.0,0.0,0.0,0.0,0.0,0.0,0.0,0.0,0.0,0.0,0.0,0.0,0.0,0.0,0.0,0.0,0.0,0.0,0.0,0.0,0.0,0.0,0.0,0.0,0.0,0.0,0.0,0.0,0.0,0.0,0.0,0.0,0.0,0.0,0.0,0.0,0.0,0.0,0.0,0.0,0.0,0.0,0.0,0.0,0.0,5.0953,5.4022,5.4908,5.3555,5.3555,5.264,5.0894,4.786,0.0,0.0,0.0,0.0,0.0,0.0,0.0,0.0,0.0,0.0,0.0,0.0,0.0,0.0,0.0,0.0,0.0,0.0,0.0,0.0,0.0,0.0,0.0,0.0,0.0,0.0,0.0,3.6304,0.0,0.0,0.0,0.0,0.0,0.0,0.0,0.0,0.0,0.0,0.0,0.0,0.0,0.0,4.5891,4.7191,4.8188,4.8188,0.0,0.0,4.3577,4.2935,4.1438,3.9948,0.0,0.0,0.0,0.0,0.0,0.0,0.0,0.0,0.0,0.0,0.0,0.0,0.0,0.0,0.0,0.0,0.0,0.0,0.0,0.0,0.0,0.0,0.0,0.0,0.0,0.0,0.0,0.0,0.0,0.0,0.0,0.0,0.0,0.0,0.0,0.0,0.0,0.0,0.0,0.0,0.0,0.0,0.0,0.0,0.0,0.0,0.0,0.0,0.0,0.0,0.0,0.0,0.0,0.0,4.4855,4.8376,5.1535,5.2509,5.123,5.1014,5.0037,4.8201,4.5252,4.1965,0.0,0.0,0.0,0.0,0.0,0.0,0.0,0.0,0.0,0.0,0.0,0.0,0.0,0.0,0.0,0.0,0.0,0.0,0.0,0.0,0.0,0.0,0.0,0.0,0.0,0.0,0.0,0.0,0.0,0.0,0.0,0.0,0.0,0.0,0.0,0.0,0.0,0.0,0.0,0.0,0.0,0.0,4.6254,4.7248,0.0,0.0,0.0,4.2481,4.1607,0.0,0.0,0.0,0.0,0.0,0.0,0.0,0.0,0.0,0.0,0.0,0.0,0.0,0.0,0.0,0.0,0.0,0.0,0.0,0.0,0.0,0.0,0.0,0.0,0.0,0.0,0.0,0.0,0.0,0.0,0.0,0.0,0.0,0.0,0.0,0.0,0.0,0.0,0.0,0.0,0.0,0.0,0.0,0.0,0.0,0.0,0.0,0.0,0.0,0.0,0.0,0.0,0.0,0.0,0.0,0.0,0.0,4.5452,4.83,4.9357,4.8502,4.8128,4.6994,4.5204,4.3136,3.9616,0.0,0.0,0.0,0.0,0.0,0.0,0.0,0.0,0.0,0.0,0.0,0.0,0.0,0.0,0.0,0.0,0.0,0.0,0.0,0.0,0.0,0.0,0.0,0.0,0.0,0.0,0.0,0.0,0.0,0.0,0.0,0.0,0.0,0.0,0.0,0.0,0.0,0.0,0.0,0.0,0.0,4.3612,4.5046,4.5944,4.5681,0.0,0.0,4.1154,3.9934,3.8429,0.0,0.0,0.0,0.0,0.0,0.0,0.0,0.0,0.0,0.0,0.0,0.0,0.0,0.0,0.0,0.0,0.0,0.0,0.0,0.0,0.0,0.0,0.0,0.0,0.0,0.0,0.0,0.0,0.0,0.0,0.0,0.0,0.0,0.0,0.0,0.0,0.0,0.0,0.0,0.0,0.0,0.0,0.0,0.0,0.0,0.0,0.0,0.0,0.0,0.0,0.0,0.0,0.0,0.0,0.0,0.0,4.3262,4.6051,4.6843,4.5461,4.5029,4.4017,4.2108,4.0204,3.7764,0.0,0.0,0.0,0.0,0.0,0.0,0.0,0.0,0.0,0.0,0.0,0.0,0.0,0.0,0.0,0.0,0.0,0.0,0.0,0.0,0.0,0.0,0.0,0.0,0.0,0.0,0.0,0.0,0.0,0.0,0.0,0.0,0.0,0.0,0.0,0.0,0.0,0.0,0.0,0.0,0.0,4.2813,4.5486,4.4918,0.0,0.0,0.0,0.0,4.0294,3.8477,0.0,0.0,0.0,0.0,0.0,0.0,0.0,0.0,0.0,0.0,0.0,0.0,0.0,0.0,0.0,0.0,0.0,0.0,0.0,0.0,0.0,0.0,0.0,0.0,0.0,0.0,0.0,0.0,0.0,0.0,0.0,0.0,0.0,0.0,0.0,0.0,0.0,0.0,0.0,0.0,0.0,0.0,0.0,0.0,0.0,0.0,0.0,0.0,0.0,0.0,0.0,0.0,0.0,0.0,0.0,0.0,4.031,4.281,4.3794,4.3155,4.2292,4.1302,4.0346,3.8786,3.6489,0.0,0.0,0.0,0.0,0.0,0.0,0.0,0.0,0.0,0.0,0.0,0.0,0.0,0.0,0.0,0.0,0.0,0.0,0.0,0.0,0.0,0.0,0.0,0.0,0.0,0.0,0.0,0.0,0.0,0.0,0.0,0.0,0.0,0.0,0.0,0.0,0.0,0.0,0.0,0.0,4.3291,4.336,4.4898,0.0,0.0,0.0,0.0,0.0,0.0,3.9201,3.7781,0.0,0.0,0.0,0.0,0.0,0.0,0.0,0.0,0.0,0.0,0.0,0.0,0.0,0.0,0.0,0.0,0.0,0.0,0.0,0.0,0.0,0.0,0.0,0.0,0.0,0.0,0.0,0.0,0.0,0.0,0.0,0.0,0.0,0.0,0.0,0.0,0.0,0.0,0.0,0.0,0.0,0.0,0.0,0.0,0.0,0.0,0.0,0.0,0.0,0.0,0.0,0.0,0.0,0.0,0.0,3.7402,3.9346,4.0631,4.1121,3.9858,3.9112,3.8906,3.7929,3.5549,3.1866,0.0,0.0,0.0,0.0,0.0,0.0,0.0,0.0,0.0,0.0,0.0,0.0,0.0,0.0,0.0,0.0,0.0,0.0,0.0,0.0,0.0,0.0,0.0,0.0,0.0,0.0,0.0,0.0,0.0,0.0,0.0,0.0,0.0,0.0,0.0,0.0,0.0,0.0,0.0,4.4341,4.4257,0.0,0.0,0.0,0.0,0.0,0.0,0.0,0.0,3.9135,0.0,0.0,0.0,0.0,0.0,0.0,0.0,0.0,0.0,0.0,0.0,0.0,0.0,0.0,0.0,0.0,0.0,0.0,0.0,0.0,0.0,0.0,0.0,0.0,0.0,0.0,0.0,0.0,0.0,0.0,0.0,0.0,0.0,0.0,0.0,0.0,0.0,0.0,0.0,0.0,0.0,0.0,0.0,0.0,0.0,0.0,0.0,0.0,0.0,0.0,0.0,0.0,0.0,0.0,0.0,0.0,3.6798,3.7934,3.8604,3.8141,3.7489,3.6846,3.661,3.4771,3.1036,0.0,0.0,0.0,0.0,0.0,0.0,0.0,0.0,0.0,0.0,0.0,0.0,0.0,0.0,0.0,0.0,0.0,0.0,0.0,0.0,0.0,0.0,0.0,0.0,0.0,0.0,0.0,0.0,0.0,0.0,0.0,0.0,0.0,0.0,0.0,0.0,0.0,0.0,4.1832,4.3297,0.0,0.0,0.0,0.0,0.0,0.0,0.0,0.0,4.0121,0.0,0.0,0.0,0.0,0.0,0.0,0.0,0.0,0.0,0.0,0.0,0.0,0.0,0.0,0.0,0.0,0.0,0.0,0.0,0.0,0.0,0.0,0.0,0.0,0.0,0.0,0.0,0.0,0.0,0.0,0.0,0.0,0.0,0.0,0.0,0.0,0.0,0.0,0.0,0.0,0.0,0.0,0.0,0.0,0.0,0.0,0.0,0.0,0.0,0.0,0.0,0.0,0.0,0.0,0.0,0.0,0.0,0.0,3.6416,3.7288,3.6686,3.6129,3.5772,3.5006,3.3241,0.0,0.0,0.0,0.0,0.0,0.0,0.0,0.0,0.0,0.0,0.0,0.0,0.0,0.0,0.0,0.0,0.0,0.0,0.0,0.0,0.0,0.0,0.0,0.0,0.0,0.0,0.0,0.0,0.0,0.0,0.0,0.0,0.0,0.0,0.0,0.0,0.0,0.0,0.0,0.0,0.0,0.0,0.0,0.0,0.0,0.0,0.0,0.0,0.0,0.0,0.0,0.0,0.0,0.0,0.0,0.0,0.0,0.0,0.0,0.0,0.0,0.0,0.0,0.0,0.0,0.0,0.0,0.0,0.0,0.0,0.0,0.0,0.0,0.0,0.0,0.0,0.0,0.0,0.0,0.0,0.0,0.0,0.0,0.0,0.0,0.0,0.0,0.0,0.0,0.0,0.0,0.0,0.0,0.0,0.0,0.0,0.0,0.0,0.0,0.0,0.0,0.0,0.0,0.0,0.0,0.0,0.0,0.0,3.5567,3.6322,3.5837,3.5365,3.4898,3.3185,3.123,0.0,0.0,0.0,0.0,0.0,0.0,0.0,0.0,0.0,0.0,0.0,0.0,0.0,0.0,0.0,0.0,0.0,0.0,0.0,0.0,0.0,0.0,0.0,0.0,0.0,0.0,0.0,0.0,0.0,0.0,0.0,0.0,0.0,0.0,0.0,0.0,0.0,0.0,0.0,0.0,0.0,0.0,0.0,0.0,0.0,0.0,0.0,0.0,4.5674,0.0,0.0,0.0,0.0,0.0,0.0,0.0,0.0,0.0,0.0,0.0,0.0,0.0,0.0,0.0,0.0,0.0,0.0,0.0,0.0,0.0,0.0,0.0,0.0,0.0,0.0,0.0,0.0,0.0,0.0,0.0,0.0,0.0,0.0,0.0,0.0,0.0,0.0,0.0,0.0,0.0,0.0,0.0,0.0,0.0,0.0,0.0,0.0,0.0,0.0,0.0,0.0,0.0,0.0,0.0,0.0,0.0,0.0,0.0,3.5097,3.5326,3.617,3.5771,3.4149,3.0813,2.8732,0.0,0.0,0.0,0.0,0.0,0.0,0.0,0.0,0.0,0.0,0.0,0.0,0.0,0.0,0.0,0.0,0.0,0.0,0.0,0.0,0.0,0.0,0.0,0.0,0.0,0.0,0.0,0.0,0.0,0.0,0.0,0.0,0.0,0.0,0.0,0.0,0.0,0.0,0.0,0.0,0.0,0.0,0.0,0.0,0.0,0.0,0.0,0.0,0.0,0.0,0.0,0.0,0.0,0.0,0.0,0.0,0.0,0.0,0.0,0.0,0.0,0.0,0.0,0.0,0.0,0.0,0.0,0.0,0.0,0.0,0.0,0.0,0.0,0.0,0.0,0.0,0.0,0.0,0.0,0.0,0.0,0.0,0.0,0.0,0.0,0.0,0.0,0.0,0.0,0.0,0.0,0.0,0.0,0.0,0.0,0.0,0.0,0.0,0.0,0.0,0.0,0.0,0.0,0.0,0.0,0.0,0.0,0.0,3.5072,3.5159,3.4597,3.4144,3.3824,3.1641,3.0124,0.0,0.0,0.0,0.0,0.0,0.0,0.0,0.0,0.0,0.0,0.0,0.0,0.0,0.0,0.0,0.0,0.0,0.0,0.0,0.0,0.0,0.0,0.0,0.0,0.0,0.0,0.0,0.0,0.0,0.0,0.0,0.0,0.0,0.0,0.0,0.0,0.0,0.0,0.0,0.0,0.0,0.0,0.0,0.0,0.0,0.0,0.0,0.0,0.0,0.0,0.0,0.0,0.0,0.0,0.0,0.0,0.0,0.0,0.0,0.0,0.0,0.0,0.0,0.0,0.0,0.0,0.0,0.0,0.0,0.0,0.0,0.0,0.0,0.0,0.0,0.0,0.0,0.0,0.0,0.0,0.0,0.0,0.0,0.0,0.0,0.0,0.0,0.0,0.0,0.0,0.0,0.0,0.0,0.0,0.0,0.0,0.0,0.0,0.0,0.0,0.0,0.0,0.0,0.0,0.0,0.0,0.0,0.0,0.0,3.5175,3.41,3.3717,3.4107,3.2744,3.1377,0.0,0.0,0.0,0.0,0.0,0.0,0.0,0.0,0.0,0.0,0.0,0.0,0.0,0.0,0.0,0.0,0.0,0.0,0.0,0.0,0.0,0.0,0.0,0.0,0.0,0.0,0.0,0.0,0.0,0.0,0.0,0.0,0.0,0.0,0.0,0.0,0.0,0.0,0.0,0.0,0.0,0.0,0.0,0.0,0.0,0.0,0.0,0.0,0.0,0.0,0.0,0.0,0.0,0.0,0.0,0.0,0.0,0.0,0.0,0.0,0.0,0.0,0.0,0.0,0.0,0.0,0.0,0.0,0.0,0.0,0.0,0.0,0.0,0.0,0.0,0.0,0.0,0.0,0.0,0.0,0.0,0.0,0.0,0.0,0.0,0.0,0.0,0.0,0.0,0.0,0.0,0.0,0.0,0.0,0.0,0.0,0.0,0.0,0.0,0.0,0.0,0.0,0.0,0.0,0.0,0.0,0.0,0.0,0.0,3.5378,3.5858,3.5934,3.559,3.3577,3.1272,0.0,0.0,0.0,0.0,0.0,0.0,0.0,0.0,0.0,0.0,0.0,0.0,0.0,0.0,0.0,0.0,0.0,0.0,0.0,0.0,0.0,0.0,0.0,0.0,0.0,0.0,0.0,0.0,0.0,0.0,0.0,0.0,0.0,0.0,0.0,0.0,0.0,0.0,0.0,0.0,0.0,0.0,0.0,0.0,0.0,0.0,0.0,0.0,0.0,0.0,0.0,0.0,0.0,0.0,0.0,0.0,0.0,0.0,0.0,0.0,0.0,0.0,0.0,0.0,0.0,0.0,0.0,0.0,0.0,0.0,0.0,0.0,0.0,0.0,0.0,0.0,0.0,0.0,0.0,0.0,0.0,0.0,0.0,0.0,0.0,0.0,0.0,0.0,0.0,0.0,0.0,0.0,0.0,0.0,0.0,0.0,0.0,0.0,0.0,0.0,0.0,0.0,0.0,0.0,0.0,0.0,0.0,0.0,0.0,3.7347,3.7015,3.6606,3.6124,3.4842,3.3458,3.1892,0.0,0.0,0.0,0.0,0.0,0.0,0.0,0.0,0.0,0.0,0.0,0.0,0.0,0.0,0.0,0.0,0.0,0.0,0.0,0.0,0.0,0.0,0.0,0.0,0.0,0.0,0.0,0.0,0.0,0.0,0.0,0.0,0.0,0.0,0.0,0.0,0.0,0.0,0.0,0.0,0.0,0.0,0.0,0.0,0.0,0.0,0.0,0.0,0.0,0.0,0.0,0.0,0.0,0.0,0.0,0.0,0.0,0.0,0.0,0.0,0.0,0.0,0.0,0.0,0.0,0.0,0.0,0.0,0.0,0.0,0.0,0.0,0.0,0.0,0.0,0.0,0.0,0.0,0.0,0.0,0.0,0.0,0.0,0.0,0.0,0.0,0.0,0.0,0.0,0.0,0.0,0.0,0.0,0.0,0.0,0.0,0.0,0.0,0.0,0.0,0.0,0.0,0.0,0.0,0.0,0.0,0.0,0.0,3.9249,3.8793,3.8168,3.7407,3.6884,3.5863,0.0,0.0,0.0,0.0,0.0,0.0,0.0,0.0,0.0,0.0,0.0,0.0,0.0,0.0,0.0,0.0,0.0,0.0,0.0,0.0,0.0,0.0,0.0,0.0,0.0,0.0,0.0,0.0,0.0,0.0,0.0,0.0,0.0,0.0,0.0,0.0,0.0,0.0,0.0,0.0,0.0,0.0,0.0,0.0,0.0,0.0,0.0,0.0,0.0,0.0,0.0,0.0,0.0,0.0,0.0,0.0,0.0,0.0,0.0,0.0,0.0,0.0,0.0,0.0,0.0,0.0,0.0,0.0,0.0,0.0,0.0,0.0,0.0,0.0,0.0,0.0,0.0,0.0,0.0,0.0,0.0,0.0,0.0,0.0,0.0,0.0,0.0,0.0,0.0,0.0,0.0,0.0,0.0,0.0,0.0,0.0,0.0,0.0,0.0,0.0,0.0,0.0,0.0,0.0,0.0,0.0,0.0,0.0,4.152,4.1052,4.1336,4.0761,3.969,3.9684,3.8328,0.0,0.0,0.0,0.0,0.0,0.0,0.0,0.0,0.0,0.0,0.0,0.0,0.0,0.0,0.0,0.0,0.0,0.0,0.0,0.0,0.0,0.0,0.0,0.0,0.0,0.0,0.0,0.0,0.0,0.0,0.0,0.0,0.0,0.0,0.0,0.0,0.0,0.0,0.0,0.0,0.0,0.0,0.0,0.0,0.0,0.0,0.0,0.0,0.0,0.0,0.0,0.0,0.0,0.0,0.0,0.0,0.0,0.0,0.0,0.0,0.0,0.0,0.0,0.0,0.0,0.0,0.0,0.0,0.0,0.0,0.0,0.0,0.0,0.0,0.0,0.0,0.0,0.0,0.0,0.0,0.0,0.0,0.0,0.0,0.0,0.0,0.0,0.0,0.0,0.0,0.0,0.0,0.0,0.0,0.0,0.0,0.0,0.0,0.0,0.0,0.0,0.0,0.0,0.0,0.0,0.0,0.0,0.0,0.0,4.2794,0.0,4.1301,0.0,4.0923,3.9827,0.0,0.0,0.0,0.0,0.0,0.0,0.0,0.0,0.0,0.0,0.0,0.0,0.0,0.0,0.0,0.0,0.0,0.0,0.0,0.0,0.0,0.0,0.0,0.0,0.0,0.0,0.0,0.0,0.0,0.0,0.0,0.0,0.0,0.0,0.0,0.0,0.0,0.0,0.0,0.0,0.0,0.0,0.0,0.0,0.0,0.0,0.0,0.0,0.0,0.0,0.0,0.0,0.0,0.0,0.0,0.0,0.0,0.0,0.0,0.0,0.0,0.0,0.0,0.0,0.0,0.0,0.0,0.0,0.0,0.0,0.0,0.0,0.0,0.0,0.0,0.0,0.0,0.0,0.0,0.0,0.0,0.0,0.0,0.0,0.0,0.0,0.0,0.0,0.0,0.0,0.0,0.0,0.0,0.0,0.0,0.0,0.0,0.0,0.0,0.0,0.0,0.0,0.0,0.0,0.0,0.0,0.0,0.0,0.0,4.4733,4.4,4.2757,0.0,4.204,4.1061,0.0,0.0,0.0,0.0,0.0,0.0,0.0,0.0,0.0,0.0,0.0,0.0,0.0,0.0,0.0,0.0,0.0,0.0,0.0,0.0,0.0,0.0,0.0,0.0,0.0,0.0,0.0,0.0,0.0,0.0,0.0,0.0,0.0,0.0,0.0,0.0,0.0,0.0,0.0,0.0,0.0,0.0,0.0,0.0,0.0,0.0,0.0,0.0,0.0,0.0,0.0,0.0,0.0,0.0,0.0,0.0,0.0,0.0,0.0,0.0,0.0,0.0,0.0,0.0,0.0,0.0,0.0,0.0,0.0,0.0,0.0,0.0,0.0,0.0,0.0,0.0,0.0,0.0,0.0,0.0,0.0,0.0,0.0,0.0,0.0,0.0,0.0,0.0,0.0,0.0,0.0,0.0,0.0,0.0,0.0,0.0,0.0,0.0,0.0,0.0,0.0,0.0,0.0,0.0,0.0,0.0,0.0,0.0,0.0,0.0,4.6417,4.5163,4.3125,4.3135,4.1857,0.0,0.0,0.0,0.0,0.0,0.0,0.0,0.0,0.0,0.0,0.0,0.0,0.0,0.0,0.0,0.0,0.0,0.0,0.0,0.0,0.0,0.0,0.0,0.0,0.0,0.0,0.0,0.0,0.0,0.0,0.0,0.0,0.0,0.0,0.0,0.0,0.0,0.0,0.0,0.0,0.0,0.0,0.0,0.0,0.0,0.0,0.0,0.0,0.0,0.0,0.0,0.0,0.0,0.0,0.0,0.0,0.0,0.0,0.0,0.0,0.0,0.0,0.0,0.0,0.0,0.0,0.0,0.0,0.0,0.0,0.0,0.0,0.0,0.0,0.0,0.0,0.0,0.0,0.0,0.0,0.0,0.0,0.0,0.0,0.0,0.0,0.0,0.0,0.0,0.0,0.0,0.0,0.0,0.0,0.0,0.0,0.0,0.0,0.0,0.0,0.0,0.0,0.0,0.0,0.0,0.0,0.0,0.0,0.0,0.0,4.7766,0.0,4.4862,4.3727,4.1267,3.7246,0.0,0.0,0.0,0.0,0.0,0.0,0.0,0.0,0.0,0.0,0.0,0.0,0.0,0.0,0.0,0.0,0.0,0.0,0.0,0.0,0.0,0.0,0.0,0.0,0.0,0.0,0.0,0.0,0.0,0.0,0.0,0.0,0.0,0.0,0.0,0.0,0.0,0.0,0.0,0.0,0.0,0.0,0.0,0.0,0.0,0.0,0.0,0.0,0.0,0.0,0.0,0.0,0.0,0.0,0.0,0.0,0.0,0.0,0.0,0.0,0.0,0.0,0.0,0.0,0.0,0.0,0.0,0.0,0.0,0.0,0.0,0.0,0.0,0.0,0.0,0.0,0.0,0.0,0.0,0.0,0.0,0.0,0.0,0.0,0.0,0.0,0.0,0.0,0.0,0.0,0.0,0.0,0.0,0.0,0.0,0.0,0.0,0.0,0.0,0.0,0.0,0.0,0.0,0.0,0.0,0.0,0.0,0.0,0.0,0.0,0.0,4.6065,4.4488,4.1436,0.0,0.0,0.0,0.0,0.0,0.0,0.0,0.0,0.0,0.0,0.0,0.0,0.0,0.0,0.0,0.0,0.0,0.0,0.0,0.0,0.0,0.0,0.0,0.0,0.0,0.0,0.0,0.0,0.0,0.0,0.0,0.0,0.0,0.0,0.0,0.0,0.0,0.0,0.0,0.0,0.0,0.0,0.0,0.0,0.0,0.0,0.0,0.0,0.0,0.0,0.0,0.0,0.0,0.0,0.0,0.0,0.0,0.0,0.0,0.0,0.0,0.0,0.0,0.0,0.0,0.0,0.0,0.0,0.0,0.0,0.0,0.0,0.0,0.0,0.0,0.0,0.0,0.0,0.0,0.0,0.0,0.0,0.0,0.0,0.0,0.0,0.0,0.0,0.0,0.0,0.0,0.0,0.0,0.0,0.0,0.0,0.0,0.0,0.0,0.0,0.0,0.0,0.0,0.0,0.0,0.0,0.0,0.0,0.0,0.0,0.0,4.8508,4.6727,4.5133,0.0,3.7487,0.0,0.0,0.0,0.0,0.0,0.0,0.0,0.0,0.0,0.0,0.0,0.0,0.0,0.0,0.0,0.0,0.0,0.0,0.0,0.0,0.0,0.0,0.0,0.0,0.0,0.0,0.0,0.0,0.0,0.0,0.0,0.0,0.0,0.0,0.0,0.0,0.0,0.0,0.0,0.0,0.0,0.0,0.0,0.0,0.0,0.0,0.0,0.0,0.0,0.0,0.0,0.0,0.0,0.0,0.0,0.0,0.0,0.0,0.0,0.0,0.0,0.0,0.0,0.0,0.0,0.0,0.0,0.0,0.0,0.0,0.0,0.0,0.0,0.0,0.0,0.0,0.0,0.0,0.0,0.0,0.0,0.0,0.0,0.0,0.0,0.0,0.0,0.0,0.0,0.0,0.0,0.0,0.0,0.0,0.0,0.0,0.0,0.0,0.0,0.0,0.0,0.0,0.0,0.0,0.0,0.0,0.0,0.0,0.0,0.0,0.0,0.0,4.4836,4.2857,3.9158,0.0,0.0,0.0,0.0,0.0,0.0,0.0,0.0,0.0,0.0,0.0,0.0,0.0,0.0,0.0,0.0,0.0,0.0,0.0,0.0,0.0,0.0,0.0,0.0,0.0,0.0,0.0,0.0,0.0,0.0,0.0,0.0,0.0,0.0,0.0,0.0,0.0,0.0,0.0,0.0,0.0,0.0,0.0,0.0,0.0,0.0,0.0,0.0,0.0,0.0,0.0,0.0,0.0,0.0,0.0,0.0,0.0,0.0,0.0,0.0,0.0,0.0,0.0,0.0,0.0,0.0,0.0,0.0,0.0,0.0,0.0,0.0,0.0,0.0,0.0,0.0,0.0,0.0,0.0,0.0,0.0,0.0,0.0,0.0,0.0,0.0,0.0,0.0,0.0,0.0,0.0,0.0,0.0,0.0,0.0,0.0,0.0,0.0,0.0,0.0,0.0,0.0,0.0,0.0,0.0,0.0,0.0,0.0,0.0,0.0,4.7823,4.4662,4.4511,4.2965,3.9663,0.0,0.0,0.0,0.0,0.0,0.0,0.0,0.0,0.0,0.0,0.0,0.0,0.0,0.0,0.0,0.0,0.0,0.0,0.0,0.0,0.0,0.0,0.0,0.0,0.0,0.0,0.0,0.0,0.0,0.0,0.0,0.0,0.0,0.0,0.0,0.0,0.0,0.0,0.0,0.0,0.0,0.0,0.0,0.0,0.0,0.0,0.0,0.0,0.0,0.0,0.0,0.0,0.0,0.0,0.0,0.0,0.0,0.0,0.0,0.0,0.0,0.0,0.0,0.0,0.0,0.0,0.0,0.0,0.0,0.0,0.0,0.0,0.0,0.0,0.0,0.0,0.0,0.0,0.0,0.0,0.0,0.0,0.0,0.0,0.0,0.0,0.0,0.0,0.0,0.0,0.0,0.0,0.0,0.0,0.0,0.0,0.0,0.0,0.0,0.0,0.0,0.0,0.0,0.0,0.0,0.0,0.0,0.0,0.0,0.0,0.0,0.0,0.0,0.0,3.9489,0.0,0.0,0.0,0.0,0.0,0.0,0.0,0.0,0.0,0.0,0.0,0.0,0.0,0.0,0.0,0.0,0.0,0.0,0.0,0.0,0.0,0.0,0.0,0.0,0.0,0.0,0.0,0.0,0.0,0.0,0.0,0.0,0.0,0.0,0.0,0.0,0.0,0.0,0.0,0.0,0.0,0.0,0.0,0.0,0.0,0.0,0.0,0.0,0.0,0.0,0.0,0.0,0.0,0.0,0.0,0.0,0.0,0.0,0.0,0.0,0.0,0.0,0.0,0.0,0.0,0.0,0.0,0.0,0.0,0.0,0.0,0.0,0.0,0.0,0.0,0.0,0.0,0.0,0.0,0.0,0.0,0.0,0.0,0.0,0.0,0.0,0.0,0.0,0.0,0.0,0.0,0.0,0.0,0.0,0.0,0.0,0.0,0.0,0.0,0.0,0.0,0.0,0.0,0.0,0.0,0.0,0.0,0.0,0.0,0.0,0.0,0.0,0.0,0.0,0.0,0.0,0.0,0.0,0.0,0.0,0.0,0.0,0.0,0.0,0.0,0.0,0.0,0.0,0.0,0.0,0.0,0.0,0.0,0.0,0.0,0.0,0.0,0.0,0.0,0.0,0.0,0.0,0.0,0.0,0.0,0.0,0.0,0.0,0.0,0.0,0.0,0.0,0.0,0.0,0.0,0.0,0.0,0.0,0.0,0.0,0.0,0.0,0.0,0.0,0.0,0.0,0.0,0.0,0.0,0.0,0.0,0.0,0.0,0.0,0.0,0.0,0.0,0.0,0.0,0.0,0.0,0.0,0.0,0.0,0.0,0.0,0.0,0.0,0.0,0.0,0.0,0.0,0.0,0.0,0.0,0.0,0.0,0.0,0.0,0.0,0.0,0.0,0.0,0.0,0.0,0.0,0.0,0.0,0.0,0.0,0.0,0.0,0.0,0.0,0.0,0.0,0.0,0.0,0.0,0.0,0.0,0.0,0.0,0.0,0.0,0.0,0.0,0.0,0.0,0.0,0.0,0.0,0.0,0.0,0.0,0.0,0.0,0.0,0.0,0.0,0.0,0.0,0.0,0.0,0.0,0.0,0.0,0.0,0.0,0.0,0.0,0.0,0.0,0.0,0.0,0.0,0.0,0.0,0.0,0.0,0.0,0.0,0.0,0.0,0.0,0.0,0.0,0.0,0.0,0.0,0.0,0.0,0.0,0.0,0.0,0.0,0.0,0.0,0.0,0.0,0.0,0.0,0.0,0.0,0.0,0.0,0.0,0.0,0.0,0.0,0.0,0.0,0.0,0.0,0.0,0.0,0.0,0.0,0.0,0.0,0.0,0.0,0.0,0.0,0.0,0.0,0.0,0.0,0.0,0.0,0.0,0.0,0.0,0.0,0.0,0.0,0.0,0.0,0.0,0.0,0.0,0.0,0.0,0.0,0.0,0.0,0.0,0.0,0.0,0.0,0.0,0.0,0.0,0.0,0.0,0.0,0.0,0.0,0.0,0.0,0.0,0.0,0.0,0.0,0.0,0.0,0.0,0.0,0.0,0.0,0.0,0.0,0.0,0.0,0.0,0.0,0.0,0.0,0.0,0.0,0.0,0.0,0.0,0.0,0.0,0.0,0.0,0.0,0.0,0.0,0.0,0.0,0.0,0.0,0.0,0.0,0.0,0.0,0.0,0.0,0.0,0.0,0.0,0.0,0.0,0.0,0.0,0.0,0.0,0.0,0.0,0.0,0.0,0.0,0.0,0.0,0.0,0.0,0.0,0.0,0.0,0.0,0.0,0.0,0.0,0.0,0.0,0.0,0.0,0.0,0.0,0.0,0.0,0.0,0.0,0.0,0.0,0.0,0.0,0.0,0.0,0.0,0.0,0.0,0.0,0.0,0.0,0.0,0.0,0.0,0.0,0.0,0.0,0.0,0.0,0.0,0.0,0.0,0.0,0.0,0.0,0.0,0.0,0.0,0.0,0.0,0.0,0.0,0.0,0.0,0.0,0.0,0.0,0.0,0.0,0.0,0.0,0.0,0.0,0.0,0.0,0.0,0.0,0.0,0.0,0.0,0.0,0.0,0.0,0.0,0.0,0.0,0.0,0.0,0.0,0.0,0.0,0.0,0.0,0.0,0.0,0.0,0.0,0.0,0.0,0.0,0.0,0.0,0.0,0.0,0.0,0.0,0.0,0.0,0.0,0.0,0.0,0.0,0.0,0.0,0.0,0.0,0.0,0.0,0.0,0.0,0.0,0.0,0.0,0.0,0.0,0.0,0.0,0.0,0.0,0.0,0.0,0.0,0.0,0.0,0.0,0.0,0.0,0.0,0.0,0.0,0.0,0.0,0.0,0.0,0.0,0.0,0.0,0.0,0.0,0.0,0.0,0.0,0.0,0.0,0.0,0.0,0.0,0.0,0.0,0.0,0.0,0.0,0.0,0.0,0.0,0.0,0.0,0.0,0.0,0.0,0.0,0.0,0.0,0.0,0.0,0.0,0.0,0.0,0.0,0.0,0.0,0.0,0.0,0.0,0.0,0.0,0.0,0.0,0.0,0.0,0.0,0.0,0.0,0.0,0.0,0.0,0.0,0.0,0.0,0.0,0.0,0.0,0.0,0.0,0.0,0.0,0.0,0.0,0.0,0.0,0.0,0.0,0.0,0.0,0.0,0.0,0.0,0.0,0.0,0.0,0.0,0.0,0.0,0.0,0.0,0.0,0.0,0.0,0.0,0.0,0.0,0.0,0.0,0.0,0.0,0.0,0.0,0.0,0.0,0.0,0.0,0.0,0.0,0.0,0.0,0.0,0.0,0.0,0.0,0.0,0.0,0.0,0.0,0.0,0.0,0.0,0.0,0.0,0.0,0.0,0.0,0.0,0.0,0.0,0.0,0.0,0.0,0.0,0.0,0.0,0.0,0.0,0.0,0.0,0.0,0.0,0.0,0.0,0.0,0.0,0.0,0.0,0.0,0.0,0.0,0.0,0.0,0.0,0.0,0.0,0.0,0.0,0.0,0.0,0.0,0.0,0.0,0.0,0.0,0.0,0.0,0.0,0.0,0.0,0.0,0.0,0.0,0.0,0.0,0.0,0.0,0.0,0.0,0.0,0.0,0.0,0.0,0.0,0.0,0.0,0.0,0.0,0.0,0.0,0.0,0.0,0.0,0.0,0.0,0.0,0.0,0.0,0.0,0.0,0.0,0.0,0.0,0.0,0.0,0.0,0.0,0.0,0.0,0.0,0.0,0.0,0.0,0.0,0.0,0.0,0.0,0.0,0.0,0.0,0.0,0.0,0.0,0.0,0.0,0.0,0.0,0.0,0.0,0.0,0.0,0.0,0.0,0.0,0.0,0.0,0.0,0.0,0.0,0.0,0.0,0.0,0.0,0.0,0.0,0.0,0.0,0.0,0.0,0.0,0.0,0.0,0.0,0.0,0.0,0.0,0.0,0.0,0.0,0.0,0.0,0.0,0.0,0.0,0.0,0.0,0.0,0.0,0.0,0.0,0.0,0.0,0.0,0.0,0.0,0.0,0.0,0.0,0.0,0.0,0.0,0.0,0.0,0.0,0.0,0.0,0.0,0.0,0.0,0.0,0.0,0.0,0.0,0.0,0.0,0.0,0.0,0.0,0.0,0.0,0.0,0.0,0.0,0.0,0.0,0.0,0.0,0.0,0.0,0.0,0.0,0.0,0.0,0.0,0.0,0.0,0.0,0.0,0.0,0.0,0.0,0.0,0.0,0.0,0.0,0.0,0.0,0.0,0.0,0.0,0.0,0.0,0.0,0.0,0.0,0.0,0.0,0.0,0.0,0.0,0.0,0.0,0.0,0.0,0.0,0.0,0.0,0.0,0.0,0.0,0.0,0.0,0.0,0.0,0.0,0.0,0.0,0.0,0.0,0.0,0.0,0.0,0.0,0.0,0.0,0.0,0.0,0.0,0.0,0.0,0.0,0.0,0.0,0.0,0.0,0.0,0.0,0.0,0.0,0.0,0.0,0.0,0.0,0.0,0.0,0.0,0.0,0.0,0.0,0.0,0.0,0.0,0.0,0.0,0.0,0.0,0.0,0.0,0.0,0.0,0.0,0.0,0.0,0.0,0.0,0.0,0.0,0.0,0.0,0.0,0.0,0.0,0.0,0.0,0.0,0.0,0.0,0.0,0.0,0.0,0.0,0.0,0.0,0.0,0.0,0.0,0.0,0.0,0.0,0.0,0.0,0.0,0.0,0.0,0.0,0.0,0.0,0.0,0.0,0.0,0.0,0.0,0.0,0.0,0.0,0.0,0.0,0.0,0.0,0.0,0.0,0.0,0.0,0.0,0.0,0.0,0.0,0.0,0.0,0.0,0.0,0.0,0.0,0.0,0.0,0.0,0.0,0.0]}]]]